[[[{"header":{"parameterUnit":"kt","parameterCategory":2,"dx":1,"dy":1,"la1":29.285339999999998,"la2":30.599998999999997,"lo1":-89.70041500000002,"lo2":-87.6738589999976,"nx":112,"ny":82,"refTime":"2022-10-29T12:00:00:Z","depth":0,"parameterNumber":1,"parameterNumberName":"U-component_of_WINDS"},"data":[-14.2918,-14.406,0.0,-13.9208,-13.828,0.0,-13.1502,0.0,-12.929,0.0,0.0,0.0,0.0,-13.0075,-12.822,-12.7221,-12.7007,-12.6222,0.0,-12.6771,0.0,0.0,0.0,0.0,0.0,0.0,0.0,0.0,0.0,0.0,0.0,0.0,-14.5173,-14.2702,-14.1251,-13.9964,-13.8619,-13.8619,-13.8619,-13.8619,-13.8619,-13.8619,-13.8619,-13.8619,-13.8619,-13.8619,-13.8619,-13.8619,-13.8619,-13.8619,-13.8619,-13.8619,-13.8619,-13.8947,-13.9474,-14.0394,-14.1381,-14.2498,-14.3879,-14.4997,-14.5786,-14.5786,-14.6378,-14.7167,-14.7167,-14.7167,-14.7167,-14.7167,-14.7167,-14.7167,-14.7167,-14.7167,-14.7167,-14.7167,-14.7167,-14.7167,-14.7167,-14.7167,-14.7167,-14.7167,-14.7167,-14.7167,-14.7167,-14.7167,-14.7167,-14.7167,-14.7167,-14.6444,-14.4537,-14.3879,-14.2696,-14.0263,-13.7642,-13.5379,-13.3231,-13.1269,-13.0003,-12.9595,-12.9944,-13.0235,-13.0235,-13.0235,-13.0235,-13.0235,-13.0235,-13.0235,-13.0235,-13.0235,-13.0235,-13.0235,-12.977,-12.9537,0.0,0.0,-14.1063,-13.5355,0.0,0.0,0.0,0.0,-12.5865,-12.4795,-12.5865,-12.6935,-12.6935,-12.6935,-12.665,-12.558,-12.6293,-12.6793,0.0,0.0,0.0,0.0,0.0,0.0,0.0,0.0,0.0,0.0,0.0,0.0,0.0,-14.5742,-14.4152,-14.1667,-14.0925,-13.9897,-13.8619,-13.8619,-13.8619,-13.8619,-13.8619,-13.8619,-13.8619,-13.8619,-13.8619,-13.8619,-13.8619,-13.8619,-13.8619,-13.8619,-13.8619,-13.8619,-13.8619,-13.8619,-13.875,-13.9671,-14.0328,-14.0854,-14.1775,-14.3419,-14.5063,-14.5063,-14.5984,-14.7167,-14.7167,-14.7167,-14.7167,-14.7167,-14.7167,-14.7167,-14.7167,-14.7167,-14.7167,-14.7167,-14.7167,-14.7167,-14.7167,-14.7167,-14.7167,-14.7167,-14.7167,-14.7167,-14.7167,-14.7167,-14.7167,-14.7167,-14.7167,-14.6641,-14.5195,-14.4208,-14.2827,-14.092,-13.6643,-13.3965,-13.4207,-13.1053,-12.9305,-13.0177,-13.0235,-13.0235,-13.0235,-13.0235,-13.0235,-13.0235,-13.0235,-13.0235,-13.0235,-13.0235,-13.0235,-13.0235,-13.0235,-13.0235,0.0,0.0,0.0,-13.0432,0.0,-12.8933,-12.7435,-12.5794,-12.4581,-12.4652,-12.5865,-12.6864,-12.6935,-12.6935,-12.6935,-12.7007,-12.7078,0.0,0.0,0.0,0.0,0.0,0.0,0.0,0.0,0.0,0.0,0.0,0.0,0.0,-14.4172,-14.2547,-14.1506,-14.1345,-13.9626,-13.8619,-13.8619,-13.8619,-13.8619,-13.8619,-13.8619,-13.8619,-13.8619,-13.8619,-13.8619,-13.8619,-13.8619,-13.8619,-13.8619,-13.8619,-13.8619,-13.8619,-13.8619,-13.8619,-13.8619,-13.8619,-13.9474,-14.0657,-14.0657,-14.2498,-14.4866,-14.4931,-14.5984,-14.7167,-14.7167,-14.7167,-14.7167,-14.7167,-14.7167,-14.7167,-14.7167,-14.7167,-14.7167,-14.7167,-14.7167,-14.7167,-14.7167,-14.7167,-14.7167,-14.7167,-14.7167,-14.7167,-14.7167,-14.7167,-14.7167,-14.7167,-14.7167,-14.6641,-14.526,-14.5063,-14.3945,-14.1005,-13.596,-13.3231,-13.4187,-12.9338,-12.756,-13.0061,-13.0235,-13.0235,-13.0235,-13.0235,-13.0235,-13.0235,-13.0235,-13.0235,-13.0235,-13.0235,-13.0235,-13.0235,-13.0235,-13.0235,-13.0217,-13.0788,-13.2572,-13.1288,-13.0931,-13.0788,-13.0432,-12.7363,-12.4937,-12.6079,-12.5722,0.0,0.0,0.0,-12.7292,-12.8434,0.0,-13.2144,0.0,0.0,0.0,0.0,0.0,0.0,0.0,0.0,0.0,0.0,0.0,0.0,-14.2187,-14.1826,-14.0761,-13.9522,-13.8901,-13.8619,-13.8619,-13.8619,-13.8619,-13.8619,-13.8619,-13.8619,-13.8619,-13.8619,-13.8619,-13.8619,-13.8619,-13.8619,-13.8619,-13.8619,-13.8619,-13.8619,-13.8619,-13.8619,-13.8619,-13.8619,-13.8882,-13.9211,-13.9211,-13.9737,-14.0723,-14.2761,-14.5129,-14.7167,-14.7167,-14.7167,-14.7167,-14.7167,-14.7167,-14.7167,-14.7167,-14.7167,-14.7167,-14.7167,-14.7167,-14.7167,-14.7167,-14.7167,-14.7167,-14.7167,-14.7167,-14.7167,-14.7167,-14.7167,-14.7167,-14.7167,-14.7167,-14.7036,-14.6641,-14.5655,-14.3869,-14.1017,-13.6749,-13.3833,-13.2962,-12.9696,-12.849,-13.0119,-13.0235,-13.0235,-13.0235,-13.0235,-13.0235,-13.0235,-13.0235,-13.0235,-13.0235,-13.0235,-13.0235,-13.0235,-13.0235,-13.0235,-12.7577,-12.822,-13.0289,-12.9004,-13.0646,-13.2073,-13.0075,-12.8006,-12.665,-12.6864,0.0,0.0,0.0,0.0,0.0,0.0,-13.2429,0.0,0.0,0.0,0.0,0.0,0.0,0.0,0.0,0.0,0.0,0.0,0.0,-13.8964,-14.0199,-14.0233,-13.9795,-13.8619,-13.8619,-13.8619,-13.8619,-13.8619,-13.8619,-13.8619,-13.8619,-13.8619,-13.8619,-13.8619,-13.8619,-13.8619,-13.8619,-13.8619,-13.8619,-13.8619,-13.8619,-13.8619,-13.8619,-13.8619,-13.8619,-13.8619,-13.8619,-13.8684,-13.9276,-13.9474,-14.0,-14.2827,-14.5326,-14.7167,-14.7167,-14.7167,-14.7167,-14.7167,-14.7167,-14.7167,-14.7167,-14.7167,-14.7167,-14.7167,-14.7167,-14.7167,-14.7167,-14.7167,-14.7167,-14.7167,-14.7167,-14.7167,-14.7167,-14.7167,-14.7167,-14.7167,-14.6641,-14.6444,-14.7102,-14.486,-14.2497,-14.1019,-13.6588,-13.3368,-13.2529,-12.9827,-12.8839,-13.0119,-13.0235,-13.0235,-13.0235,-13.0235,-13.0235,-13.0235,-13.0235,-13.0235,-13.0235,-13.0235,-13.0235,-13.0235,-13.0235,-13.0235,-12.6579,-12.6579,-12.822,-12.5936,-12.9433,-13.2501,-12.9076,0.0,-12.9575,-12.8719,0.0,0.0,0.0,0.0,0.0,0.0,0.0,0.0,0.0,0.0,0.0,0.0,0.0,0.0,0.0,0.0,-13.9611,-13.8769,-13.7669,-13.75,-13.8487,-13.8619,-13.8619,-13.8619,-13.8619,-13.8619,-13.8619,-13.8619,-13.8619,-13.8619,-13.8619,-13.8619,-13.8619,-13.8619,-13.8619,-13.8619,-13.8619,-13.8619,-13.8619,-13.8619,-13.8619,-13.8619,-13.8619,-13.8619,-13.8619,-13.8619,-13.875,-13.9079,-14.0328,-14.0854,-14.1381,-14.4142,-14.5852,-14.6904,-14.7102,-14.7167,-14.7167,-14.7167,-14.7167,-14.7167,-14.7167,-14.7167,-14.7167,-14.7167,-14.7167,-14.7167,-14.7167,-14.7167,-14.7167,-14.7167,-14.7167,-14.7167,-14.7167,-14.7167,-14.7167,-14.7167,-14.6049,-14.5721,-14.697,-14.3533,-14.0819,-14.0622,-13.5847,-13.2547,-13.216,-12.9832,-12.9014,-13.0119,-13.0235,-13.0235,-13.0235,-13.0235,-13.0235,-13.0235,-13.0235,-13.0235,-13.0235,-13.0235,-13.0235,-13.0235,-13.0235,-13.0235,-12.6008,-12.5009,-12.6222,-12.9433,-13.0217,-13.1216,0.0,0.0,0.0,0.0,0.0,0.0,0.0,0.0,0.0,0.0,0.0,0.0,0.0,0.0,0.0,0.0,0.0,0.0,0.0,-14.1556,-14.0484,-13.8727,-13.8373,-13.8307,-13.8553,-13.8619,-13.8619,-13.8619,-13.8619,-13.8619,-13.8619,-13.8619,-13.8619,-13.8619,-13.8619,-13.8619,-13.8619,-13.8619,-13.8619,-13.8619,-13.8619,-13.8619,-13.8619,-13.8619,-13.8619,-13.8619,-13.8619,-13.8619,-13.8619,-13.8619,-13.9342,-14.0394,-14.0657,-14.1512,-14.2696,-14.4471,-14.5195,-14.5655,-14.6773,-14.7167,-14.7167,-14.7167,-14.7167,-14.7167,-14.7167,-14.7167,-14.7167,-14.7167,-14.7167,-14.7167,-14.7167,-14.7167,-14.7167,-14.7167,-14.7167,-14.7167,-14.7167,-14.7167,-14.7167,-14.7167,-14.6904,-14.6838,-14.7102,-14.4439,-14.1755,-13.9442,-13.6246,-13.3312,-13.095,-13.0065,-12.9944,-13.0177,-13.0235,-13.0235,-13.0235,-13.0235,-13.0235,-13.0235,-13.0235,-13.0235,-13.0235,-13.0235,-13.0235,-13.0235,-13.0235,-13.0235,-12.4652,-12.3938,-12.5151,-12.7506,-12.9219,0.0,0.0,-13.4499,-13.5069,0.0,0.0,0.0,0.0,0.0,0.0,0.0,0.0,0.0,0.0,0.0,0.0,0.0,0.0,0.0,0.0,-14.0664,-13.9626,-13.8619,-13.8619,-13.8619,-13.8619,-13.8619,-13.8619,-13.8619,-13.8619,-13.8619,-13.8619,-13.8619,-13.8619,-13.8619,-13.8619,-13.8619,-13.8619,-13.8619,-13.8619,-13.8619,-13.8619,-13.8619,-13.8619,-13.8619,-13.8619,-13.8619,-13.8619,-13.8619,-13.8684,-13.9408,-14.0131,-14.092,-14.2367,-14.3353,-14.4142,-14.5655,-14.6115,-14.6247,-14.6904,-14.7167,-14.7167,-14.7167,-14.7167,-14.7167,-14.7167,-14.7167,-14.7167,-14.7167,-14.7167,-14.7167,-14.7167,-14.7167,-14.7167,-14.7167,-14.7167,-14.7167,-14.7167,-14.7167,-14.7167,-14.7167,-14.6575,-14.5942,-14.5146,-14.1963,-13.9066,-13.6771,-13.4065,-13.1712,-13.0415,-13.0235,-13.0235,-13.0235,-13.0235,-13.0235,-13.0235,-13.0235,-13.0235,-13.0235,-13.0235,-13.0235,-13.0235,-13.0235,-13.0235,-13.0235,-13.0235,-13.0235,-12.4081,-12.4224,-12.5722,-12.665,-12.9219,0.0,-13.3928,-13.4855,-13.6354,0.0,0.0,0.0,0.0,0.0,0.0,0.0,0.0,0.0,0.0,0.0,0.0,0.0,0.0,0.0,0.0,-13.9456,-13.8619,-13.8619,-13.8619,-13.8619,-13.8619,-13.8619,-13.8619,-13.8619,-13.8619,-13.8619,-13.8619,-13.8619,-13.8619,-13.8619,-13.8619,-13.8619,-13.8619,-13.8619,-13.8619,-13.8619,-13.8619,-13.8619,-13.8619,-13.8619,-13.8619,-13.8619,-13.8947,-13.9013,-13.9211,-14.0591,-14.1315,-14.1907,-14.4208,-14.5195,-14.5655,-14.6773,-14.7167,-14.7167,-14.7167,-14.7167,-14.7167,-14.7167,-14.7167,-14.7167,-14.7167,-14.7167,-14.7167,-14.7167,-14.7167,-14.7167,-14.7167,-14.7167,-14.7167,-14.7167,-14.7167,-14.7167,-14.7167,-14.7167,-14.7167,-14.7167,-14.6181,-14.486,-14.3268,-13.9497,-13.6526,-13.4621,-13.1946,-13.0235,-13.0235,-13.0235,-13.0235,-13.0235,-13.0235,-13.0235,-13.0235,-13.0235,-13.0235,-13.0235,-13.0235,-13.0235,-13.0235,-13.0235,-13.0235,-13.0235,-13.0235,-13.0235,-12.6579,-12.7577,-12.9718,-13.3928,-13.3286,0.0,-14.2133,-14.2062,-14.1848,0.0,0.0,0.0,0.0,0.0,0.0,0.0,0.0,0.0,0.0,0.0,0.0,0.0,0.0,0.0,0.0,-13.8793,-13.8619,-13.8619,-13.8619,-13.8619,-13.8619,-13.8619,-13.8619,-13.8619,-13.8619,-13.8619,-13.8619,-13.8619,-13.8619,-13.8619,-13.8619,-13.8619,-13.8619,-13.8619,-13.8619,-13.8619,-13.8619,-13.8619,-13.8619,-13.8619,-13.8619,-13.875,-14.0,-14.0526,-14.0657,-14.2104,-14.3419,-14.4603,-14.4931,-14.5852,-14.6904,-14.7102,-14.7167,-14.7167,-14.7167,-14.7167,-14.7167,-14.7167,-14.7167,-14.7167,-14.7167,-14.7167,-14.7167,-14.7167,-14.7167,-14.7167,-14.7167,-14.7167,-14.7167,-14.7167,-14.7167,-14.7167,-14.7167,-14.7167,-14.7167,-14.7167,-14.7036,-14.597,-14.3461,-14.0378,-13.7575,-13.4681,-13.1946,-13.0235,-13.0235,-13.0235,-13.0235,-13.0235,-13.0235,-13.0235,-13.0235,-13.0235,-13.0235,-13.0235,-13.0235,-13.0235,-13.0235,-13.0235,-13.0235,-13.0235,-13.0235,-13.0235,-12.6721,-12.7435,-12.8576,-13.143,0.0,0.0,-14.0207,-14.1206,0.0,0.0,0.0,0.0,0.0,0.0,0.0,0.0,0.0,0.0,0.0,0.0,0.0,0.0,0.0,0.0,0.0,0.0,-13.8619,-13.8619,-13.8619,-13.8619,-13.8619,-13.8619,-13.8619,-13.8619,-13.8619,-13.8619,-13.8619,-13.8619,-13.8619,-13.8619,-13.8619,-13.8619,-13.8619,-13.8619,-13.8619,-13.8619,-13.8619,-13.8619,-13.8619,-13.8619,-13.8619,-13.8684,-13.9276,-14.0,-14.092,-14.2301,-14.3748,-14.5129,-14.5984,-14.6641,-14.7167,-14.7167,-14.7167,-14.7167,-14.7167,-14.7167,-14.7167,-14.7167,-14.7167,-14.7167,-14.7167,-14.7167,-14.7167,-14.7167,-14.7167,-14.7167,-14.7167,-14.7167,-14.7167,-14.7167,-14.7167,-14.7167,-14.7167,-14.7167,-14.7167,-14.7167,-14.7167,-14.5467,-14.1121,-13.9462,-13.7111,-13.2583,-13.0831,-13.0235,-13.0235,-13.0235,-13.0235,-13.0235,-13.0235,-13.0235,-13.0235,-13.0235,-13.0235,-13.0235,-13.0235,-13.0235,-13.0235,-13.0235,-13.0235,-13.0235,-13.0235,-12.9828,-12.7292,0.0,0.0,0.0,0.0,0.0,-14.0849,0.0,0.0,0.0,0.0,0.0,0.0,0.0,0.0,0.0,0.0,0.0,0.0,0.0,0.0,0.0,0.0,0.0,0.0,0.0,0.0,0.0,-13.8619,-13.8619,-13.8619,-13.8619,-13.8619,-13.8619,-13.8619,-13.8619,-13.8619,-13.8619,-13.8619,-13.8619,-13.8619,-13.8619,-13.8619,-13.8619,-13.8619,-13.8619,-13.8619,-13.8619,-13.8619,-13.8619,-13.8619,-13.8684,-13.9079,-13.9802,-14.092,-14.2761,-14.4142,-14.526,-14.6641,-14.7167,-14.7167,-14.7167,-14.7167,-14.7167,-14.7167,-14.7167,-14.7167,-14.7167,-14.7167,-14.7167,-14.7167,-14.7167,-14.7167,-14.7167,-14.7167,-14.7167,-14.7167,-14.7167,-14.7167,-14.7167,-14.7167,-14.7167,-14.7167,-14.7167,-14.7167,-14.7167,-14.6543,-14.4246,-13.9399,-13.8128,-13.5795,-13.0889,-13.0235,-13.0235,-13.0235,-12.9886,-12.9828,-13.0177,-12.9886,-12.9886,-13.0177,-13.0235,-13.0235,-13.0235,-13.0235,-13.0235,-13.0235,-13.0235,-13.0235,-13.0235,-13.0235,-12.9712,0.0,0.0,0.0,-13.9422,-13.9493,-14.0492,-14.8198,-14.7627,-14.6414,0.0,0.0,0.0,0.0,0.0,0.0,0.0,0.0,0.0,0.0,0.0,0.0,0.0,0.0,0.0,0.0,0.0,0.0,0.0,-13.8619,-13.8619,-13.8619,-13.8619,-13.8619,-13.8619,-13.8619,-13.8619,-13.8619,-13.8619,-13.8619,-13.8619,-13.8619,-13.8619,-13.8619,-13.8619,-13.8619,-13.8619,-13.8619,-13.8619,-13.8619,-13.8619,-13.8619,-13.875,-14.0131,-14.0723,-14.1052,-14.3945,-14.4997,-14.526,-14.6641,-14.7167,-14.7167,-14.7167,-14.7167,-14.7167,-14.7167,-14.7167,-14.7167,-14.7167,-14.7167,-14.7167,-14.7167,-14.7167,-14.7167,-14.7167,-14.7167,-14.7167,-14.7167,-14.7167,-14.7167,-14.7167,-14.7167,-14.7167,-14.7167,-14.7167,-14.7167,-14.7167,-14.4892,-14.2137,-13.9252,-13.6456,-13.3442,-13.0652,-13.0235,-13.0235,-13.0235,-12.9072,-12.8897,-13.0119,-12.9072,-12.8897,-13.0177,-13.0235,-13.0235,-13.0235,-13.0235,-13.0235,-13.0235,-13.0235,-13.0235,-13.0235,-13.0235,-13.0177,-13.1787,-13.3928,-13.6354,-13.9993,-14.2133,-14.3988,-14.6628,-14.7199,-14.777,-14.9839,0.0,0.0,0.0,0.0,0.0,0.0,0.0,0.0,0.0,0.0,0.0,0.0,0.0,0.0,0.0,0.0,0.0,0.0,0.0,0.0,-13.8619,-13.8619,-13.8619,-13.8619,-13.8619,-13.8619,-13.8619,-13.8619,-13.8619,-13.8619,-13.8619,-13.8619,-13.8619,-13.8619,-13.8619,-13.8619,-13.8619,-13.8619,-13.8619,-13.8619,-13.8619,-13.8684,-13.9145,-13.9934,-14.0986,-14.2893,-14.4208,-14.526,-14.6641,-14.7167,-14.7167,-14.7167,-14.7167,-14.7167,-14.7167,-14.7167,-14.7167,-14.7167,-14.7167,-14.7167,-14.7167,-14.7167,-14.7167,-14.7167,-14.7167,-14.7167,-14.7167,-14.7167,-14.7167,-14.7167,-14.7167,-14.7167,-14.7167,-14.7167,-14.7167,-14.7167,-14.4827,-14.1935,-13.9189,-13.6236,-13.3442,-13.0652,-13.0235,-13.0235,-13.0235,-12.9072,-12.8839,-13.0119,-12.8199,-12.8025,-13.0119,-12.9421,-12.9363,-13.0177,-13.0235,-13.0235,-13.0235,-13.0235,-13.0235,-13.0235,-13.0235,-13.0235,-13.3785,-13.5498,-13.7281,-14.1562,-14.4559,-14.6628,-14.7128,-14.7627,-14.8198,-14.9268,0.0,0.0,0.0,0.0,0.0,0.0,0.0,0.0,0.0,0.0,0.0,0.0,0.0,0.0,0.0,0.0,0.0,0.0,0.0,-13.8619,-13.8619,-13.8619,-13.8619,-13.8619,-13.8619,-13.8619,-13.8619,-13.8619,-13.8619,-13.8619,-13.8619,-13.8619,-13.8619,-13.8619,-13.8619,-13.8619,-13.8619,-13.8619,-13.8619,-13.8619,-13.8619,-13.8619,-13.8619,-13.9211,-14.0131,-14.1578,-14.3025,-14.4471,-14.5918,-14.6707,-14.7167,-14.7167,-14.7167,-14.7167,-14.7167,-14.7167,-14.7167,-14.7167,-14.7167,-14.7167,-14.7167,-14.7167,-14.7167,-14.7167,-14.7167,-14.7167,-14.7167,-14.7167,-14.7167,-14.7167,-14.7167,-14.7167,-14.7167,-14.6289,-14.5722,-14.5722,-14.2338,-13.9399,-13.7483,-13.4741,-13.2351,-13.0415,-13.0235,-13.0235,-13.0235,-12.8607,-12.8199,-12.9479,-12.756,-12.7327,-12.9479,-12.9188,-12.9363,-13.0177,-13.0235,-13.0235,-13.0235,-13.0235,-13.0235,-13.0235,-13.0235,-13.0235,-13.5069,-13.6496,-13.8138,-14.4345,-14.6914,-14.8341,-14.9839,-14.8983,-14.7841,-14.7841,0.0,0.0,0.0,0.0,0.0,0.0,0.0,0.0,0.0,0.0,0.0,0.0,0.0,0.0,0.0,0.0,0.0,0.0,-13.8619,-13.8619,-13.8619,-13.8619,-13.8619,-13.8619,-13.8619,-13.8619,-13.8619,-13.8619,-13.8619,-13.8619,-13.8619,-13.8619,-13.8619,-13.8619,-13.8619,-13.8619,-13.8619,-13.8619,-13.8619,-13.8619,-13.8619,-13.8619,-13.8619,-13.8619,-13.8816,-14.0197,-14.1578,-14.2959,-14.4405,-14.5852,-14.7036,-14.7036,-14.7102,-14.7167,-14.7167,-14.7167,-14.7167,-14.7167,-14.7167,-14.7167,-14.7167,-14.7167,-14.7167,-14.7167,-14.7167,-14.7167,-14.7167,-14.7167,-14.7167,-14.7167,-14.7167,-14.7167,-14.6916,-14.4827,-14.3001,-14.2866,-13.8128,-13.4517,-13.4517,-13.1946,-13.0235,-13.0235,-13.0235,-13.0235,-13.0235,-12.7909,-12.7036,-12.8316,-12.7152,-12.7036,-12.8374,-12.9537,-13.0119,-13.0235,-13.0235,-13.0235,-13.0235,-13.0235,-13.0235,-13.0235,-13.0235,-13.0235,-13.6425,-13.9707,-14.2704,-14.7841,-14.8484,-14.8055,-14.8412,-14.7342,-14.62,0.0,0.0,0.0,0.0,0.0,0.0,0.0,0.0,0.0,0.0,0.0,0.0,0.0,0.0,0.0,0.0,0.0,0.0,0.0,-13.8619,-13.8619,-13.8619,-13.8619,-13.8619,-13.8619,-13.8619,-13.8619,-13.8619,-13.8619,-13.8619,-13.8619,-13.8619,-13.8619,-13.8619,-13.8619,-13.8619,-13.8619,-13.8619,-13.8619,-13.8619,-13.8619,-13.8619,-13.8619,-13.8619,-13.8619,-13.8816,-14.0197,-14.0986,-14.1512,-14.2893,-14.434,-14.5589,-14.5589,-14.6312,-14.7167,-14.7167,-14.7167,-14.7167,-14.7167,-14.7167,-14.7167,-14.7167,-14.7167,-14.7167,-14.7167,-14.7167,-14.7167,-14.7167,-14.7167,-14.7167,-14.7167,-14.7167,-14.6543,-14.444,-14.3594,-14.2338,-14.0297,-13.6893,-13.4517,-13.4517,-13.1946,-13.0235,-13.0235,-13.0235,-13.0235,-13.0235,-12.8723,-12.8374,-12.9654,-12.7618,-12.7385,-12.9654,-12.913,-12.9246,-13.0177,-13.0235,-13.0235,-13.0235,-13.0235,-13.0235,-13.0235,-13.0235,-13.0235,-13.4927,-13.828,-14.2347,-14.7057,-14.7556,-14.6914,-14.6914,-14.5701,-14.4328,-14.3597,-14.1188,0.0,0.0,0.0,0.0,0.0,0.0,0.0,-13.8619,-13.8619,0.0,0.0,0.0,0.0,0.0,0.0,0.0,0.0,-13.8619,-13.8619,-13.8619,-13.8619,-13.8619,-13.8619,-13.8619,-13.8619,-13.8619,-13.8619,-13.8619,-13.8619,-13.8619,-13.8619,-13.8619,-13.8619,-13.8619,-13.8619,-13.8619,-13.8619,-13.8619,-13.8619,-13.8619,-13.8619,-13.8619,-13.8619,-13.875,-13.9474,-14.0197,-14.0854,-14.1644,-14.2827,-14.4208,-14.48,-14.5589,-14.6312,-14.697,-14.7167,-14.7167,-14.7167,-14.7167,-14.7167,-14.7167,-14.7167,-14.7167,-14.7167,-14.7167,-14.7167,-14.7167,-14.7167,-14.7167,-14.7167,-14.7167,-14.6289,-14.3594,-14.1935,-14.0234,-13.7267,-13.4517,-13.2583,-13.2583,-13.1302,-13.0235,-13.0235,-13.0235,-13.0235,-13.0235,-12.9072,-12.8607,-12.9363,-12.8025,-12.7909,-12.9305,-12.9246,-12.9479,-13.0177,-13.0235,-13.0235,-13.0235,-13.0235,-13.0235,-13.0235,-13.0235,-13.0235,-13.3928,-13.6174,-13.987,-14.4141,-14.5066,-14.5041,-14.5157,-14.4088,-14.2367,-14.061,-13.7425,-13.529,0.0,0.0,0.0,0.0,0.0,0.0,-13.8619,-13.8619,-13.8619,0.0,0.0,0.0,0.0,0.0,0.0,0.0,-13.8619,-13.8619,-13.8619,-13.8619,-13.8619,-13.8619,-13.8619,-13.8619,-13.8619,-13.8619,-13.8619,-13.8619,-13.8619,-13.8619,-13.8619,-13.8619,-13.8619,-13.8619,-13.8619,-13.8619,-13.8619,-13.8619,-13.8619,-13.8619,-13.8619,-13.8619,-13.8619,-13.8619,-13.9408,-14.046,-14.046,-14.1381,-14.2761,-14.4077,-14.4734,-14.526,-14.651,-14.697,-14.7167,-14.7167,-14.7167,-14.7167,-14.7167,-14.7167,-14.7167,-14.7167,-14.7167,-14.7167,-14.7167,-14.7167,-14.7167,-14.7167,-14.6916,-14.5912,-14.3397,-14.0441,-13.7328,-13.4291,-13.1712,-13.0235,-13.0235,-13.0235,-13.0235,-13.0235,-13.0235,-13.0119,-13.0003,-12.913,-12.849,-12.8316,-12.849,-12.8548,-12.8548,-12.9654,-13.0235,-13.0235,-13.0235,-13.0235,-13.0235,-13.0235,-13.0235,-13.0235,-13.0235,-13.0235,-14.1919,-14.1705,-14.0734,-14.2846,-14.2353,-14.188,-14.3402,-14.2343,-14.0539,-13.8955,-13.6597,-13.4824,-13.4719,0.0,0.0,0.0,0.0,-13.8619,-13.8619,-13.8619,-13.8619,-13.8619,0.0,0.0,0.0,0.0,0.0,0.0,0.0,-13.8619,-13.8619,-13.8619,-13.8619,-13.8619,-13.8619,-13.8619,-13.8619,-13.8619,-13.8619,-13.8619,-13.8619,-13.8619,-13.8619,-13.8619,-13.8619,-13.8619,-13.8619,-13.8619,-13.8619,-13.8619,-13.8619,-13.8619,-13.8619,-13.8619,-13.8619,-13.8619,-13.875,-13.9013,-13.9013,-13.9934,-14.1117,-14.1381,-14.309,-14.5063,-14.5326,-14.6247,-14.7167,-14.7167,-14.7167,-14.7167,-14.7167,-14.7167,-14.7167,-14.7167,-14.7167,-14.7167,-14.7167,-14.7167,-14.7167,-14.7167,-14.5276,-14.3594,-14.3199,-13.8767,-13.4291,-13.1537,-13.0652,-13.0235,-13.0235,-13.0235,-13.0235,-13.0235,-13.0235,-12.977,-12.8723,-12.9421,-12.9421,-12.8374,-12.9305,-12.9886,-12.9886,-13.0119,-13.0235,-13.0235,-13.0235,-13.0235,-13.0235,-13.0235,-13.0235,-13.0235,-13.0235,-13.0235,-13.9422,-14.0068,-14.0688,-14.0617,-14.0617,-14.0568,-13.9446,-13.9321,-13.8322,-13.481,-13.3673,-13.3523,-13.4184,-13.5462,0.0,0.0,0.0,0.0,-13.8619,-13.8619,-13.8619,-13.8619,-13.8619,0.0,0.0,0.0,0.0,0.0,0.0,-13.8619,-13.8619,-13.8619,-13.8619,-13.8619,-13.8619,-13.8619,-13.8619,-13.8619,-13.8619,-13.8619,-13.8619,-13.8619,-13.8619,-13.8619,-13.8619,-13.8619,-13.8619,-13.8619,-13.8619,-13.8619,-13.8619,-13.8619,-13.8619,-13.8619,-13.8619,-13.8619,-13.8619,-13.8619,-13.8619,-13.9079,-13.9737,-14.0526,-14.217,-14.4011,-14.48,-14.6049,-14.7167,-14.7167,-14.7167,-14.7167,-14.7167,-14.7167,-14.7167,-14.7167,-14.7167,-14.7167,-14.7167,-14.7167,-14.673,-14.5276,-14.3406,-14.1651,-13.9983,-13.5819,-13.1576,-12.8668,-12.8781,-12.9246,-12.9246,-12.9828,-13.0235,-13.0235,-12.9654,-12.8956,-12.8374,-12.8897,-12.8956,-12.8374,-12.9537,-13.0235,-13.0235,-13.0235,-13.0235,-13.0235,-13.0235,-13.0235,-13.0235,-13.0235,-13.0235,-13.0235,-13.0235,-12.9161,-13.7281,-13.8629,-14.0566,-13.9295,-13.9036,-13.8512,-13.5698,-13.6039,-13.5767,-13.1283,-13.1202,-13.2437,-13.4016,-13.5462,-13.6909,0.0,0.0,0.0,-13.8619,-13.8619,-13.8619,-13.8619,-13.8619,-13.8619,0.0,0.0,0.0,0.0,0.0,0.0,-13.8619,-13.8619,-13.8619,-13.8619,-13.8619,-13.8619,-13.8619,-13.8619,-13.8619,-13.8619,-13.8619,-13.8619,-13.8619,-13.8619,-13.8619,-13.8619,-13.8619,-13.8619,-13.8619,-13.8619,-13.8619,-13.8619,-13.8619,-13.8619,-13.8619,-13.8619,-13.8619,-13.8619,-13.8619,-13.8619,-13.8816,-13.9934,-14.1446,-14.309,-14.4208,-14.5786,-14.7167,-14.7167,-14.7167,-14.7167,-14.7167,-14.7167,-14.7102,-14.6773,-14.6707,-14.639,-14.5625,-14.5439,-14.4556,-14.1842,-13.9955,-13.8252,-13.6233,-13.2415,-12.8951,-12.6977,-12.7676,-12.8432,-12.8665,-12.9595,-13.0235,-13.0235,-12.9305,-12.8607,-12.8316,-12.8548,-12.8607,-12.8316,-12.9537,-13.0235,-13.0235,-13.0235,-13.0235,-13.0235,-13.0235,-13.0235,-13.0235,-13.0235,-12.9938,-12.9161,-12.9161,-12.7348,-14.3917,-14.2578,-14.0456,-14.0054,-13.6876,-13.3841,-13.3572,-13.3286,-13.2398,-13.0352,-13.1024,-13.2437,-13.4016,-13.5462,-13.6909,-13.8356,-13.8619,-13.8619,-13.8619,-13.8619,-13.8619,-13.8619,-13.8619,-13.8619,-13.8619,0.0,0.0,0.0,0.0,0.0,0.0,-13.8619,-13.8619,-13.8619,-13.8619,-13.8619,-13.8619,-13.8619,-13.8619,-13.8619,-13.8619,-13.8619,-13.8619,-13.8619,-13.8619,-13.8619,-13.8619,-13.8619,-13.8619,-13.8619,-13.8619,-13.8619,-13.8619,-13.8619,-13.8619,-13.8619,-13.8619,-13.8619,-13.8619,-13.8619,-13.8619,-13.875,-14.0657,-14.2893,-14.3025,-14.4931,-14.7167,-14.7167,-14.7167,-14.7167,-14.7167,-14.7167,-14.6838,-14.5523,-14.5195,-14.425,-14.0504,-13.9608,-13.8965,-13.6261,-13.3452,-13.1895,-13.2729,-12.9557,-12.6977,-12.7967,-12.8258,-12.8723,-12.9886,-13.0119,-13.0235,-13.0235,-13.0119,-12.9595,-12.8432,-12.9363,-12.9537,-12.8374,-12.9537,-13.0235,-13.0235,-13.0235,-13.0235,-13.0235,-13.0235,-13.0235,-13.0235,-13.0235,-12.8621,-12.5507,-12.5507,-12.3641,-13.7353,-13.7551,-13.7761,-13.663,-13.5636,-13.481,-13.481,-13.1429,-12.8591,-12.9641,-13.178,-13.3555,-13.4213,-13.6186,-13.7632,-13.7369,-13.8027,-13.8619,-13.8619,-13.8619,-13.8619,-13.8619,-13.8619,-13.8619,-13.8619,-13.8619,0.0,0.0,0.0,0.0,0.0,-13.8619,-13.8619,-13.8619,-13.8619,-13.8619,-13.8619,-13.8619,-13.8619,-13.8619,-13.8619,-13.8619,-13.8619,-13.8619,-13.8619,-13.8619,-13.8619,-13.8619,-13.8619,-13.8619,-13.8619,-13.8619,-13.8619,-13.8619,-13.8619,-13.8619,-13.8619,-13.8619,-13.8619,-13.8619,-13.8619,-13.8619,-14.0526,-14.2827,-14.2827,-14.4274,-14.6049,-14.6904,-14.651,-14.6049,-14.6904,-14.7167,-14.6773,-14.5392,-14.3824,-14.1983,-13.9544,-13.7802,-13.5682,-13.2995,-13.0836,-12.9322,-12.8809,-12.6907,-12.564,-12.6978,-12.7152,-12.7618,-12.8897,-12.977,-13.0235,-13.0235,-12.9537,-12.8839,-12.8374,-12.8781,-12.8839,-12.8316,-12.9537,-13.0235,-13.0235,-13.0235,-13.0235,-13.0235,-13.0235,-13.0235,-13.0235,-12.8136,-12.6307,-12.4953,-12.288,-11.9993,-13.2781,-13.3775,-13.5041,-13.3342,-13.3325,-13.3696,-13.3491,-12.9686,-12.6887,-12.9444,-13.1517,-13.3292,-13.4147,-13.5988,-13.7172,-13.6514,-13.7632,-13.8619,-13.8619,-13.8619,-13.8619,-13.8619,-13.8619,-13.8619,-13.8619,-13.8619,-13.8619,0.0,0.0,0.0,0.0,-13.8619,-13.8619,-13.8619,-13.8619,-13.8619,-13.8619,-13.8619,-13.8619,-13.8619,-13.8619,-13.8619,-13.8619,-13.8619,-13.8619,-13.8619,-13.8619,-13.8619,-13.8619,-13.8619,-13.8619,-13.8619,-13.8619,-13.8619,-13.8619,-13.8619,-13.8619,-13.8619,-13.8619,-13.8619,-13.8619,-13.8619,-14.0263,-14.2301,-14.2696,-14.3879,-14.5326,-14.6773,-14.6444,-14.5918,-14.6904,-14.7167,-14.6456,-14.3814,-14.1724,-13.9604,-13.6126,-13.3886,-13.168,-12.9223,-12.8126,-12.7185,-12.7091,-12.5873,-12.5466,-12.6803,-12.6978,-12.7269,-12.8199,-12.9421,-13.0235,-13.0235,-12.9421,-12.8897,-12.8897,-12.8897,-12.8897,-12.8897,-12.9712,-13.0235,-13.0235,-12.9886,-12.9828,-13.0235,-13.0235,-12.9699,-12.8621,-12.6251,-12.3949,-12.1803,-11.9208,-11.6341,-13.3759,-13.3759,-13.3251,-13.1082,-12.9667,-12.8372,-12.7862,-12.7949,-12.8373,-12.954,-12.9873,-13.0859,-13.3753,-13.4344,-13.4805,-13.6186,-13.7632,-13.8619,-13.8619,-13.8619,-13.8619,-13.8619,-13.8619,-13.8619,-13.8619,-13.8619,-13.8619,-13.8619,-13.8619,-13.8619,0.0,-13.8619,-13.8619,-13.8619,-13.8619,-13.8619,-13.8619,-13.8619,-13.8619,-13.8619,-13.8619,-13.8619,-13.8619,-13.8619,-13.8619,-13.8619,-13.8619,-13.8619,-13.8619,-13.8619,-13.8619,-13.8619,-13.8619,-13.8619,-13.8619,-13.8619,-13.8619,-13.8619,-13.8619,-13.8619,-13.8619,-13.8619,-13.9605,-14.1052,-14.2433,-14.3879,-14.5326,-14.6773,-14.7102,-14.7102,-14.7167,-14.7167,-14.5822,-14.0313,-13.9095,-13.6647,-12.8434,-12.6625,-12.6191,-12.4807,-12.4419,-12.5233,-12.785,-12.7211,-12.6803,-12.8083,-12.8316,-12.8316,-12.8316,-12.9421,-13.0235,-13.0235,-13.0235,-13.0177,-13.0177,-13.0177,-13.0177,-13.0177,-13.0235,-13.0235,-13.0235,-12.9014,-12.8897,-13.0177,-13.0235,-12.8621,-12.4953,-12.4953,-12.1289,-11.4498,-11.4498,-11.2677,-13.0132,-13.0916,-13.1763,-13.2133,-13.1106,-12.9873,-12.9319,-12.9239,-12.9757,-13.109,-13.132,-13.1911,-13.395,-13.5923,-13.7106,-13.6514,-13.7632,-13.8619,-13.8619,-13.8619,-13.8619,-13.8619,-13.8619,-13.8619,-13.8619,-13.8619,-13.8619,-13.8619,-13.8619,-13.8619,-13.8619,-13.8619,-13.8619,-13.8619,-13.8619,-13.8619,-13.8619,-13.8619,-13.8619,-13.8619,-13.8619,-13.8619,-13.8619,-13.8619,-13.8619,-13.8619,-13.8619,-13.8619,-13.8619,-13.8619,-13.8619,-13.8619,-13.8619,-13.8619,-13.8619,-13.8619,-13.8619,-13.8619,-13.8619,-13.8619,-13.8619,-13.8619,-13.9605,-14.0789,-14.1249,-14.2433,-14.3814,-14.526,-14.5721,-14.5112,-14.2083,-14.1529,-14.0819,-13.7971,-13.5346,-13.2539,-12.9889,-12.7151,-12.5257,-12.5753,-12.5756,-12.6338,-12.8025,-12.7967,-12.8141,-12.9421,-12.9595,-12.9595,-12.9595,-13.0003,-13.0235,-13.0235,-13.0235,-13.0235,-13.0235,-13.0235,-13.0235,-13.0235,-12.9421,-12.9305,-13.0177,-12.9828,-12.9421,-12.8897,-12.7435,-12.5609,-12.3721,-11.9616,-11.6609,-11.4498,-11.2173,-11.0314,-12.9258,-12.9941,-13.0617,-13.0923,-12.9898,-12.8979,-12.9795,-12.8623,-12.7834,-12.9281,-13.0399,-13.1517,-13.2437,-13.5462,-13.7501,-13.658,-13.7632,-13.8619,-13.8619,-13.8619,-13.8619,-13.8619,-13.8619,-13.8619,-13.8619,-13.8619,-13.8619,-13.8619,-13.8619,-13.8619,-13.8619,-13.8619,-13.8619,-13.8619,-13.8619,-13.8619,-13.8619,-13.8619,-13.8619,-13.8619,-13.8619,-13.8619,-13.8619,-13.8619,-13.8619,-13.8619,-13.8619,-13.8619,-13.8619,-13.8619,-13.8619,-13.8619,-13.8619,-13.8619,-13.8619,-13.8619,-13.8619,-13.8619,-13.8619,-13.8619,-13.8619,-13.8619,-13.9211,-14.0065,-14.0591,-14.0925,-14.1496,-14.2928,-14.3141,-14.2109,-13.9421,-13.8767,-13.8244,-13.5819,-13.3118,-13.0923,-12.9174,-12.7009,-12.5582,-12.6862,-12.7152,-12.7501,-12.8781,-12.9014,-12.9305,-13.0119,-13.0235,-13.0235,-13.0235,-13.0235,-13.0235,-13.0235,-13.0235,-13.0235,-13.0235,-12.977,-12.9712,-13.0177,-12.8548,-12.8374,-13.0119,-12.977,-12.883,-12.6933,-12.5609,-12.3308,-11.9689,-11.6243,-11.3729,-11.2401,-11.0314,-10.928,-13.0136,-13.0013,-12.9779,-12.8315,-12.7177,-12.7045,-12.961,-12.7045,-12.4481,-12.5796,-12.8097,-12.9939,-13.0004,-13.349,-13.6383,-13.658,-13.7764,-13.8619,-13.8619,-13.8619,-13.8619,-13.8619,-13.8619,-13.8619,-13.8619,-13.8619,-13.8619,-13.8619,-13.8619,-13.8619,-13.8619,-13.8619,-13.8619,-13.8619,-13.8619,-13.8619,-13.8619,-13.8619,-13.8619,-13.8619,-13.8619,-13.8619,-13.8619,-13.8619,-13.8619,-13.8619,-13.8619,-13.8619,-13.8619,-13.8619,-13.8619,-13.8619,-13.8619,-13.8619,-13.8619,-13.8619,-13.8619,-13.8619,-13.8619,-13.8619,-13.8619,-13.8378,-13.8203,-13.8465,-13.9599,-13.9195,-13.8643,-13.9856,-13.9308,-13.8128,-13.8128,-13.8128,-13.7175,-13.3394,-13.2427,-13.1173,-12.7556,-12.6629,-12.692,-12.8199,-12.8432,-12.8839,-13.0003,-13.0235,-13.0235,-13.0235,-13.0235,-13.0235,-13.0235,-13.0235,-13.0235,-13.0235,-13.0119,-13.0119,-13.0235,-12.9072,-12.8839,-13.0003,-12.785,-12.7618,-13.0119,-12.8835,-12.7116,-12.4841,-12.4396,-12.0977,-11.4395,-11.4225,-11.2401,-10.928,-10.928,-10.928,-12.8372,-12.8367,-12.8804,-13.0563,-13.2437,-13.3753,-13.3358,-13.1583,-13.007,-13.0399,-13.0136,-13.0202,-13.132,-13.3292,-13.5528,-13.7764,-13.8421,-13.8619,-13.8619,-13.8619,-13.8619,-13.8619,-13.8619,-13.8619,-13.8619,-13.8619,-13.8619,-13.8619,-13.8619,-13.8619,-13.8619,-13.8619,-13.8619,-13.8619,-13.8619,-13.8619,-13.8619,-13.8619,-13.8619,-13.8619,-13.8619,-13.8619,-13.8619,-13.8619,-13.8619,-13.8619,-13.8619,-13.8619,-13.8619,-13.8619,-13.8619,-13.8619,-13.8619,-13.8619,-13.8619,-13.8619,-13.8619,-13.8619,-13.8619,-13.8619,-13.8203,-13.6152,-13.5539,-13.5234,-13.354,-13.42,-13.5745,-13.6058,-13.4127,-13.2178,-13.2178,-13.2178,-13.206,-13.0891,-13.007,-12.9368,-12.9424,-12.8548,-12.8258,-12.9537,-12.977,-12.9886,-13.0177,-13.0235,-13.0235,-13.0235,-13.0235,-13.0235,-13.0235,-13.0235,-13.0235,-13.0235,-12.9363,-12.913,-13.0119,-12.9072,-12.8432,-12.8723,-12.8199,-12.8548,-13.0177,-12.7307,-12.5024,-12.3553,-11.9303,-11.5656,-11.2946,-11.1217,-11.0032,-10.928,-10.928,-10.928,-12.9861,-13.0202,-13.1056,-13.2091,-13.2982,-13.3514,-13.2716,-13.0654,-12.9018,-12.9018,-12.8952,-12.9478,-13.1583,-13.27,-13.4213,-13.7172,-13.7632,-13.783,-13.8553,-13.8619,-13.8619,-13.8619,-13.8619,-13.8619,-13.8619,-13.8619,-13.8619,-13.8619,-13.8619,-13.8619,-13.8619,-13.8619,-13.8619,-13.8619,-13.8619,-13.8619,-13.8619,-13.8619,-13.8619,-13.8619,-13.8619,-13.8619,-13.8619,-13.8619,-13.8619,-13.8619,0.0,-13.8619,-13.8619,-13.8619,-13.8619,-13.8619,-13.8619,-13.8619,-13.8619,-13.8619,-13.8619,-13.8619,-13.8619,-13.8619,-13.8203,-13.5355,-13.4548,-13.392,-13.1349,-13.167,-13.2845,-13.2845,-13.0739,-12.8432,-12.8432,-12.8432,-12.8607,-12.9188,-12.8781,-12.8665,-12.9944,-12.9654,-12.9421,-13.0061,-13.0235,-13.0235,-13.0235,-13.0235,-13.0235,-13.0235,-13.0235,-13.0235,-13.0235,-13.0235,-13.0235,-13.0235,-12.9072,-12.8607,-12.9305,-12.8199,-12.7443,-12.7443,-12.7443,-12.7261,-12.6921,-12.5721,-12.3111,-11.9078,-11.6028,-11.3423,-11.0994,-10.9786,-10.928,-10.928,-10.928,-10.928,-13.2168,-13.3199,-13.4222,-13.3168,-13.201,-13.1134,-13.0684,-12.8372,-12.6256,-12.6256,-12.7177,-12.8755,-13.1188,-13.2043,-13.3161,-13.5725,-13.6449,-13.7238,-13.8421,-13.8619,-13.8619,-13.8619,-13.8619,-13.8619,-13.8619,-13.8619,-13.8619,-13.8619,-13.8619,-13.8619,-13.8619,-13.8619,-13.8619,-13.8619,-13.8619,-13.8619,-13.8619,-13.8619,-13.8619,-13.8619,-13.8619,-13.8444,-13.8026,-13.8026,-13.8026,-13.8026,0.0,-13.8026,-13.8026,-13.8444,-13.8444,-13.8026,-13.8444,-13.8619,-13.8619,-13.8619,-13.8619,-13.8619,-13.8026,-13.7607,-13.7006,-13.4172,-13.3351,-13.2775,-13.0156,-12.9529,-12.9583,-12.9583,-12.7874,-12.6396,-12.6396,-12.6396,-12.6687,-12.7734,-12.8025,-12.8374,-12.9654,-12.977,-12.977,-13.0119,-12.9886,-12.977,-13.0119,-13.0061,-13.0003,-13.0177,-13.0235,-13.0235,-13.0235,-13.0061,-12.9944,-12.9944,-12.8607,-12.7792,-12.8025,-12.6862,-12.6105,-12.6105,-12.5585,-12.4641,-12.2825,-12.3504,-12.0868,-11.4498,-11.4003,-11.2173,-10.928,-10.928,-10.928,-10.928,-10.928,-10.928,-13.2035,-13.3638,-13.4779,-13.455,-13.4434,-13.3839,-13.2168,-13.0365,-12.9215,-12.9215,-12.9413,-12.9676,-13.0136,-13.2306,-13.4081,-13.4542,-13.6712,-13.8356,-13.8619,-13.8619,-13.8619,-13.8619,-13.8619,-13.8619,-13.8619,-13.8619,-13.8619,-13.8619,-13.8619,-13.8619,-13.8619,-13.8619,-13.8619,-13.8619,-13.8619,-13.8619,-13.8619,-13.8619,-13.8619,-13.8619,-13.8619,-13.7429,-13.517,-13.517,-13.517,-13.517,0.0,0.0,-13.5355,-13.7607,-13.7185,-13.5355,-13.7607,-13.8619,-13.8619,-13.8619,-13.8619,-13.8203,-13.597,-13.3794,-13.1349,-12.8592,-12.7764,-12.7198,-12.4594,-12.4611,-12.5333,-12.5333,-12.5753,-12.6396,-12.6396,-12.6396,-12.6454,-12.6629,-12.6687,-12.7036,-12.8316,-12.7734,-12.7618,-12.977,-12.849,-12.7676,-12.9828,-12.9305,-12.8956,-13.0061,-13.0235,-13.0235,-13.0235,-12.9246,-12.8607,-12.8607,-12.6454,-12.5466,-12.6571,-12.5466,-12.4709,-12.4709,-12.1992,-12.0842,-12.178,-12.0176,-11.7671,-11.4498,-11.1617,-10.9799,-10.928,-10.928,-10.928,-10.928,-10.928,-10.928,-13.2008,-13.3761,-13.4924,-13.5238,-13.4377,-13.3388,-13.2525,-13.1014,-12.9873,-12.9873,-12.9873,-13.0333,-13.1977,-13.27,-13.3555,-13.5199,-13.658,-13.7435,-13.7435,-13.8158,-13.8619,-13.8619,-13.8619,-13.8619,-13.8619,-13.8619,-13.8619,-13.8619,-13.8619,-13.8619,-13.8619,-13.8619,-13.8619,-13.8619,-13.8619,-13.8619,-13.8619,-13.8619,-13.785,-13.6399,-13.6399,-13.4984,-13.2389,-13.2389,-13.2389,-13.2389,-13.2389,-13.2389,-13.2583,-13.3794,-13.3541,-13.2583,-13.3794,-13.4172,-13.4172,-13.4172,-13.4172,-13.4172,-13.2775,-13.1546,-13.0156,-12.7408,-12.6565,-12.5986,-12.3391,-12.343,-12.4244,-12.3604,-12.4884,-12.6105,-12.4709,-12.4826,-12.5349,-12.5349,-12.5349,-12.5698,-12.6978,-12.6803,-12.6745,-12.7909,-12.7211,-12.6803,-12.7967,-12.8258,-12.849,-12.9072,-12.977,-13.0235,-13.0235,-12.9072,-12.8316,-12.8316,-12.5989,-12.4651,-12.5291,-12.4186,-12.2691,-12.0913,-11.9401,-11.8247,-11.7763,-11.5052,-11.3629,-11.3575,-11.0809,-10.928,-10.928,-10.928,-10.928,-10.928,-10.928,-10.928,-13.2545,0.0,-13.5481,-13.5742,-13.4401,-13.3003,0.0,-13.1069,-12.9873,-12.9873,-12.9873,-13.0596,-13.2832,-13.2898,-13.3292,-13.5594,-13.6514,-13.6975,-13.6975,-13.7895,-13.8619,-13.8619,-13.8619,-13.8619,-13.8619,-13.8619,-13.8619,-13.8619,-13.8619,-13.8619,-13.8619,-13.8619,-13.8619,-13.8619,-13.8026,-13.7429,-13.6826,-13.6826,-13.5604,-13.3541,-13.3541,-13.2132,-12.9613,-12.9613,-12.9613,-12.9613,-12.9613,-12.9613,-12.9753,-13.0356,-13.0156,-12.9753,-13.0356,-13.0556,-13.0556,-13.0556,-13.0556,-13.0556,-12.9955,-12.9613,-12.9206,-12.6565,-12.5617,-12.5186,-12.3228,-12.343,-12.4302,-12.3662,-12.4884,-12.5873,-12.3604,-12.3721,-12.4302,-12.407,-12.3953,-12.436,-12.564,-12.5698,-12.5698,-12.628,-12.5931,-12.5698,-12.628,-12.692,-12.7501,-12.7792,-12.8956,-12.977,-12.977,-12.8665,-12.785,-12.785,-12.5524,-12.3953,-12.3953,-12.2402,-12.0113,-11.6618,-11.561,-11.4545,-11.3041,-11.0095,-10.9124,-11.1371,-10.9656,-10.8988,-10.928,-10.928,-10.928,-10.928,-10.928,-10.928,0.0,-13.5849,-13.6926,-13.6947,-13.5781,-13.4221,-13.2373,-13.0958,0.0,-12.9873,-12.9873,-12.9939,-13.0136,-13.2372,-13.4213,-13.441,-13.6712,-13.8487,-13.8487,-13.8553,-13.8619,-13.8619,-13.8619,-13.8619,-13.8619,-13.8619,-13.8619,-13.8619,-13.8619,-13.8619,-13.8619,-13.8619,-13.8619,-13.8619,-13.6152,-13.3541,-13.1152,-13.1152,-13.1152,-13.0954,-13.0954,-12.9551,-12.6776,-12.6776,-12.6776,0.0,-12.6776,-12.6776,-12.6987,-12.9551,-12.9206,-12.7198,-12.9551,-13.0556,-13.0556,-13.0556,-13.0556,-13.0156,-12.7764,-12.6776,-12.6413,-12.3834,-12.3005,-12.2781,-12.2615,-12.343,-12.4651,-12.5815,-12.628,-12.6105,-12.4651,-12.436,-12.4128,-12.3023,-12.2732,-12.3081,-12.4302,-12.3662,-12.3604,-12.5931,-12.4477,-12.3604,-12.5989,-12.5466,-12.5117,-12.6338,-12.7618,-12.8432,-12.8432,-12.7327,-12.6571,-12.6571,-12.4244,-12.2732,-12.2732,-11.9883,-11.6618,-11.3243,-11.0213,-10.8239,-10.8086,-10.5858,-10.5209,-10.6708,-10.7509,-10.8255,-10.928,-10.928,-10.928,-10.928,-10.928,-10.928,-13.4623,-13.5179,-13.511,-13.4464,-13.3039,-13.1572,-13.0826,-13.0267,-12.9873,-12.9873,-12.9873,-13.0465,-13.2306,-13.3555,-13.4936,-13.6712,-13.7895,-13.8619,-13.8619,-13.8619,-13.8619,-13.8619,-13.7185,-13.6761,-13.8444,-13.7006,-13.6761,-13.8444,-13.8619,-13.8619,-13.8619,-13.8619,-13.7006,-13.3794,-13.2583,-13.1546,-13.0556,-13.0556,-12.9753,-12.7972,-12.7972,-12.6776,-12.4215,-12.4215,-12.4215,-12.4215,-12.4215,-12.4215,0.0,-12.5186,-12.5029,-12.4215,-12.5186,-12.5617,-12.5617,-12.5617,-12.5617,-12.5617,-12.4375,-12.4215,-12.3996,-12.3005,-12.2615,-12.2615,-12.2615,-12.343,-12.4709,-12.6047,-12.756,-12.8316,-12.6222,-12.564,-12.5349,-12.4011,-12.3139,-12.2732,-12.3197,-12.2906,-12.2906,-12.3837,-12.3255,-12.2906,-12.3895,-12.4244,-12.4593,-12.5117,-12.6978,-12.8025,-12.7211,-12.6687,-12.6105,-12.5233,-12.3604,-12.1824,-11.9596,-11.6381,-11.3189,-10.971,-10.8494,-10.6747,-10.4812,-10.3982,-10.4253,-10.601,-10.645,-10.7523,-10.928,-10.928,-10.928,-10.928,-10.928,-10.928,-13.5234,-13.5248,-13.4813,-13.3967,-13.2197,-13.053,-13.053,-13.053,-13.053,-13.053,-13.053,-13.132,-13.3884,-13.4344,-13.5133,-13.7567,-13.829,-13.8619,-13.8619,-13.8619,-13.8619,-13.8619,-13.6152,-13.5355,-13.7185,-13.5539,-13.5355,-13.7185,-13.8026,-13.8203,-13.7363,-13.7363,-13.4798,-12.9613,-12.941,-12.9002,-12.8179,-12.8179,-12.7198,-12.5402,-12.5402,-12.4434,-12.2615,-12.2615,-12.2615,-12.2615,-12.2615,-12.2615,-12.2615,-12.2615,-12.2615,-12.2615,-12.2615,-12.2615,-12.2615,-12.2615,-12.2615,-12.2615,-12.2615,-12.2615,-12.2615,-12.2615,-12.2615,-12.2615,-12.2615,-12.343,-12.4593,-12.5524,-12.7327,-12.849,-12.6338,-12.5756,-12.5466,-12.4128,-12.3197,-12.2615,-12.2615,-12.2615,-12.2615,-12.2615,-12.2615,-12.2615,-12.2615,-12.3313,-12.3837,-12.3837,-12.5698,-12.6745,-12.5873,-12.5756,-12.5407,-12.4477,-12.229,-11.9308,-11.4835,-11.2452,-10.9762,-10.628,-10.602,-10.5074,-10.2887,-10.3179,-10.4204,-10.601,-10.6401,-10.7474,-10.928,-10.928,-10.928,-10.928,-10.928,-10.928,-13.5988,-13.6383,-13.6383,-13.6383,-13.4147,-13.1977,-13.1977,-13.1977,-13.1977,-13.1977,-13.1977,-13.2503,-13.4016,-13.4344,-13.4805,-13.6251,-13.7698,-13.8619,-13.8619,-13.8619,-13.8619,-13.8444,-13.6152,-13.4548,-13.4548,-13.4548,-13.4548,-13.4548,-13.7006,0.0,-13.4548,-13.4548,-13.1937,-12.6565,-12.6565,-12.5186,-12.2615,-12.2615,-12.2615,-12.2615,-12.2615,-12.2615,-12.2615,-12.2615,-12.2615,-12.2615,-12.2615,-12.2615,0.0,-12.2615,-12.2615,-12.2615,-12.2615,-12.2615,-12.2615,-12.2615,-12.2615,-12.2615,-12.2615,-12.2615,-12.2615,-12.2615,-12.2615,-12.2615,-12.2615,-12.343,-12.4419,-12.4419,-12.5349,-12.6105,-12.4768,-12.4419,-12.4128,-12.2906,-12.2615,-12.2615,-12.2615,-12.2615,-12.2615,-12.2615,-12.2615,-12.2615,-12.2615,-12.2615,-12.2615,-12.2615,-12.3604,-12.4419,-12.436,-12.4419,-12.4419,-12.436,-12.0278,-11.4835,-10.8239,-10.7727,-10.628,-10.3105,-10.2887,-10.2887,-10.2887,-10.3863,-10.4936,-10.6059,-10.7133,-10.8207,-10.928,-10.928,-10.928,-10.928,-10.928,-10.928,-13.3161,-13.3292,-13.3095,-13.2043,-13.1122,-13.053,-13.053,-13.1254,-13.1714,-13.0728,-13.2174,-13.3753,-13.4213,-13.5133,-13.6317,-13.7764,-13.8356,-13.8026,-13.597,-13.7363,-13.7185,-13.3414,-13.392,-13.3159,-12.9348,-13.0556,-13.1742,-13.1742,-13.2583,-13.2583,-13.1742,-12.9955,-12.7408,-12.3996,-12.3834,-12.3391,-12.2615,-12.2615,-12.2615,-12.2615,-12.2615,-12.2615,-12.2615,-12.2615,-12.2615,-12.2615,-12.2615,-12.2615,0.0,-12.2615,-12.2615,-12.2615,-12.2615,-12.2615,-12.2615,-12.2615,-12.2615,-12.2615,-12.2615,-12.2615,-12.2615,-12.2615,-12.2615,-12.2615,-12.2615,-12.343,-12.4419,-12.4419,-12.5349,-12.6338,-12.5931,-12.5117,-12.4302,-12.3953,-12.3197,-12.2615,-12.2615,-12.2615,-12.2615,-12.2615,-12.2615,-12.2615,-12.2615,-12.2615,-12.2615,-12.2615,-12.3604,-12.407,-12.3255,-12.3895,-12.3099,-11.9932,-11.4327,-10.9962,-10.7983,-10.5548,-10.3854,-10.2887,-10.2887,-10.2887,-10.2887,-10.3863,-10.4936,-10.6059,-10.7133,-10.8207,-10.928,-10.928,-10.928,-10.928,-10.928,-10.928,-13.2766,-13.2437,-13.178,-13.0925,-13.0267,-12.9873,-12.9873,-13.0991,-13.1911,-13.1714,-13.3095,-13.4673,-13.5857,-13.6251,-13.6909,-13.8356,-13.8619,-13.7607,-13.492,-13.597,-13.5355,-13.1152,-13.0954,-13.0156,-12.6776,-12.7198,-12.7764,-12.9002,-12.9955,-12.9753,-12.7617,-12.5772,-12.4215,-12.2615,-12.2615,-12.2615,-12.2615,-12.2615,-12.2615,-12.2615,-12.2615,-12.2615,-12.2615,-12.2615,-12.2615,-12.2615,-12.2615,-12.2615,0.0,-12.2615,-12.2615,-12.2615,-12.2615,-12.2615,-12.2615,-12.2615,-12.2615,-12.2615,-12.2615,-12.2615,-12.2615,-12.2615,-12.2615,-12.2615,-12.2615,-12.3139,-12.3662,-12.3662,-12.4244,-12.4884,-12.4884,-12.4302,-12.3662,-12.3662,-12.3139,-12.2615,-12.2615,-12.2615,-12.2615,-12.2615,-12.2615,-12.2615,-12.2615,-12.2615,-12.2615,-12.2615,-12.3197,-12.2919,-12.0915,-12.1202,-12.0159,-11.6198,-11.0911,-10.7264,-10.5809,-10.3854,-10.2887,-10.2887,-10.2887,-10.2887,-10.2887,-10.4302,-10.5376,-10.6059,-10.7523,-10.8646,-10.928,-10.928,-10.928,-10.928,-10.928,-10.8377,-13.3555,-13.2898,-13.178,-13.178,-13.0859,-12.9873,-12.9873,-13.0991,-13.2372,-13.3621,-13.4213,-13.5265,-13.7567,-13.6933,-13.6497,-13.7809,-13.783,-13.681,-13.3917,-13.3729,-13.2969,-12.997,-12.7789,-12.6232,-12.614,-12.3996,-12.3613,-12.5986,-12.8592,-12.7764,-12.2781,-12.2615,-12.2615,-12.2615,-12.2615,-12.2615,-12.2615,-12.2615,-12.2615,-12.2615,-12.2615,-12.2615,-12.2615,-12.2615,-12.2615,-12.2615,-12.2615,-12.2615,0.0,-12.2615,-12.2615,-12.2615,-12.2615,-12.2615,-12.2615,-12.2615,-12.2615,-12.2615,-12.2615,-12.2615,-12.2615,-12.2615,-12.2615,-12.2615,-12.2615,-12.2615,-12.2615,-12.2615,-12.2615,-12.2615,-12.2615,-12.2615,-12.2615,-12.2615,-12.2615,-12.2615,-12.2615,-12.2615,-12.2615,-12.2615,-12.2615,-12.2615,-12.2615,-12.2615,-12.2615,-12.2333,-12.2107,-12.0858,-11.7563,-11.7092,-11.5904,-11.2259,-10.9003,-10.602,-10.3154,-10.2887,-10.2887,-10.2887,-10.2887,-10.2887,-10.2887,-10.4936,-10.6059,-10.6059,-10.8158,-10.928,-10.928,-10.928,-10.928,-10.928,-10.8947,-10.6847,-13.0728,-13.0596,-13.0333,-13.0333,-13.007,-12.9873,-12.9873,-13.0991,-13.178,-13.0991,-13.3555,-13.5462,-13.3753,-13.3491,-13.354,-13.3681,-13.2139,-12.9785,-12.7142,-12.8544,-12.8208,-12.3484,-12.4217,-12.4636,-12.3496,-12.3005,-12.2781,-12.3391,-12.3996,-12.3834,-12.284,-12.2615,-12.2615,-12.2615,-12.2615,-12.2615,-12.2615,-12.2615,-12.2615,-12.2615,-12.2615,-12.2615,-12.2615,-12.2615,-12.2615,-12.2615,-12.2615,-12.2615,-12.2615,-12.2615,-12.2615,-12.2615,-12.2615,-12.2615,-12.2615,-12.2615,-12.2615,-12.2615,-12.2615,-12.2615,-12.2615,-12.2615,-12.2615,-12.2615,-12.2615,-12.2615,-12.2615,-12.2615,-12.2615,-12.2615,-12.2615,-12.2615,-12.2615,-12.2615,-12.2615,-12.2615,-12.2615,-12.2615,-12.2615,-12.2615,-12.2615,-12.2615,-12.2615,-12.2615,-12.1824,-11.9076,-11.8555,-11.7619,-11.4164,-11.3732,-11.1516,-10.5598,-10.4384,-10.3588,-10.2887,-10.2887,-10.2887,-10.2887,-10.2887,-10.2887,-10.2887,-10.4936,-10.6059,-10.6059,-10.8158,-10.928,-10.928,-10.928,-10.928,-10.928,-10.5934,-10.4143,-12.8623,-12.8821,-12.9018,-12.9676,-12.9873,-12.9873,-12.9873,-13.0465,-13.0925,-13.0925,-13.27,-13.3874,-13.2406,-13.1864,-13.1235,-13.0815,-12.8976,-12.6786,-12.3965,-12.4986,-12.4231,-12.0144,-12.1482,-12.2504,-12.1849,-12.2266,-12.2615,-12.2615,-12.2615,-12.2615,-12.2615,-12.2615,-12.2615,-12.2615,-12.2615,-12.2615,-12.2615,-12.2615,-12.2615,-12.2615,-12.2615,-12.2615,-12.2615,-12.2615,-12.2615,-12.2615,-12.2615,-12.2615,-12.2615,-12.2615,-12.2615,-12.2615,-12.2615,-12.2615,-12.2615,-12.2615,-12.2615,-12.2615,-12.2615,-12.2615,-12.2615,-12.2615,-12.2615,-12.2615,-12.2615,-12.2615,-12.2615,-12.2615,-12.2615,-12.2615,-12.2615,-12.2615,-12.2615,-12.2615,-12.2615,-12.2615,-12.2615,-12.2615,-12.2615,-12.2615,-12.2615,-12.2615,-12.2615,-12.1371,-11.9596,-11.7798,-11.6381,-11.4164,-11.0714,-10.9055,-10.659,-10.3105,-10.2887,-10.2887,-10.2887,-10.2887,-10.2887,-10.2887,-10.2887,-10.3082,-10.357,-10.5181,-10.6303,-10.684,-10.8451,-10.928,-10.928,-10.928,-10.8329,-10.6223,-10.4143,-10.1378,-12.6979,-12.7506,-12.7966,-12.9215,-12.9676,-12.9873,-12.9873,-12.9873,-13.0202,-13.1385,-13.178,-13.1896,-13.1388,-13.0213,-12.9038,-12.7748,-12.628,-12.4551,-12.2384,-12.1971,-12.1138,-11.8644,-11.9416,-12.0172,-12.0638,-12.1685,-12.2383,-12.2615,-12.2615,-12.2499,-12.2266,-12.2499,-12.2615,-12.2615,-12.2615,-12.2615,-12.2615,-12.2615,-12.2615,-12.2615,-12.2615,-12.2615,-12.2615,-12.2615,-12.2615,-12.2615,-12.2615,0.0,-12.2615,-12.2615,-12.2615,-12.2615,-12.2615,-12.2615,-12.2615,-12.2615,-12.2615,-12.2615,-12.2615,-12.2615,-12.2615,-12.2615,-12.2615,-12.2615,-12.2615,-12.2615,-12.2615,-12.2615,-12.2615,-12.2615,-12.2615,-12.2615,-12.2615,-12.2615,-12.2615,-12.2615,-12.2615,-12.2615,-12.2615,-12.2615,-12.2615,-12.2333,-12.1824,-11.9539,-11.7328,-11.6088,-11.3678,-11.0714,-10.7264,-10.4598,-10.2887,-10.2887,-10.2887,-10.2887,-10.2887,-10.2887,-10.2887,-10.2887,-10.2887,-10.3277,-10.4107,-10.5376,-10.6498,-10.7377,-10.8646,-10.8947,-10.8043,-10.8043,-10.6318,-10.2269,-10.1676,-9.8211,-12.5796,-12.6716,-12.7703,-12.79,-12.8952,-12.9873,-12.9873,-12.9873,-12.9939,-13.0136,-13.1122,-13.098,-12.7646,-12.6073,-12.4953,-12.3405,-12.1376,-11.9798,-11.9368,-11.9368,-11.8743,-11.7206,-11.7206,-11.8195,-12.0463,-12.087,-12.1394,-12.2557,-12.2615,-12.215,-12.0987,-12.2034,-12.2615,-12.2615,-12.2615,-12.2615,-12.2615,-12.2615,-12.2615,-12.2615,-12.2615,-12.2615,-12.2615,-12.2615,-12.2615,-12.2615,-12.2615,-12.2615,-12.2615,-12.2615,-12.2615,-12.2615,-12.2615,-12.2615,-12.2615,-12.2615,-12.2615,-12.2615,-12.2615,-12.2615,-12.2615,-12.2615,-12.2615,-12.2615,-12.2615,-12.2615,-12.2615,-12.2615,-12.2615,-12.2615,-12.2615,-12.2615,-12.2615,-12.2615,-12.2615,-12.2615,-12.2615,-12.2615,-12.2615,-12.2615,-12.2615,-12.1824,-11.8844,-11.7798,-11.561,-10.9962,-10.8748,-10.7264,-10.3854,-10.3105,-10.2887,-10.2887,-10.2887,-10.2887,-10.2887,-10.2887,-10.2887,-10.2887,-10.2887,-10.2935,-10.3082,-10.4985,-10.6108,-10.6254,-10.8255,-10.747,-10.4143,-10.4143,-10.2155,-9.8997,-9.5338,-9.3684,-12.3165,-12.4218,-12.5467,-12.6322,-12.6979,-12.744,-12.744,-12.8097,-12.8298,-12.6843,-12.7712,-12.7471,-12.3654,-12.2069,-12.0874,-11.9532,-11.7825,-11.6624,-11.6624,-11.6624,-11.6392,-11.581,-11.6333,-11.7264,-11.8427,-11.9823,-12.0638,-12.0463,-12.1161,-12.1278,-12.0754,-12.1917,-12.2615,-12.2615,-12.2615,-12.2615,-12.2615,-12.2615,-12.2615,-12.2615,-12.2615,-12.2615,-12.2615,-12.2615,-12.2615,-12.2615,-12.2615,-12.2615,-12.2615,-12.2615,-12.2615,-12.2615,-12.2615,-12.2615,-12.2615,-12.2615,-12.2615,-12.2615,-12.2615,-12.2615,-12.2615,-12.2615,-12.2615,-12.2615,-12.2615,-12.2615,-12.2615,-12.2615,-12.2615,-12.2615,-12.2615,-12.2615,-12.2615,-12.2615,-12.2615,-12.2615,-12.2615,-12.2615,-12.2615,-12.2615,-12.1086,-11.8844,-11.5425,-11.3434,-11.1161,-10.8239,-10.602,-10.4334,-10.3105,-10.2887,-10.2887,-10.2887,-10.2887,-10.3131,-10.3667,-10.3716,-10.3716,-10.3716,-10.4302,-10.3503,-10.1154,-10.4952,-10.5171,-10.1297,-10.4257,-10.3804,-9.9916,-10.0153,-9.8473,-9.4924,-9.3573,-9.2102,-12.139,-12.2376,-12.3535,-12.4045,-12.4408,-12.4508,-12.3956,-12.4571,-12.4849,-12.3461,-12.3939,-12.3759,-12.0616,-11.9276,-11.8293,-11.6992,-11.5984,-11.5345,-11.5345,-11.5345,-11.5228,-11.4937,-11.5752,-11.645,-11.6741,-11.8544,-11.9184,-11.7904,-11.9591,-12.058,-12.0231,-12.1743,-12.2615,-12.2615,-12.2615,-12.2615,-12.2615,-12.2615,-12.2615,-12.2615,-12.2615,-12.2615,-12.2615,-12.2615,-12.2615,-12.2615,-12.2615,-12.2615,-12.2615,-12.2615,-12.2615,-12.2615,-12.2615,-12.2615,-12.2615,-12.2615,-12.2615,-12.2615,-12.2615,-12.2615,-12.2615,-12.2615,-12.2107,-12.1371,-12.1371,-12.0858,-12.0113,-12.0113,-12.0629,-12.1371,-12.1371,-12.2107,-12.2615,-12.2615,-12.2615,-12.2391,-12.1597,-12.1371,-12.1086,-12.0343,-11.8088,-11.5665,-11.3243,-10.9962,-10.747,-10.6539,-10.4334,-10.2887,-10.2887,-10.2887,-10.2887,-10.2887,-10.2887,-10.2739,-10.2844,-10.294,-10.2487,-10.1851,-10.2659,-10.1632,-9.8359,-10.2331,-10.2063,-9.6773,-10.008,-9.9617,-9.5646,-9.6281,-9.4695,-9.094,-9.1819,-9.1137,-12.1653,-12.2376,-12.2959,-12.0837,-12.1306,-12.1592,-11.9377,-11.9084,-11.9342,-12.0473,-12.0847,-12.0359,-11.9025,-11.8613,-11.8293,-11.6992,-11.6741,-11.6682,-11.6682,-11.6682,-11.6217,-11.5054,-11.4937,-11.5461,-11.6682,-11.6915,-11.645,-11.517,-11.8602,-12.0172,-11.8951,-12.1278,-12.2615,-12.2615,-12.2615,-12.2615,-12.2615,-12.2615,-12.2615,-12.2615,-12.2615,-12.2615,-12.2615,-12.2615,-12.2615,-12.2615,-12.2615,-12.2615,-12.2615,-12.2615,-12.2615,-12.2615,-12.2615,-12.2615,-12.2615,-12.2615,-12.2615,-12.2615,-12.2615,-12.2615,-12.2615,-12.2615,-12.0572,-11.7798,-11.7798,-11.5665,-11.3243,-11.3243,-11.5425,-11.7798,-11.7798,-12.0343,-12.2615,-12.2615,-12.2615,-12.1824,-11.8555,-11.7798,-11.6855,-11.3975,-11.3243,-11.2998,-11.2752,-10.9962,-10.6747,-10.3638,-10.2887,-10.2887,-10.2887,-10.2887,-10.2887,-10.2887,-10.2887,-10.1561,-9.883,-9.8596,-9.7553,-9.4746,-9.4541,-9.4291,-9.4247,-9.5502,-9.6026,-9.5473,-9.6686,-9.5341,-9.1413,-9.2314,-9.102,-8.7803,-8.8642,-8.948,-12.139,-12.0593,-11.9581,-11.8702,-11.7856,-11.6804,-11.6105,-11.6552,-11.7072,-11.677,-11.7369,-11.7693,-11.654,-11.6161,-11.6131,-11.5672,-11.5577,-11.5577,-11.5577,-11.5577,-11.5403,-11.4937,-11.4879,-11.5054,-11.5519,-11.5577,-11.5403,-11.4937,-11.6915,-11.8369,-11.8776,-12.0463,-12.1743,-12.2615,-12.2615,-12.2615,-12.2615,-12.2615,-12.2615,-12.2615,-12.2615,-12.2615,-12.2615,-12.2615,-12.2615,-12.2615,-12.2615,-12.2615,-12.2615,-12.2615,-12.2615,-12.2615,-12.2615,-12.2615,-12.2615,-12.2615,-12.2615,-12.2615,-12.2615,-12.1313,-11.9308,-11.9308,-11.7148,-11.4406,-11.4406,-11.3732,-11.2752,-11.2752,-11.3488,-11.4406,-11.4406,-11.5425,-11.6198,-11.6198,-11.6198,-11.5904,-11.4703,-11.4406,-11.4218,-11.2998,-11.1017,-10.9509,-10.9509,-10.6798,-10.407,-10.3154,-10.2887,-10.2887,-10.2887,-10.0588,-9.9415,-10.0028,-9.7255,-9.5525,-9.5669,-9.5802,-9.54,-9.4291,-9.5467,-9.436,-9.1092,-9.466,-9.4219,-8.8742,-9.1871,-9.1428,-8.7984,-8.8296,-8.8579,-8.8346,-8.865,-8.9219,-12.0814,-11.9354,-11.8015,-11.5935,-11.4322,-11.2908,-11.2006,-11.2737,-11.3278,-11.3432,-11.4114,-11.4905,-11.4948,-11.4879,-11.4879,-11.4879,-11.4879,-11.4879,-11.4879,-11.4879,-11.4879,-11.4879,-11.4879,-11.4879,-11.4879,-11.4879,-11.4879,-11.4879,-11.6101,-11.738,-11.8718,-11.9998,-12.1278,-12.2557,-12.2615,-12.2615,-12.2615,-12.2615,-12.2615,-12.2615,-12.2615,-12.2615,-12.2615,-12.2615,-12.2615,-12.2615,-12.2615,-12.2615,-12.2615,-12.2615,-12.2615,-12.2615,-12.2615,-12.2615,-12.2615,-12.2615,-12.1882,-12.0858,-12.0858,-11.8844,-11.5849,-11.5849,-11.3678,-11.1017,-11.1017,-11.0266,-10.9308,-10.9308,-11.0266,-11.1017,-11.1017,-11.2012,-11.2752,-11.2752,-11.2752,-11.2506,-11.1214,-11.1017,-11.0767,-10.9509,-10.7521,-10.602,-10.602,-10.4334,-10.2887,-10.2887,-10.2887,-10.2302,-10.1129,-9.7714,-9.5399,-9.6033,-9.3233,-9.1495,-9.1922,-9.2053,-9.1798,-9.0936,-9.205,-9.1437,-8.8111,-9.1355,-9.0477,-8.4929,-8.7762,-8.8036,-8.584,-8.6144,-8.6865,-8.7966,-8.8536,-8.9067,-11.9643,-11.8794,-11.8364,-11.2311,-11.0782,-11.0096,-10.7788,-10.7318,-10.8016,-11.0459,-11.0982,-11.1738,-11.4356,-11.4879,-11.4879,-11.4879,-11.4879,-11.4879,-11.4879,-11.4879,-11.4879,-11.4879,-11.4879,-11.4879,-11.4879,-11.4879,-11.4879,-11.4879,-11.6043,-11.7322,-11.866,-11.994,-12.1219,-12.2499,-12.2557,-12.2557,-12.2615,-12.2615,-12.2615,-12.2615,-12.2615,-12.2615,-12.2615,-12.2615,-12.2615,-12.2615,-12.2615,-12.2615,-12.2615,-12.2615,-12.2615,-12.2615,-12.2615,-12.2615,-12.2615,-12.2615,-12.0343,-11.7563,-11.7563,-11.537,-11.2506,-11.2506,-11.0213,-10.747,-10.747,-10.5287,-10.2887,-10.2887,-10.5074,-10.747,-10.747,-11.0014,-11.2506,-11.2506,-11.2506,-11.1516,-10.8239,-10.747,-10.6489,-10.3372,-10.2887,-10.2887,-10.2887,-10.2887,-10.2887,-10.2887,-10.2619,-10.1177,-9.7439,-9.3726,-9.1416,-9.1175,-9.1175,-8.9795,-8.6981,-8.7618,-8.6757,-8.3992,-8.4511,-8.4967,-8.4967,-8.4967,-8.4967,-8.4967,-8.4967,-8.4967,-8.5005,-8.584,-8.6296,-8.6372,-8.8004,-8.8764,-11.9772,-11.7624,-11.5107,-11.158,-11.0245,-10.9291,-10.7689,-10.8016,-10.883,-10.9528,-11.04,-11.1506,-11.3192,-11.4239,-11.4879,-11.4879,-11.4879,-11.4879,-11.4879,-11.4879,-11.4879,-11.4879,-11.4879,-11.4879,-11.4879,-11.4879,-11.4879,-11.4879,-11.5228,-11.5984,-11.7264,-11.7671,-11.8893,-12.1161,-12.1219,-12.1685,-12.2615,-12.2615,-12.2615,-12.2615,-12.2615,-12.2615,-12.2615,-12.2615,-12.2615,-12.2615,-12.2615,-12.2615,-12.2615,-12.2615,-12.2615,-12.2615,-12.2615,-12.2615,-12.2333,-11.9826,-11.8322,-11.7328,-11.4889,-11.1958,-10.9003,-10.9003,-10.6798,-10.407,-10.407,-10.3638,-10.2887,-10.2887,-10.3372,-10.407,-10.407,-10.4861,-10.5598,-10.5598,-10.5598,-10.5337,-10.4334,-10.407,-10.3854,-10.3154,-10.2887,-10.2887,-10.2887,-10.2887,-10.2887,-10.2887,-9.799,-9.4288,-9.3162,-9.1985,-9.0532,-8.8303,-8.5238,-8.3169,-8.378,-8.3821,-8.4051,-8.3676,-8.4511,-8.4967,-8.4967,-8.4967,-8.4967,-8.4967,-8.4967,-8.5271,-8.5916,-8.5537,-8.5954,-8.7207,-8.7663,-8.8194,-12.1031,-11.7961,-11.3672,-11.0609,-10.9197,-10.819,-10.7434,-10.7841,-10.8539,-10.9063,-10.9761,-11.0633,-11.1913,-11.2727,-11.3251,-11.3251,-11.3251,-11.3251,-11.3251,-11.3251,-11.3483,-11.4007,-11.2956,-11.2917,-11.4611,-11.4879,-11.4879,-11.4879,-11.4879,-11.5461,-11.6741,-11.6799,-11.7962,-12.0638,-12.0696,-12.1336,-12.2615,-12.2615,-12.2615,-12.2615,-12.2615,-12.2615,-12.2615,-12.2615,-12.2615,-12.2615,-12.2615,-12.2615,-12.2615,-12.2615,-12.2615,-12.2615,-12.2615,-12.2615,-12.2107,-11.7384,-11.4648,-11.3135,-11.1214,-10.8494,-10.5548,-10.5548,-10.4334,-10.2887,-10.2887,-10.2887,-10.2887,-10.2887,-10.2887,-10.2887,-10.2887,-10.2887,-10.2887,-10.2887,-10.2887,-10.2302,-10.0858,-10.0588,-9.9997,-9.8311,-9.799,-9.799,-9.799,-9.799,-9.799,-9.799,-9.2835,-8.9166,-8.9166,-8.7719,-8.592,-8.4109,-8.1732,-8.0563,-8.1854,-8.2613,-8.3221,-8.3714,-8.4511,-8.4967,-8.4967,-8.4967,-8.4967,-8.4967,-8.4967,-8.5195,-8.5726,-8.5195,-8.5461,-8.6448,-8.6827,-8.7473,-12.2048,-11.8281,-11.2939,-10.9278,-10.7752,-10.7259,0.0,-10.7376,-10.7783,-10.8772,-10.9121,-10.9528,-11.0575,-11.0866,-11.0982,-11.0982,-11.0982,-11.0982,-11.0517,-11.0517,-11.098,-11.2139,-11.0042,-11.0126,-11.4494,-11.4879,-11.4879,-11.4879,-11.4879,-11.5403,-11.6508,-11.6566,-11.7788,-12.0405,-12.0521,-12.1161,-12.2615,-12.2615,-12.2615,-12.2615,-12.2615,-12.2615,-12.2615,-12.2615,-12.2615,-12.2615,-12.2615,-12.2391,-12.2107,-12.1597,-12.1882,-12.2107,-12.1597,-12.1597,-12.0858,-11.4461,-11.0213,-10.7727,-10.7264,-10.5287,-10.2887,-10.2887,-10.2887,-10.2887,-10.2887,-10.2887,-10.2887,-10.2887,-10.2887,-10.2887,-10.2887,-10.2887,-10.2619,-10.2302,-10.2302,-10.1177,-9.7439,-9.6563,-9.5406,-9.1985,-9.1416,-9.1416,-9.1416,-9.1416,-9.1131,-9.0317,-8.7137,-8.5128,-8.5128,-8.2022,-8.0032,-8.0032,-8.0032,-8.0335,-8.1057,-8.2651,-8.3676,-8.3866,-8.4549,-8.4967,-8.4967,-8.4967,-8.4967,-8.4967,-8.4967,-8.4967,-8.4967,-8.4967,-8.4967,-8.4967,-8.5878,-8.6386,0.0,0.0,0.0,0.0,0.0,0.0,0.0,-10.8074,-10.8597,-10.7841,-10.8481,-10.9237,-10.947,-11.0342,-11.0982,-11.0982,-11.0982,-11.0107,-10.7916,-10.7495,-10.7608,-10.7834,-10.7409,-10.9163,-11.4436,-11.4879,-11.4879,-11.4879,-11.4879,-11.4996,-11.5228,-11.5286,-11.645,-11.9067,-11.9184,-12.0289,-12.2615,-12.2615,-12.2615,-12.2615,-12.2615,-12.2615,-12.2615,-12.2615,-12.2615,-12.2615,-12.2615,-12.1086,-11.8322,-11.5665,-11.6143,-11.8322,-11.5665,-11.4703,-11.4218,-11.0213,-10.8239,-10.7264,-10.4548,-10.3372,-10.2887,-10.2887,-10.2887,-10.2887,-10.2887,-10.2887,-10.2887,-10.2887,-10.2887,-10.2887,-10.2887,-10.2887,-10.2033,-9.9132,-9.8264,-9.7117,-9.34,-9.2552,-9.2269,-9.1416,-9.1416,-9.1416,-9.1416,-9.1416,-8.9166,-8.3177,-8.1762,-8.1161,-8.1161,-8.0597,-8.0032,-8.0032,-8.0032,-8.0107,-8.0259,-8.1778,-8.3297,-8.4625,-8.4853,-8.4967,-8.4967,-8.4967,-8.4967,-8.4967,-8.4967,-8.4967,-8.4967,-8.4967,-8.4967,-8.4967,-8.5878,-8.4703,0.0,0.0,0.0,0.0,0.0,0.0,0.0,0.0,0.0,0.0,0.0,-10.8248,-10.8248,0.0,-10.6926,-10.6926,-10.5784,-10.4268,-10.2783,-10.2569,-10.2359,-10.1649,-10.3342,-10.6456,-11.1223,-11.3572,-11.4879,-11.4879,-11.4879,-11.4879,-11.4879,-11.4879,-11.5056,-11.5375,-11.7717,-11.8989,-11.9428,-12.1534,-12.2615,-12.2615,-12.2615,-12.2615,-12.2615,-12.2615,-12.1824,-12.0056,-12.0056,-11.8322,-11.5185,-11.3488,-11.3732,-11.4648,-10.9762,-10.88,-10.9762,-10.6539,-10.5287,-10.5074,-10.3372,-10.2887,-10.257,-10.0588,-9.9997,-9.9725,-9.7714,-9.7163,-9.7163,-9.7163,-9.7163,-9.7163,-9.7163,-9.7163,-9.6563,-9.4848,-9.4288,-9.3162,-8.9412,-8.8589,-8.8009,-8.601,-8.5757,-8.5757,-8.5757,-8.5757,-8.4324,-8.0597,-8.0032,-8.0032,-8.0032,-8.0032,-7.988,-7.9462,-7.9386,-7.9576,-7.9994,-8.0791,-8.1968,-8.36,-8.4132,-8.4549,-8.4929,-8.4967,-8.4967,-8.4967,-8.4967,-8.4967,-8.4967,-8.4967,-8.4967,-8.4929,-8.2636,-8.0721,0.0,0.0,0.0,0.0,0.0,0.0,0.0,0.0,0.0,0.0,0.0,0.0,0.0,0.0,0.0,-10.256,-10.0166,-9.8094,-9.766,-9.7067,-9.6393,-9.6281,-9.9255,-10.3171,-10.7718,-11.1493,-11.3841,-11.453,-11.4763,-11.4879,-11.4879,-11.4879,-11.4282,-11.2969,-11.593,-11.7248,-11.7035,-11.9257,-12.0856,-12.1597,-12.1143,0.0,-12.0629,-12.0629,-11.9365,-11.6618,-11.6618,-11.4889,-11.1764,-11.1764,-11.1516,-11.0266,-10.4861,-10.4334,-10.6229,-10.3007,-10.1177,-10.0588,-10.0588,-10.0588,-9.9997,-9.7117,-9.6008,-9.5406,-9.2269,-9.1416,0.0,-9.1416,-9.1416,-9.1416,-9.1416,-9.1416,-9.1131,-9.056,-9.0274,-8.9166,-8.5422,-8.4579,-8.3731,-8.0597,-8.0032,-8.0032,-8.0032,-8.0032,-7.9994,-7.9804,-7.9918,-7.9994,-7.9804,-7.9918,-7.9766,-7.9082,-7.9006,-7.9272,-7.9994,-8.0032,-8.0677,-8.2158,-8.2879,-8.3562,-8.4208,-8.4246,-8.4246,-8.4246,-8.4246,-8.4322,-8.4474,-8.4474,-8.4474,-8.4436,-7.8816,-7.6244,0.0,0.0,0.0,0.0,0.0,0.0,0.0,0.0,0.0,0.0,0.0,0.0,0.0,0.0,0.0,0.0,-9.8961,-9.6543,-9.5025,-9.1772,-9.1291,-9.5774,-9.659,-9.9493,-10.6275,-10.8365,-11.044,-11.2985,-11.4239,-11.4879,-11.4879,-11.4879,0.0,0.0,0.0,-11.5331,-12.0195,-11.5008,-11.4381,-11.8088,-11.5185,-11.3975,-11.3975,-11.3975,-11.3732,-11.3243,-11.3243,-11.1462,-10.8239,-10.8239,-10.6539,-10.3854,-10.3105,-10.3154,-10.2789,-9.9132,-9.573,-9.2596,-9.2596,0.0,0.0,-9.2269,-9.1985,-9.1985,-9.1416,-9.1416,-9.1416,-9.1416,-9.1416,-9.1416,-9.1416,-9.1416,-9.056,-8.7137,-8.6261,-8.5422,-8.1461,-8.0597,-8.0597,-8.0032,-8.0032,-8.0032,-8.0032,-8.0032,-7.9766,-7.9006,-7.9538,-7.9766,-7.9006,-7.9576,-7.9994,-7.9918,0.0,0.0,-8.0032,-8.0032,-8.0411,-8.1322,-8.1474,-8.1588,-8.1664,-8.1664,-8.1664,-8.1664,-8.1664,-8.2006,-8.2765,-8.2765,-8.2765,-8.2689,-7.666,-7.2583,0.0,0.0,0.0,0.0,0.0,0.0,0.0,0.0,0.0,0.0,0.0,0.0,0.0,0.0,0.0,0.0,-9.5157,-9.3024,-9.2286,-9.0016,-8.9193,-9.1361,-9.435,-9.7324,-10.0437,-10.3283,-10.5861,-10.7674,-10.823,-10.8842,-10.9566,-10.9622,-10.8895,-10.7746,-10.8913,-10.9787,-11.0357,-11.0299,-11.1457,-11.3849,-11.2461,-11.2108,-11.2752,-11.2752,-11.1764,-10.971,-10.971,-10.8034,-10.4812,-10.4812,-10.407,-10.2521,0.0,0.0,0.0,0.0,-9.2835,-9.1416,-9.1416,-9.1416,-9.0846,-8.8836,-8.7632,-8.6926,-8.4691,-8.4107,-8.4107,-8.4107,-8.447,-8.4874,-8.4874,-8.4874,-8.4324,-8.2879,-8.2282,-8.2022,-8.0334,-8.0032,-8.0032,-8.0032,-8.0032,0.0,-8.0032,-8.0032,-7.9918,-7.9576,-7.9804,-7.9918,-7.9538,-7.9804,-7.9842,-7.9348,-7.931,-7.931,-7.931,-7.931,0.0,0.0,0.0,-8.1246,-8.1246,-8.1702,0.0,0.0,0.0,-8.1171,-8.1057,-8.0563,0.0,0.0,-7.1282,-6.7699,0.0,0.0,0.0,0.0,0.0,0.0,0.0,0.0,0.0,0.0,0.0,0.0,0.0,0.0,0.0,0.0,-9.2729,-9.0275,-9.0275,-8.9588,-8.8912,-8.862,-9.199,-9.4884,-9.5569,-9.8767,-10.1344,-10.2873,-10.3474,-10.4012,-10.4698,-10.5074,-10.4313,-10.1973,-10.4438,-10.5229,-10.4158,-10.5666,-10.7391,-10.9285,-10.8605,-10.8533,-10.9071,-10.9071,-10.7868,-10.5627,-10.5627,-10.4175,-10.2008,-10.2008,-10.2203,-10.1768,-9.5863,-9.4363,-9.472,-9.0763,-8.9258,-8.8973,-8.8125,-8.8089,-8.7719,-8.5169,-8.3722,-8.2417,-7.9632,-7.8627,-7.8475,-7.8703,-7.9234,-7.9728,-7.9994,-8.0032,-8.0032,-8.0032,-8.0032,-8.0032,-8.0032,-8.0032,-8.0032,-8.0032,-8.0032,-8.0032,-8.0032,-8.0032,-7.9653,-7.8142,-7.8291,0.0,-7.655,-7.6391,-7.6318,-7.5736,-7.5664,-7.5664,-7.5664,-7.5445,-7.5664,-7.65,-7.6864,-7.7155,-7.7373,-7.7519,-7.8211,-7.9175,-7.9916,-7.9804,0.0,0.0,0.0,0.0,0.0,0.0,0.0,0.0,0.0,0.0,0.0,0.0,0.0,0.0,0.0,0.0,0.0,0.0,0.0,0.0,0.0,0.0,0.0,0.0,-8.9149,-9.007,-9.01,-8.8702,-8.9416,-9.1348,-9.3939,-9.5642,-9.762,-10.051,-10.1806,-10.2451,-10.2505,-10.3581,-10.3947,-10.3947,-10.2104,-10.3252,-10.7383,-10.1325,-10.0478,-10.4692,-10.1623,-9.9973,-10.0022,-10.0022,-10.0022,-10.0022,-10.0022,-10.0022,-9.9763,-9.9763,-10.0397,-10.0387,-9.2273,-8.975,-8.9979,-8.5139,-8.339,-8.2983,-8.0209,-7.961,-8.0334,-8.0334,-7.9762,-7.8741,-7.8779,-7.8209,-7.7754,-7.8551,-7.8779,-7.9006,-7.9804,-8.0032,-8.0032,-8.0032,-8.0032,-8.0032,-8.0032,-8.0032,-8.0032,-8.0032,-8.0032,-8.0032,-8.0032,-8.0032,-7.8482,-7.363,-7.3514,0.0,-6.7047,-6.7253,-6.7986,-6.764,-6.764,-6.764,-6.764,-6.7027,-6.693,-6.764,-6.7059,-6.6995,-6.7672,-6.6414,-6.7533,-7.1525,-7.5503,-7.7222,-7.6311,0.0,0.0,0.0,0.0,0.0,0.0,0.0,0.0,0.0,0.0,0.0,0.0,0.0,0.0,0.0,0.0,0.0,0.0,0.0,0.0,0.0,0.0,0.0,0.0,-9.0628,-8.9854,-8.993,-9.104,-9.2764,-9.5518,-9.5299,-9.5611,-9.7238,-9.6109,-9.5561,-9.6269,-9.6623,-9.7229,-9.7988,-9.7234,-9.7933,-10.0212,-9.8087,-9.7926,-10.0225,-9.9054,-9.8982,-9.9665,-9.9665,-9.9665,-9.9665,-9.9665,-9.9665,-9.9406,-9.7171,-9.446,-9.1415,-8.611,-8.4628,-8.5139,-8.0975,-7.9489,-7.9238,-7.8417,-7.8133,-7.8399,-7.8399,-7.7792,-7.707,-7.707,-7.688,-7.6842,-7.7716,-7.8361,-7.8969,-7.9804,-8.0032,-8.0032,-8.0032,-8.0032,-8.0032,-8.0032,-8.0032,-8.0032,-8.0032,-7.9158,-7.8399,-7.8399,-7.6649,-7.4236,-7.191,-7.037,-6.8863,-6.7349,-6.7228,-6.7357,-6.7357,-6.7357,-6.7357,-6.7357,-6.7132,-6.71,-6.7357,-6.7132,-6.71,-6.7357,-6.6458,-6.7823,-7.1853,-7.3198,-7.3811,-7.4564,0.0,0.0,0.0,0.0,0.0,0.0,0.0,0.0,0.0,0.0,0.0,0.0,0.0,0.0,0.0,0.0,0.0,0.0,0.0,0.0,0.0,0.0,0.0,0.0,0.0,0.0,-9.1101,-9.2348,0.0,-9.6329,-9.5623,-9.569,-9.6785,-9.4094,-9.2871,-9.3517,-9.2823,-9.293,-9.3662,-9.4004,-9.4736,-9.5809,-9.5809,-9.6346,-9.742,-9.742,-9.7811,-9.8494,-9.8494,-9.8494,-9.8543,-9.7545,-9.6929,-9.6287,-9.4057,-9.0647,-8.6833,-8.2697,-8.0958,-8.03,-7.7558,-7.6653,-7.6691,-7.6956,-7.707,-7.707,-7.707,-7.6083,-7.4944,-7.5248,-7.4906,-7.4754,-7.6235,-7.7222,-7.8133,-7.9272,-7.9804,-8.0032,-8.0032,-8.0032,-8.0032,-8.0032,-7.9804,-7.95,-7.9196,-7.8285,-7.745,-7.7108,-7.4136,-7.133,-6.9282,-6.635,-6.4301,-6.3203,-6.2944,-6.2944,-6.2944,-6.2944,-6.2944,-6.2944,-6.2944,-6.2944,-6.2944,-6.2944,-6.2824,-6.2584,-6.1955,-6.3745,-6.8472,-6.8295,-6.9719,0.0,0.0,0.0,0.0,0.0,0.0,0.0,0.0,0.0,0.0,0.0,0.0,0.0,0.0,0.0,0.0,0.0,0.0,0.0,0.0,0.0,0.0,0.0,0.0,0.0,0.0,0.0,-9.1851,-9.3692,0.0,0.0,0.0,0.0,-9.8523,-9.5859,-9.4184,-9.4184,-9.2374,-9.1466,-9.1563,-9.2539,-9.3613,-9.4687,-9.4736,-9.5273,-9.6346,-9.6346,-9.6346,-9.6395,-9.6395,-9.6395,-9.6193,-9.3735,-9.194,-9.1274,-9.0756,-8.9164,-8.6345,-8.2224,-7.8914,-7.6543,-7.5739,-7.5433,-7.551,-7.6351,-7.6581,-7.6543,-7.6466,-7.4821,-7.3023,-7.3436,-7.2362,0.0,0.0,-7.54,-7.6425,-7.8171,-7.9234,-7.9842,-7.9918,-7.9918,-7.9918,-7.9918,-7.9272,-7.8437,-7.7526,-7.7298,-7.6956,-7.6045,0.0,-6.9116,-6.5222,-6.1494,-5.8024,-5.5111,-5.4667,-5.4693,-5.4693,-5.4693,-5.4693,-5.4693,-5.4693,-5.4693,-5.4693,-5.4693,-5.4433,-5.3862,-5.3239,-5.5741,-6.1221,-6.1385,0.0,0.0,0.0,0.0,0.0,0.0,0.0,0.0,0.0,0.0,0.0,0.0,0.0,0.0,0.0,0.0,0.0,0.0,0.0,0.0,0.0,0.0,0.0,0.0,0.0,0.0,-9.4588,-9.5179,-9.4352,-9.579,-9.7829,0.0,0.0,0.0,0.0,0.0,0.0,-9.1773,-9.2013,-9.1491,-9.0392,-9.1466,-9.2491,-9.3564,-9.3564,-9.4101,-9.5224,-9.5224,-9.5614,-9.6395,-9.6395,-9.6395,-9.6395,-9.563,-9.5329,-9.4582,-8.9963,-8.6595,-8.4749,-8.3693,-8.2712,-8.2076,-8.1866,-8.1319,-8.055,-8.1782,-8.1656,-8.055,-7.8905,-7.7987,-7.6979,-7.3353,0.0,0.0,0.0,0.0,-7.3957,-7.6273,-7.7032,-7.7336,-7.8019,-7.8171,-7.8171,-7.8171,-7.8019,-7.7222,-7.5134,-7.3729,-7.2628,-7.1755,0.0,0.0,0.0,0.0,-5.7399,-5.4008,-5.4173,-5.4693,-5.4693,-5.4693,-5.4693,-5.4693,-5.4693,-5.4693,-5.4693,-5.4693,-5.4433,-5.3862,-5.2485,-5.4684,-6.0462,0.0,0.0,0.0,0.0,0.0,0.0,0.0,0.0,0.0,0.0,0.0,0.0,0.0,0.0,0.0,0.0,0.0,0.0,0.0,0.0,0.0,0.0,0.0,0.0,0.0,0.0,0.0,-9.4289,-9.4927,-9.4687,-9.6336,-9.8452,0.0,0.0,0.0,0.0,0.0,0.0,0.0,0.0,0.0,-9.0963,-9.0554,-9.0929,-9.2442,-9.2491,-9.3027,-9.4101,-9.4589,-9.5126,-9.5712,-9.62,-9.6395,-9.6444,-9.5061,-9.4979,-9.5463,-9.1277,-8.8287,-8.6362,0.0,0.0,0.0,0.0,-8.1887,-8.1151,-8.1714,-8.1541,-8.0762,-7.8609,0.0,0.0,0.0,0.0,0.0,0.0,0.0,-7.2362,-7.4147,-7.5134,-7.5893,-7.6766,-7.6691,-7.6539,-7.688,-7.4944,-7.2704,-7.1261,-7.0236,-6.9439,-6.8984,0.0,0.0,0.0,0.0,-5.9091,-5.629,-5.6593,-5.7277,-5.7523,-5.5975,-5.4693,-5.4693,-5.4693,-5.4693,-5.4693,-5.4459,-5.3836,-5.2771,-5.1317,-5.2242,0.0,0.0,0.0,0.0,0.0,0.0,0.0,0.0,0.0,0.0,0.0,0.0,0.0,0.0,0.0,0.0,0.0,0.0,0.0,0.0,0.0,0.0,0.0,0.0,0.0,0.0,0.0,0.0,0.0,-9.3648,-9.3823,0.0,0.0,0.0,0.0,0.0,0.0,0.0,0.0,0.0,0.0,0.0,0.0,0.0,-8.9816,-9.1597,-9.1263,-9.1563,-9.2735,-9.3711,-9.4296,-9.4638,-9.5565,-9.5956,-9.5755,-9.3193,0.0,-9.3906,-9.351,0.0,0.0,0.0,0.0,0.0,0.0,0.0,0.0,0.0,0.0,0.0,0.0,0.0,0.0,0.0,0.0,0.0,0.0,0.0,0.0,0.0,0.0,-7.4185,-7.502,-7.4678,-7.4299,-7.4792,-7.0806,-6.7085,-6.6971,-6.6971,-6.6933,0.0,0.0,0.0,0.0,0.0,0.0,-5.8522,-5.9225,-6.0006,-6.0234,-5.7523,-5.5295,-5.4589,-5.4589,-5.4563,-5.4485,-5.3862,-5.2771,-5.1135,-4.9966,0.0,0.0,0.0,0.0,0.0,0.0,0.0,0.0,0.0,0.0,0.0,0.0,0.0,0.0,0.0,0.0,0.0,0.0,0.0,0.0,0.0,0.0,0.0,0.0,0.0,0.0,0.0,0.0,0.0,0.0,0.0,0.0,0.0,0.0,0.0,0.0,0.0,0.0,0.0,0.0,0.0,0.0,0.0,0.0,0.0,0.0,0.0,0.0,0.0,0.0,-9.0782,-9.1758,-9.3418,-9.3613,-9.3711,-9.3613,-9.1331,-9.0164,-8.9795,-9.265,0.0,0.0,0.0,0.0,0.0,0.0,0.0,0.0,0.0,0.0,0.0,0.0,0.0,0.0,0.0,0.0,0.0,0.0,0.0,0.0,0.0,0.0,-6.8984,-6.9857,-6.9971,-6.9515,-6.8262,0.0,0.0,0.0,0.0,0.0,0.0,0.0,0.0,0.0,0.0,0.0,-5.2869,-5.6893,-5.888,-5.5553,-5.7895,-5.8302,-5.4341,-5.3992,-5.3784,-5.3316,-5.233,-5.1187,0.0,0.0,0.0,0.0,0.0,0.0,0.0,0.0,0.0,0.0,0.0,0.0,0.0,0.0,0.0,0.0,0.0,0.0,0.0,0.0,0.0,0.0,0.0,0.0,0.0,0.0,0.0,0.0,0.0,0.0,0.0,0.0,0.0,0.0,0.0,0.0,0.0,0.0,0.0,0.0,0.0,0.0,0.0,0.0,0.0,0.0,0.0,0.0,0.0,0.0,0.0,0.0,0.0,0.0,0.0,0.0,0.0,0.0,-9.2274,-9.2645,0.0,0.0,0.0,0.0,0.0,0.0,0.0,0.0,0.0,0.0,0.0,0.0,0.0,0.0,0.0,0.0,0.0,0.0,0.0,0.0,0.0,0.0,0.0,0.0,0.0,0.0,0.0,0.0,0.0,0.0,0.0,0.0,0.0,0.0,0.0,0.0,0.0,0.0,0.0,0.0,-5.3995,-5.8944,-6.1282,-5.755,-5.9392,-5.9326,-5.4629,-5.4018,-5.3472,-5.2615,-5.1499,0.0,0.0,0.0,0.0,0.0,0.0,0.0,0.0,0.0,0.0,0.0,0.0,0.0,0.0,0.0,0.0,0.0,0.0,0.0,0.0,0.0,0.0,0.0,0.0,0.0,0.0,0.0,0.0,0.0,0.0,0.0,0.0,0.0,0.0,0.0,0.0,0.0,0.0,0.0,0.0,0.0,0.0,0.0,0.0,0.0,0.0,0.0,0.0,0.0,0.0,0.0,0.0,0.0,0.0,0.0,0.0,0.0,0.0,0.0,-9.215,-9.3763,0.0,0.0,0.0,0.0,0.0,0.0,0.0,0.0,0.0,0.0,0.0,0.0,0.0,0.0,0.0,0.0,0.0,0.0,0.0,0.0,0.0,0.0,0.0,0.0,0.0,0.0,0.0,0.0,0.0,0.0,0.0,0.0,0.0,0.0,0.0,0.0,0.0,0.0,0.0,0.0,-5.4572,-5.9824,-6.2356,-5.8998,-6.0064,-5.9212,-5.4681,-5.3914,-5.3057,-5.168,-5.0538,0.0,0.0,0.0,0.0,0.0,0.0,0.0,0.0,0.0,0.0,0.0,0.0,0.0,0.0,0.0,0.0,0.0,0.0,0.0,0.0,0.0,0.0,0.0,0.0,0.0,0.0,0.0,0.0,0.0,0.0,0.0,0.0,0.0,0.0,0.0,0.0,0.0,0.0,0.0,0.0,0.0,0.0,0.0,0.0,0.0,0.0,0.0,0.0,0.0,0.0,0.0,0.0,0.0,0.0,0.0,0.0,0.0,0.0,0.0,0.0,0.0,0.0,0.0,0.0,0.0,0.0,0.0,0.0,0.0,0.0,0.0,0.0,0.0,0.0,0.0,0.0,0.0,0.0,0.0,0.0,0.0,0.0,0.0,0.0,0.0,0.0,0.0,0.0,0.0,0.0,0.0,0.0,0.0,0.0,0.0,0.0,0.0,0.0,0.0,0.0,0.0,-4.9088,-5.4403,-5.6738,-5.3137,-5.7281,-5.8392,-5.3505,-5.3109,-5.2148,-4.9966,0.0,0.0,0.0,0.0,0.0,0.0,0.0,0.0,0.0,0.0,0.0,0.0,0.0,0.0,0.0,0.0,0.0,0.0,0.0,0.0,0.0,0.0,0.0,0.0,0.0,0.0,0.0,0.0,0.0,0.0,0.0,0.0,0.0,0.0,0.0,0.0,0.0,0.0,0.0,0.0,0.0,0.0,0.0,0.0,0.0,0.0,0.0,0.0,0.0,0.0,0.0,0.0,0.0,0.0,0.0,0.0,0.0,0.0,0.0,0.0,0.0,0.0,0.0,0.0,0.0,0.0,0.0,0.0,0.0,0.0,0.0,0.0,0.0,0.0,0.0,0.0,0.0,0.0,0.0,0.0,0.0,0.0,0.0,0.0,0.0,0.0,0.0,0.0,0.0,0.0,0.0,0.0,0.0,0.0,0.0,0.0,0.0,0.0,0.0,0.0,0.0,0.0,-4.7627,-5.3419,-5.6149,-5.1912,-5.6326,-5.7883,-5.3322,-5.2693,-5.2397,-5.2096,0.0,0.0,0.0,0.0,0.0,0.0,0.0,0.0,0.0,0.0,0.0,0.0,0.0,0.0,0.0,0.0,0.0,0.0,0.0,0.0,0.0,0.0,0.0,0.0,0.0,0.0,0.0,0.0,0.0,0.0,0.0,0.0,0.0,0.0,0.0,0.0,0.0,0.0,0.0,0.0,0.0,0.0,0.0,0.0,0.0,0.0,0.0,0.0,0.0,0.0,0.0,0.0,0.0,0.0,0.0,0.0,0.0,0.0,0.0,0.0,0.0,0.0,0.0,0.0,0.0,0.0,0.0,0.0,0.0,0.0,0.0,0.0,0.0,0.0,0.0,0.0,0.0,0.0,0.0,0.0,0.0,0.0,0.0,0.0,0.0,0.0,0.0,0.0,0.0,0.0,0.0,0.0,0.0,0.0,0.0,0.0,0.0,0.0,0.0,0.0,0.0,0.0,-4.6772,-5.1694,-5.4104,-5.1337,-5.4787,-5.6124,-5.3061,-5.3137,-5.3582,-5.3707,0.0,0.0,0.0,0.0,0.0,0.0,0.0,0.0,0.0,0.0,0.0,0.0,0.0,0.0,0.0,0.0,0.0,0.0,0.0,0.0,0.0,0.0,0.0,0.0,0.0,0.0,0.0,0.0,0.0,0.0,0.0,0.0,0.0,0.0,0.0,0.0,0.0,0.0,0.0,0.0,0.0,0.0,0.0,0.0,0.0,0.0,0.0,0.0,0.0,0.0,0.0,0.0,0.0,0.0,0.0,0.0,0.0,0.0,0.0,0.0,0.0,0.0,0.0,0.0,0.0,0.0,0.0,0.0,0.0,0.0,0.0,0.0,0.0,0.0,0.0,0.0,0.0,0.0,0.0,0.0,0.0,0.0,0.0,0.0,0.0,0.0,0.0,0.0,0.0,0.0,0.0,0.0,0.0,0.0,0.0,0.0,0.0,0.0,0.0,0.0,0.0,0.0,-4.6149,-4.82,-4.9836,-5.0408,-5.1473,-5.2148,-5.2148,-5.4934,-5.5576,0.0,0.0,0.0,0.0,0.0,0.0,0.0,0.0,0.0,0.0,0.0,0.0,0.0,0.0,0.0,0.0,0.0,0.0,0.0,0.0,0.0,0.0,0.0,0.0,0.0,0.0,0.0,0.0,0.0,0.0,0.0,0.0,0.0,0.0,0.0,0.0,0.0,0.0,0.0,0.0,0.0,0.0,0.0,0.0,0.0,0.0,0.0,0.0,0.0,0.0,0.0,0.0,0.0,0.0,0.0,0.0,0.0,0.0,0.0,0.0,0.0,0.0,0.0,0.0,0.0,0.0,0.0,0.0,0.0,0.0,0.0,0.0,0.0,0.0,0.0,0.0,0.0,0.0,0.0,0.0,0.0,0.0,0.0,0.0,0.0,0.0,0.0,0.0,0.0,0.0,0.0,0.0,0.0,0.0,0.0,0.0,0.0,0.0,0.0,0.0,0.0,0.0,0.0,-4.6071,-4.7863,-4.9239,0.0,-5.0875,-5.1421,-5.1031,-5.2013,-5.2619,-5.2356,0.0,0.0,0.0,0.0,0.0,0.0,0.0,0.0,0.0,0.0,0.0,0.0,0.0,0.0,0.0,0.0,0.0,0.0,0.0,0.0,0.0,0.0,0.0,0.0,0.0,0.0,0.0,0.0,0.0,0.0,0.0,0.0,0.0,0.0,0.0,0.0,0.0,0.0,0.0,0.0,0.0,0.0,0.0,0.0,0.0,0.0,0.0,0.0,0.0,0.0,0.0,0.0,0.0,0.0,0.0,0.0,0.0,0.0,0.0,0.0,0.0,0.0,0.0,0.0,0.0,0.0,0.0,0.0,0.0,0.0,0.0,0.0,0.0,0.0,0.0,0.0,0.0,0.0,0.0,0.0,0.0,0.0,0.0,0.0,0.0,0.0,0.0,0.0,0.0,0.0,0.0,0.0,0.0,0.0,0.0,0.0,0.0,0.0,0.0,0.0,0.0,0.0,0.0,-4.7499,-4.8642,0.0,-5.0096,-5.0512,-5.0148,-5.1381,-5.1848,-5.2011,0.0,0.0,0.0,0.0,0.0,0.0,0.0,0.0,0.0,0.0,0.0,0.0,0.0,0.0,0.0,0.0,0.0,0.0,0.0,0.0,0.0,0.0,0.0,0.0,0.0,0.0,0.0,0.0,0.0,0.0,0.0,0.0,0.0,0.0,0.0,0.0,0.0,0.0,0.0,0.0,0.0,0.0,0.0,0.0,0.0,0.0,0.0,0.0,0.0,0.0,0.0,0.0,0.0,0.0,0.0,0.0,0.0,0.0,0.0,0.0,0.0,0.0,0.0,0.0,0.0,0.0,0.0,0.0,0.0,0.0,0.0,0.0,0.0,0.0,0.0,0.0,0.0,0.0,0.0,0.0,0.0,0.0,0.0,0.0,0.0,0.0,0.0,0.0,0.0,0.0,0.0,0.0,0.0,0.0,0.0,0.0,0.0,0.0,0.0,0.0,0.0,0.0,0.0,-4.7136,-4.8071,-4.8694,-4.9265,-4.9577,-4.9525,-5.2139,-5.3219,-5.1648,-5.12,0.0,0.0,0.0,0.0,0.0,0.0,0.0,0.0,0.0,0.0,0.0,0.0,0.0,0.0,0.0,0.0,0.0,0.0,0.0,0.0,0.0,0.0,0.0,0.0,0.0,0.0,0.0,0.0,0.0,0.0,0.0,0.0,0.0,0.0,0.0,0.0,0.0,0.0,0.0,0.0,0.0,0.0,0.0,0.0,0.0,0.0,0.0,0.0,0.0,0.0,0.0,0.0,0.0,0.0,0.0,0.0,0.0,0.0,0.0,0.0,0.0,0.0,0.0,0.0,0.0,0.0,0.0,0.0,0.0,0.0,0.0,0.0,0.0,0.0,0.0,0.0,0.0,0.0,0.0,0.0,0.0,0.0,0.0,0.0,0.0,0.0,0.0,0.0,0.0,0.0,0.0,0.0,0.0,0.0,0.0,0.0,0.0,0.0,0.0,0.0,0.0,0.0,-4.6538,-4.7629,-4.8642,-4.9265,-4.9421,-4.8979,-4.9278,-4.9,-4.7823,-4.8986,0.0,0.0,0.0,0.0,0.0,0.0,0.0,0.0,0.0,0.0,0.0,0.0,0.0,0.0,0.0,0.0,0.0,0.0,0.0,0.0,0.0,0.0,0.0,0.0,0.0,0.0,0.0,0.0,0.0,0.0,0.0,0.0,0.0,0.0,0.0,0.0,0.0,0.0,0.0,0.0,0.0,0.0,0.0,0.0,0.0,0.0,0.0,0.0,0.0,0.0,0.0,0.0,0.0,0.0,0.0,0.0,0.0,0.0,0.0,0.0,0.0,0.0,0.0,0.0,0.0,0.0,0.0,0.0,0.0,0.0,0.0,0.0,0.0,0.0,0.0,0.0,0.0,0.0,0.0,0.0,0.0,0.0,0.0,0.0,0.0,0.0,0.0,0.0,0.0,0.0,0.0,0.0,0.0,0.0,0.0,0.0,0.0,0.0,0.0,0.0,0.0,0.0,-4.498,-4.6382,-4.7811,-4.8486,-4.8694,-4.8382,-4.7837,-4.7569,-4.8001,-5.1135,0.0,0.0,0.0,0.0,0.0,0.0,0.0,0.0,0.0,0.0,0.0,0.0,0.0,0.0,0.0,0.0,0.0,0.0,0.0,0.0,0.0,0.0,0.0,0.0,0.0,0.0,0.0,0.0,0.0,0.0,0.0,0.0,0.0,0.0,0.0,0.0,0.0,0.0,0.0,0.0,0.0,0.0,0.0,0.0,0.0,0.0,0.0,0.0,0.0,0.0,0.0,0.0,0.0,0.0,0.0,0.0,0.0,0.0,0.0,0.0,0.0,0.0,0.0,0.0,0.0,0.0,0.0,0.0,0.0,0.0,0.0,0.0,0.0,0.0,0.0,0.0,0.0,0.0,0.0,0.0,0.0,0.0,0.0,0.0,0.0,0.0,0.0,0.0,0.0,0.0,0.0,0.0,0.0,0.0,0.0,0.0,0.0,0.0,0.0,0.0,0.0,0.0,0.0,-4.544,-4.6486,-4.7239,-4.7914,-4.8173,-4.7929,-4.8463,-5.0768,0.0,0.0,0.0,0.0,0.0,0.0,0.0,0.0,0.0,0.0,0.0,0.0,0.0,0.0,0.0,0.0,0.0,0.0,0.0,0.0,0.0,0.0,0.0,0.0,0.0,0.0,0.0,0.0,0.0,0.0,0.0,0.0,0.0,0.0,0.0,0.0,0.0,0.0,0.0,0.0,0.0,0.0,0.0,0.0,0.0,0.0,0.0,0.0,0.0,0.0,0.0,0.0,0.0,0.0,0.0,0.0,0.0,0.0,0.0,0.0,0.0,0.0,0.0,0.0,0.0,0.0,0.0,0.0,0.0,0.0,0.0,0.0,0.0,0.0,0.0,0.0,0.0,0.0,0.0,0.0,0.0,0.0,0.0,0.0,0.0,0.0,0.0,0.0,0.0,0.0,0.0,0.0,0.0,0.0,0.0,0.0,0.0,0.0,0.0,0.0,0.0,0.0,0.0,0.0,-4.7086,-4.5014,-4.5811,-4.7519,-5.0442,-5.0418,-5.1063,-5.3681,0.0,0.0,0.0,0.0,0.0,0.0,0.0,0.0,0.0,0.0,0.0,0.0,0.0,0.0]}],[{"header":{"parameterUnit":"kt","parameterCategory":2,"dx":1,"dy":1,"la1":29.285339999999998,"la2":30.599998999999997,"lo1":-89.70041500000002,"lo2":-87.6738589999976,"nx":112,"ny":82,"refTime":"2022-10-29T12:00:00:Z","depth":0,"parameterNumber":2,"parameterNumberName":"V-component_of_WINDS"},"data":[5.2018,5.2433,0.0,5.0668,5.033,0.0,4.7863,0.0,4.7058,0.0,0.0,0.0,0.0,4.7343,4.6668,4.6305,4.6227,4.5941,0.0,3.906,0.0,0.0,0.0,0.0,0.0,0.0,0.0,0.0,0.0,0.0,0.0,0.0,6.5777,7.1149,7.4316,7.7185,8.0032,8.0032,8.0032,8.0032,8.0032,8.0032,8.0032,8.0032,8.0032,8.0032,8.0032,8.0032,8.0032,8.0032,8.0032,8.0032,8.0032,8.0221,8.0525,8.1057,8.1626,8.2272,8.3069,8.3714,8.417,8.417,8.4511,8.4967,8.4967,8.4967,8.4967,8.4967,8.4967,8.4967,8.4967,8.4967,8.4967,8.4967,8.4967,8.4967,8.4967,8.4967,8.4967,8.4967,8.4967,8.4967,8.4967,8.4967,8.4967,8.4967,8.4967,8.4549,8.3448,8.3069,8.2385,8.0981,8.4347,8.9181,9.5912,10.4416,10.9085,10.8743,10.9036,10.928,10.928,10.928,10.928,10.928,10.928,10.928,10.928,10.928,10.928,10.928,10.889,10.8695,0.0,0.0,5.1343,4.9265,0.0,0.0,0.0,0.0,4.5811,4.5422,4.5811,4.6201,4.6201,4.6201,4.6097,4.5707,4.5967,4.6149,0.0,0.0,0.0,0.0,0.0,0.0,0.0,0.0,0.0,0.0,0.0,0.0,0.0,6.4508,6.7986,7.3355,7.4931,7.7148,8.0032,8.0032,8.0032,8.0032,8.0032,8.0032,8.0032,8.0032,8.0032,8.0032,8.0032,8.0032,8.0032,8.0032,8.0032,8.0032,8.0032,8.0032,8.0107,8.0639,8.1019,8.1322,8.1854,8.2803,8.3752,8.3752,8.4284,8.4967,8.4967,8.4967,8.4967,8.4967,8.4967,8.4967,8.4967,8.4967,8.4967,8.4967,8.4967,8.4967,8.4967,8.4967,8.4967,8.4967,8.4967,8.4967,8.4967,8.4967,8.4967,8.4967,8.4967,8.4663,8.3828,8.3259,8.2461,8.136,8.5384,8.9936,9.441,10.2851,10.8499,10.9232,10.928,10.928,10.928,10.928,10.928,10.928,10.928,10.928,10.928,10.928,10.928,10.928,10.928,10.928,0.0,0.0,0.0,4.7473,0.0,4.6928,4.6382,4.5785,4.5344,4.537,4.5811,4.6175,4.6201,4.6201,4.6201,4.6227,4.6253,0.0,0.0,0.0,0.0,0.0,0.0,0.0,0.0,0.0,0.0,0.0,0.0,0.0,6.7228,7.146,7.3663,7.3972,7.7794,8.0032,8.0032,8.0032,8.0032,8.0032,8.0032,8.0032,8.0032,8.0032,8.0032,8.0032,8.0032,8.0032,8.0032,8.0032,8.0032,8.0032,8.0032,8.0032,8.0032,8.0032,8.0525,8.1208,8.1208,8.2272,8.3638,8.3676,8.4284,8.4967,8.4967,8.4967,8.4967,8.4967,8.4967,8.4967,8.4967,8.4967,8.4967,8.4967,8.4967,8.4967,8.4967,8.4967,8.4967,8.4967,8.4967,8.4967,8.4967,8.4967,8.4967,8.4967,8.4967,8.4663,8.3866,8.3752,8.3107,8.182,8.8293,9.3289,9.4834,10.1962,10.7035,10.9134,10.928,10.928,10.928,10.928,10.928,10.928,10.928,10.928,10.928,10.928,10.928,10.928,10.928,10.928,4.7395,4.7603,4.8252,4.7785,4.7655,4.7603,4.7473,4.6356,4.5473,4.5889,4.5759,0.0,0.0,0.0,4.6331,4.6746,0.0,4.8096,0.0,0.0,0.0,0.0,0.0,0.0,0.0,0.0,0.0,0.0,0.0,0.0,7.1668,7.3045,7.5238,7.8136,7.9388,8.0032,8.0032,8.0032,8.0032,8.0032,8.0032,8.0032,8.0032,8.0032,8.0032,8.0032,8.0032,8.0032,8.0032,8.0032,8.0032,8.0032,8.0032,8.0032,8.0032,8.0032,8.0183,8.0373,8.0373,8.0677,8.1246,8.2423,8.379,8.4967,8.4967,8.4967,8.4967,8.4967,8.4967,8.4967,8.4967,8.4967,8.4967,8.4967,8.4967,8.4967,8.4967,8.4967,8.4967,8.4967,8.4967,8.4967,8.4967,8.4967,8.4967,8.4967,8.4967,8.4891,8.4663,8.4094,8.4745,8.7264,9.1373,9.5462,9.974,10.4558,10.7816,10.9183,10.928,10.928,10.928,10.928,10.928,10.928,10.928,10.928,10.928,10.928,10.928,10.928,10.928,10.928,4.6434,4.6668,4.7421,4.6954,4.7551,4.8071,4.7343,4.659,4.6097,4.6175,0.0,0.0,0.0,0.0,0.0,0.0,4.82,0.0,0.0,0.0,0.0,0.0,0.0,0.0,0.0,0.0,0.0,0.0,0.0,7.0806,7.6122,7.6537,7.749,8.0032,8.0032,8.0032,8.0032,8.0032,8.0032,8.0032,8.0032,8.0032,8.0032,8.0032,8.0032,8.0032,8.0032,8.0032,8.0032,8.0032,8.0032,8.0032,8.0032,8.0032,8.0032,8.0032,8.0032,8.007,8.0411,8.0525,8.0829,8.2461,8.3904,8.4967,8.4967,8.4967,8.4967,8.4967,8.4967,8.4967,8.4967,8.4967,8.4967,8.4967,8.4967,8.4967,8.4967,8.4967,8.4967,8.4967,8.4967,8.4967,8.4967,8.4967,8.4967,8.4967,8.4663,8.4549,8.4929,8.5755,8.7322,8.9407,9.4314,9.8687,10.1693,10.5602,10.8109,10.9183,10.928,10.928,10.928,10.928,10.928,10.928,10.928,10.928,10.928,10.928,10.928,10.928,10.928,10.928,4.6071,4.6071,4.6668,4.5837,4.711,4.8226,4.698,0.0,4.7162,4.685,0.0,0.0,0.0,0.0,0.0,0.0,0.0,0.0,0.0,0.0,0.0,0.0,0.0,0.0,0.0,0.0,7.0369,7.9313,7.5528,7.5045,7.9956,8.0032,8.0032,8.0032,8.0032,8.0032,8.0032,8.0032,8.0032,8.0032,8.0032,8.0032,8.0032,8.0032,8.0032,8.0032,8.0032,8.0032,8.0032,8.0032,8.0032,8.0032,8.0032,8.0032,8.0032,8.0032,8.0107,8.0297,8.1019,8.1322,8.1626,8.3221,8.4208,8.4815,8.4929,8.4967,8.4967,8.4967,8.4967,8.4967,8.4967,8.4967,8.4967,8.4967,8.4967,8.4967,8.4967,8.4967,8.4967,8.4967,8.4967,8.4967,8.4967,8.4967,8.4967,8.4967,8.4322,8.4132,8.4853,8.7957,9.0144,9.0451,9.7346,10.2167,10.2791,10.6077,10.8255,10.9183,10.928,10.928,10.928,10.928,10.928,10.928,10.928,10.928,10.928,10.928,10.928,10.928,10.928,10.928,4.5863,4.5499,4.5941,4.711,4.7395,4.7759,0.0,0.0,0.0,0.0,0.0,0.0,0.0,0.0,0.0,0.0,0.0,0.0,0.0,0.0,0.0,0.0,0.0,0.0,0.0,7.1738,7.4304,7.9691,7.9087,7.9049,7.9994,8.0032,8.0032,8.0032,8.0032,8.0032,8.0032,8.0032,8.0032,8.0032,8.0032,8.0032,8.0032,8.0032,8.0032,8.0032,8.0032,8.0032,8.0032,8.0032,8.0032,8.0032,8.0032,8.0032,8.0032,8.0032,8.0449,8.1057,8.1208,8.1702,8.2385,8.341,8.3828,8.4094,8.4739,8.4967,8.4967,8.4967,8.4967,8.4967,8.4967,8.4967,8.4967,8.4967,8.4967,8.4967,8.4967,8.4967,8.4967,8.4967,8.4967,8.4967,8.4967,8.4967,8.4967,8.4967,8.4815,8.4777,8.4929,8.8513,9.2057,9.5389,9.99,10.4154,10.7468,10.8655,10.9036,10.9232,10.928,10.928,10.928,10.928,10.928,10.928,10.928,10.928,10.928,10.928,10.928,10.928,10.928,10.928,4.537,4.511,4.5551,4.6408,4.7032,0.0,0.0,4.8953,4.9161,0.0,0.0,0.0,0.0,0.0,0.0,0.0,0.0,0.0,0.0,0.0,0.0,0.0,0.0,0.0,0.0,7.5581,7.7794,8.0032,8.0032,8.0032,8.0032,8.0032,8.0032,8.0032,8.0032,8.0032,8.0032,8.0032,8.0032,8.0032,8.0032,8.0032,8.0032,8.0032,8.0032,8.0032,8.0032,8.0032,8.0032,8.0032,8.0032,8.0032,8.0032,8.0032,8.007,8.0487,8.0905,8.136,8.2196,8.2765,8.3221,8.4094,8.436,8.4436,8.4815,8.4967,8.4967,8.4967,8.4967,8.4967,8.4967,8.4967,8.4967,8.4967,8.4967,8.4967,8.4967,8.4967,8.4967,8.4967,8.4967,8.4967,8.4967,8.4967,8.4967,8.4967,8.4625,8.5111,8.7644,9.1314,9.5131,9.9826,10.3804,10.7135,10.8947,10.928,10.928,10.928,10.928,10.928,10.928,10.928,10.928,10.928,10.928,10.928,10.928,10.928,10.928,10.928,10.928,10.928,4.5162,4.5214,4.5759,4.6097,4.7032,0.0,4.8746,4.9083,4.9629,0.0,0.0,0.0,0.0,0.0,0.0,0.0,0.0,0.0,0.0,0.0,0.0,0.0,0.0,0.0,0.0,7.8099,8.0032,8.0032,8.0032,8.0032,8.0032,8.0032,8.0032,8.0032,8.0032,8.0032,8.0032,8.0032,8.0032,8.0032,8.0032,8.0032,8.0032,8.0032,8.0032,8.0032,8.0032,8.0032,8.0032,8.0032,8.0032,8.0032,8.0221,8.0259,8.0373,8.1171,8.1588,8.193,8.3259,8.3828,8.4094,8.4739,8.4967,8.4967,8.4967,8.4967,8.4967,8.4967,8.4967,8.4967,8.4967,8.4967,8.4967,8.4967,8.4967,8.4967,8.4967,8.4967,8.4967,8.4967,8.4967,8.4967,8.4967,8.4967,8.4967,8.4967,8.4398,8.5755,9.0396,9.4092,9.7833,10.2832,10.6847,10.928,10.928,10.928,10.928,10.928,10.928,10.928,10.928,10.928,10.928,10.928,10.928,10.928,10.928,10.928,10.928,10.928,10.928,10.928,4.6071,4.6434,4.7213,4.8746,4.8512,0.0,5.1732,5.1706,5.1628,0.0,0.0,0.0,0.0,0.0,0.0,0.0,0.0,0.0,0.0,0.0,0.0,0.0,0.0,0.0,0.0,7.9729,8.0032,8.0032,8.0032,8.0032,8.0032,8.0032,8.0032,8.0032,8.0032,8.0032,8.0032,8.0032,8.0032,8.0032,8.0032,8.0032,8.0032,8.0032,8.0032,8.0032,8.0032,8.0032,8.0032,8.0032,8.0032,8.0107,8.0829,8.1133,8.1208,8.2044,8.2803,8.3486,8.3676,8.4208,8.4815,8.4929,8.4967,8.4967,8.4967,8.4967,8.4967,8.4967,8.4967,8.4967,8.4967,8.4967,8.4967,8.4967,8.4967,8.4967,8.4967,8.4967,8.4967,8.4967,8.4967,8.4967,8.4967,8.4967,8.4967,8.4967,8.4891,8.6413,9.0517,9.4686,9.8585,10.2878,10.6847,10.928,10.928,10.928,10.928,10.928,10.928,10.928,10.928,10.928,10.928,10.928,10.928,10.928,10.928,10.928,10.928,10.928,10.928,10.928,4.6123,4.6382,4.6798,4.7837,0.0,0.0,5.1031,5.1395,0.0,0.0,0.0,0.0,0.0,0.0,0.0,0.0,0.0,0.0,0.0,0.0,0.0,0.0,0.0,0.0,0.0,0.0,8.0032,8.0032,8.0032,8.0032,8.0032,8.0032,8.0032,8.0032,8.0032,8.0032,8.0032,8.0032,8.0032,8.0032,8.0032,8.0032,8.0032,8.0032,8.0032,8.0032,8.0032,8.0032,8.0032,8.0032,8.0032,8.007,8.0411,8.0829,8.136,8.2158,8.2993,8.379,8.4284,8.4663,8.4967,8.4967,8.4967,8.4967,8.4967,8.4967,8.4967,8.4967,8.4967,8.4967,8.4967,8.4967,8.4967,8.4967,8.4967,8.4967,8.4967,8.4967,8.4967,8.4967,8.4967,8.4967,8.4967,8.4967,8.4967,8.4967,8.4967,8.7405,9.385,9.6298,9.9617,10.5934,10.8329,10.928,10.928,10.928,10.928,10.928,10.928,10.928,10.928,10.928,10.928,10.928,10.928,10.928,10.928,10.928,10.928,10.928,10.928,10.8939,4.6331,0.0,0.0,0.0,0.0,0.0,5.1265,0.0,0.0,0.0,0.0,0.0,0.0,0.0,0.0,0.0,0.0,0.0,0.0,0.0,0.0,0.0,0.0,0.0,0.0,0.0,0.0,0.0,8.0032,8.0032,8.0032,8.0032,8.0032,8.0032,8.0032,8.0032,8.0032,8.0032,8.0032,8.0032,8.0032,8.0032,8.0032,8.0032,8.0032,8.0032,8.0032,8.0032,8.0032,8.0032,8.0032,8.007,8.0297,8.0715,8.136,8.2423,8.3221,8.3866,8.4663,8.4967,8.4967,8.4967,8.4967,8.4967,8.4967,8.4967,8.4967,8.4967,8.4967,8.4967,8.4967,8.4967,8.4967,8.4967,8.4967,8.4967,8.4967,8.4967,8.4967,8.4967,8.4967,8.4967,8.4967,8.4967,8.4967,8.4967,8.589,8.9262,9.6255,9.8071,10.1403,10.8377,10.928,10.928,10.928,10.8988,10.8939,10.9232,10.8988,10.8988,10.9232,10.928,10.928,10.928,10.928,10.928,10.928,10.928,10.928,10.928,10.928,10.8841,0.0,0.0,0.0,5.0745,5.0771,5.1135,5.394,5.3732,5.329,0.0,0.0,0.0,0.0,0.0,0.0,0.0,0.0,0.0,0.0,0.0,0.0,0.0,0.0,0.0,0.0,0.0,0.0,0.0,8.0032,8.0032,8.0032,8.0032,8.0032,8.0032,8.0032,8.0032,8.0032,8.0032,8.0032,8.0032,8.0032,8.0032,8.0032,8.0032,8.0032,8.0032,8.0032,8.0032,8.0032,8.0032,8.0032,8.0107,8.0905,8.1246,8.1436,8.3107,8.3714,8.3866,8.4663,8.4967,8.4967,8.4967,8.4967,8.4967,8.4967,8.4967,8.4967,8.4967,8.4967,8.4967,8.4967,8.4967,8.4967,8.4967,8.4967,8.4967,8.4967,8.4967,8.4967,8.4967,8.4967,8.4967,8.4967,8.4967,8.4967,8.4967,8.8355,9.2305,9.6602,10.0512,10.4726,10.8663,10.928,10.928,10.928,10.8304,10.8158,10.9183,10.8304,10.8158,10.9232,10.928,10.928,10.928,10.928,10.928,10.928,10.928,10.928,10.928,10.928,10.9232,4.7967,4.8746,4.9629,5.0953,5.1732,5.2407,5.3368,5.3576,5.3784,5.4537,0.0,0.0,0.0,0.0,0.0,0.0,0.0,0.0,0.0,0.0,0.0,0.0,0.0,0.0,0.0,0.0,0.0,0.0,0.0,0.0,8.0032,8.0032,8.0032,8.0032,8.0032,8.0032,8.0032,8.0032,8.0032,8.0032,8.0032,8.0032,8.0032,8.0032,8.0032,8.0032,8.0032,8.0032,8.0032,8.0032,8.0032,8.007,8.0335,8.0791,8.1398,8.2499,8.3259,8.3866,8.4663,8.4967,8.4967,8.4967,8.4967,8.4967,8.4967,8.4967,8.4967,8.4967,8.4967,8.4967,8.4967,8.4967,8.4967,8.4967,8.4967,8.4967,8.4967,8.4967,8.4967,8.4967,8.4967,8.4967,8.4967,8.4967,8.4967,8.4967,8.8316,9.2615,9.6559,10.081,10.4726,10.8663,10.928,10.928,10.928,10.8304,10.8109,10.9183,10.7572,10.7426,10.9183,10.8597,10.8548,10.9232,10.928,10.928,10.928,10.928,10.928,10.928,10.928,10.928,4.8694,4.9317,4.9966,5.1525,5.2615,5.3368,5.355,5.3732,5.394,5.4329,0.0,0.0,0.0,0.0,0.0,0.0,0.0,0.0,0.0,0.0,0.0,0.0,0.0,0.0,0.0,0.0,0.0,0.0,0.0,8.0032,8.0032,8.0032,8.0032,8.0032,8.0032,8.0032,8.0032,8.0032,8.0032,8.0032,8.0032,8.0032,8.0032,8.0032,8.0032,8.0032,8.0032,8.0032,8.0032,8.0032,8.0032,8.0032,8.0032,8.0373,8.0905,8.174,8.2575,8.341,8.4246,8.4701,8.4967,8.4967,8.4967,8.4967,8.4967,8.4967,8.4967,8.4967,8.4967,8.4967,8.4967,8.4967,8.4967,8.4967,8.4967,8.4967,8.4967,8.4967,8.4967,8.4967,8.4967,8.4967,8.4967,8.6171,8.7127,8.7127,9.1994,9.6255,9.8973,10.2925,10.6223,10.8947,10.928,10.928,10.928,10.7914,10.7572,10.8646,10.7035,10.684,10.8646,10.8402,10.8548,10.9232,10.928,10.928,10.928,10.928,10.928,10.928,10.928,10.928,4.9161,4.9681,5.0278,5.2537,5.3472,5.3992,5.4537,5.4225,5.381,5.381,0.0,0.0,0.0,0.0,0.0,0.0,0.0,0.0,0.0,0.0,0.0,0.0,0.0,0.0,0.0,0.0,0.0,0.0,8.0032,8.0032,8.0032,8.0032,8.0032,8.0032,8.0032,8.0032,8.0032,8.0032,8.0032,8.0032,8.0032,8.0032,8.0032,8.0032,8.0032,8.0032,8.0032,8.0032,8.0032,8.0032,8.0032,8.0032,8.0032,8.0032,8.0145,8.0943,8.174,8.2537,8.3373,8.4208,8.4891,8.4891,8.4929,8.4967,8.4967,8.4967,8.4967,8.4967,8.4967,8.4967,8.4967,8.4967,8.4967,8.4967,8.4967,8.4967,8.4967,8.4967,8.4967,8.4967,8.4967,8.4967,8.525,8.8316,9.1102,9.1454,9.8071,10.3218,10.3218,10.6847,10.928,10.928,10.928,10.928,10.928,10.7328,10.6596,10.767,10.6694,10.6596,10.7719,10.8695,10.9183,10.928,10.928,10.928,10.928,10.928,10.928,10.928,10.928,10.928,4.9655,5.0849,5.194,5.381,5.4044,5.3888,5.4018,5.3628,5.3213,0.0,0.0,0.0,0.0,0.0,0.0,0.0,0.0,0.0,0.0,0.0,0.0,0.0,0.0,0.0,0.0,0.0,0.0,0.0,8.0032,8.0032,8.0032,8.0032,8.0032,8.0032,8.0032,8.0032,8.0032,8.0032,8.0032,8.0032,8.0032,8.0032,8.0032,8.0032,8.0032,8.0032,8.0032,8.0032,8.0032,8.0032,8.0032,8.0032,8.0032,8.0032,8.0145,8.0943,8.1398,8.1702,8.2499,8.3335,8.4056,8.4056,8.4474,8.4967,8.4967,8.4967,8.4967,8.4967,8.4967,8.4967,8.4967,8.4967,8.4967,8.4967,8.4967,8.4967,8.4967,8.4967,8.4967,8.4967,8.4967,8.589,8.8947,9.0164,9.1994,9.5078,9.9916,10.3218,10.3218,10.6847,10.928,10.928,10.928,10.928,10.928,10.8011,10.7719,10.8792,10.7084,10.6889,10.8792,10.8353,10.8451,10.9232,10.928,10.928,10.928,10.928,10.928,10.928,10.928,10.928,4.9109,5.033,5.181,5.3524,5.3706,5.3472,5.3472,5.3031,5.3246,5.4763,5.9931,0.0,0.0,0.0,0.0,0.0,0.0,0.0,8.0032,8.0032,0.0,0.0,0.0,0.0,0.0,0.0,0.0,0.0,8.0032,8.0032,8.0032,8.0032,8.0032,8.0032,8.0032,8.0032,8.0032,8.0032,8.0032,8.0032,8.0032,8.0032,8.0032,8.0032,8.0032,8.0032,8.0032,8.0032,8.0032,8.0032,8.0032,8.0032,8.0032,8.0032,8.0107,8.0525,8.0943,8.1322,8.1778,8.2461,8.3259,8.36,8.4056,8.4474,8.4853,8.4967,8.4967,8.4967,8.4967,8.4967,8.4967,8.4967,8.4967,8.4967,8.4967,8.4967,8.4967,8.4967,8.4967,8.4967,8.4967,8.6171,9.0164,9.2615,9.5035,9.9273,10.3218,10.5934,10.5934,10.7757,10.928,10.928,10.928,10.928,10.928,10.8304,10.7914,10.8548,10.7426,10.7328,10.8499,10.8451,10.8646,10.9232,10.928,10.928,10.928,10.928,10.928,10.928,10.928,10.928,4.8746,4.99,5.1948,5.3534,5.3877,5.3508,5.3192,5.28,5.3938,5.7167,6.4448,7.0803,0.0,0.0,0.0,0.0,0.0,0.0,8.0032,8.0032,8.0032,0.0,0.0,0.0,0.0,0.0,0.0,0.0,8.0032,8.0032,8.0032,8.0032,8.0032,8.0032,8.0032,8.0032,8.0032,8.0032,8.0032,8.0032,8.0032,8.0032,8.0032,8.0032,8.0032,8.0032,8.0032,8.0032,8.0032,8.0032,8.0032,8.0032,8.0032,8.0032,8.0032,8.0032,8.0487,8.1095,8.1095,8.1626,8.2423,8.3183,8.3562,8.3866,8.4587,8.4853,8.4967,8.4967,8.4967,8.4967,8.4967,8.4967,8.4967,8.4967,8.4967,8.4967,8.4967,8.4967,8.4967,8.4967,8.525,8.6809,9.0477,9.4729,9.9318,10.3511,10.7135,10.928,10.928,10.928,10.928,10.928,10.928,10.9183,10.9085,10.8353,10.7816,10.767,10.7816,10.7865,10.7865,10.8792,10.928,10.928,10.928,10.928,10.928,10.928,10.928,10.928,10.928,10.928,5.1654,5.4395,5.686,5.7714,5.7514,5.6246,5.2904,5.464,5.7139,5.7202,6.4424,7.1687,7.5833,0.0,0.0,0.0,0.0,8.0032,8.0032,8.0032,8.0032,8.0032,0.0,0.0,0.0,0.0,0.0,0.0,0.0,8.0032,8.0032,8.0032,8.0032,8.0032,8.0032,8.0032,8.0032,8.0032,8.0032,8.0032,8.0032,8.0032,8.0032,8.0032,8.0032,8.0032,8.0032,8.0032,8.0032,8.0032,8.0032,8.0032,8.0032,8.0032,8.0032,8.0032,8.0107,8.0259,8.0259,8.0791,8.1474,8.1626,8.2613,8.3752,8.3904,8.4436,8.4967,8.4967,8.4967,8.4967,8.4967,8.4967,8.4967,8.4967,8.4967,8.4967,8.4967,8.4967,8.4967,8.4967,8.7722,9.0164,9.0789,9.7165,10.3511,10.747,10.8663,10.928,10.928,10.928,10.928,10.928,10.928,10.889,10.8011,10.8597,10.8597,10.7719,10.8499,10.8988,10.8988,10.9183,10.928,10.928,10.928,10.928,10.928,10.928,10.928,10.928,10.928,10.928,5.0745,5.2718,5.4711,5.4683,5.4683,5.5017,5.7404,5.7708,5.8714,6.2148,6.8478,7.4394,7.7081,7.8209,0.0,0.0,0.0,0.0,8.0032,8.0032,8.0032,8.0032,8.0032,0.0,0.0,0.0,0.0,0.0,0.0,8.0032,8.0032,8.0032,8.0032,8.0032,8.0032,8.0032,8.0032,8.0032,8.0032,8.0032,8.0032,8.0032,8.0032,8.0032,8.0032,8.0032,8.0032,8.0032,8.0032,8.0032,8.0032,8.0032,8.0032,8.0032,8.0032,8.0032,8.0032,8.0032,8.0032,8.0297,8.0677,8.1133,8.2082,8.3145,8.36,8.4322,8.4967,8.4967,8.4967,8.4967,8.4967,8.4967,8.4967,8.4967,8.4967,8.4967,8.4967,8.4967,8.557,8.7722,8.9175,9.0676,9.3093,9.7776,10.2799,10.7012,10.806,10.8451,10.8451,10.8939,10.928,10.928,10.8792,10.8207,10.7719,10.8158,10.8207,10.7719,10.8695,10.928,10.928,10.928,10.928,10.928,10.928,10.928,10.928,10.928,10.928,10.928,10.928,11.0314,4.9966,5.1143,5.2905,5.347,5.3719,5.5261,6.1484,6.1281,6.1515,6.7978,7.3101,7.6463,7.7374,7.8209,7.9044,0.0,0.0,0.0,8.0032,8.0032,8.0032,8.0032,8.0032,8.0032,0.0,0.0,0.0,0.0,0.0,0.0,8.0032,8.0032,8.0032,8.0032,8.0032,8.0032,8.0032,8.0032,8.0032,8.0032,8.0032,8.0032,8.0032,8.0032,8.0032,8.0032,8.0032,8.0032,8.0032,8.0032,8.0032,8.0032,8.0032,8.0032,8.0032,8.0032,8.0032,8.0032,8.0032,8.0032,8.0145,8.0791,8.1664,8.2613,8.3259,8.417,8.4967,8.4967,8.4967,8.4967,8.4967,8.4967,8.4929,8.4739,8.4701,8.4945,8.5353,8.567,8.6858,9.0799,9.1758,9.2814,9.628,9.933,10.2572,10.6075,10.7133,10.7767,10.7963,10.8743,10.928,10.928,10.8499,10.7914,10.767,10.7865,10.7914,10.767,10.8695,10.928,10.928,10.928,10.928,10.928,10.928,10.928,10.928,10.928,10.9515,11.0314,11.0314,11.2173,5.2382,5.5088,5.8538,6.2722,6.2378,6.1348,6.1931,6.5008,6.9289,7.3375,7.5266,7.6463,7.7374,7.8209,7.9044,7.988,8.0032,8.0032,8.0032,8.0032,8.0032,8.0032,8.0032,8.0032,8.0032,0.0,0.0,0.0,0.0,0.0,0.0,8.0032,8.0032,8.0032,8.0032,8.0032,8.0032,8.0032,8.0032,8.0032,8.0032,8.0032,8.0032,8.0032,8.0032,8.0032,8.0032,8.0032,8.0032,8.0032,8.0032,8.0032,8.0032,8.0032,8.0032,8.0032,8.0032,8.0032,8.0032,8.0032,8.0032,8.0107,8.1208,8.2499,8.2575,8.3676,8.4967,8.4967,8.4967,8.4967,8.4967,8.4967,8.4777,8.4018,8.3828,8.4546,8.7371,8.8086,8.8957,9.2777,9.6514,9.939,10.093,10.3517,10.6075,10.7377,10.7621,10.8011,10.8988,10.9183,10.928,10.928,10.9183,10.8743,10.7767,10.8548,10.8695,10.7719,10.8695,10.928,10.928,10.928,10.928,10.928,10.928,10.928,10.928,10.928,11.0827,11.4003,11.4003,11.5802,4.9992,5.1428,5.3227,5.4856,5.6877,5.8617,5.8617,6.517,7.2014,7.4472,7.6083,7.7108,7.7488,7.8627,7.9462,7.931,7.969,8.0032,8.0032,8.0032,8.0032,8.0032,8.0032,8.0032,8.0032,8.0032,0.0,0.0,0.0,0.0,0.0,8.0032,8.0032,8.0032,8.0032,8.0032,8.0032,8.0032,8.0032,8.0032,8.0032,8.0032,8.0032,8.0032,8.0032,8.0032,8.0032,8.0032,8.0032,8.0032,8.0032,8.0032,8.0032,8.0032,8.0032,8.0032,8.0032,8.0032,8.0032,8.0032,8.0032,8.0032,8.1133,8.2461,8.2461,8.3297,8.4322,8.4815,8.4587,8.4322,8.4815,8.4967,8.4739,8.3942,8.5566,8.7434,8.8046,8.9917,9.2816,9.6627,9.8145,10.0132,10.3843,10.4614,10.5425,10.6547,10.6694,10.7084,10.8158,10.889,10.928,10.928,10.8695,10.8109,10.7719,10.806,10.8109,10.767,10.8695,10.928,10.928,10.928,10.928,10.928,10.928,10.928,10.928,11.1387,11.323,11.4498,11.6609,11.9471,5.0306,5.0683,5.1838,5.3874,5.5908,5.8133,6.0835,6.6435,7.1789,7.4358,7.5931,7.6956,7.745,7.8513,7.9196,7.8817,7.9462,8.0032,8.0032,8.0032,8.0032,8.0032,8.0032,8.0032,8.0032,8.0032,8.0032,0.0,0.0,0.0,0.0,8.0032,8.0032,8.0032,8.0032,8.0032,8.0032,8.0032,8.0032,8.0032,8.0032,8.0032,8.0032,8.0032,8.0032,8.0032,8.0032,8.0032,8.0032,8.0032,8.0032,8.0032,8.0032,8.0032,8.0032,8.0032,8.0032,8.0032,8.0032,8.0032,8.0032,8.0032,8.0981,8.2158,8.2385,8.3069,8.3904,8.4739,8.4549,8.4246,8.4815,8.4967,8.4983,8.5136,8.7275,8.9366,9.0528,9.288,9.6111,10.0507,10.0554,10.1621,10.5701,10.562,10.5278,10.6401,10.6547,10.6791,10.7572,10.8597,10.928,10.928,10.8597,10.8158,10.8158,10.8158,10.8158,10.8158,10.8841,10.928,10.928,10.8988,10.8939,10.928,10.928,10.9799,11.0827,11.3179,11.5584,11.7624,12.0253,12.3134,5.5063,5.5063,5.7249,6.5355,6.3593,6.2611,7.1606,7.0195,6.8617,7.4038,7.4982,7.5552,7.7222,7.7564,7.783,7.8627,7.9462,8.0032,8.0032,8.0032,8.0032,8.0032,8.0032,8.0032,8.0032,8.0032,8.0032,8.0032,8.0032,8.0032,0.0,8.0032,8.0032,8.0032,8.0032,8.0032,8.0032,8.0032,8.0032,8.0032,8.0032,8.0032,8.0032,8.0032,8.0032,8.0032,8.0032,8.0032,8.0032,8.0032,8.0032,8.0032,8.0032,8.0032,8.0032,8.0032,8.0032,8.0032,8.0032,8.0032,8.0032,8.0032,8.0601,8.1436,8.2234,8.3069,8.3904,8.4739,8.4929,8.4929,8.4967,8.4967,8.5468,8.7677,8.8187,9.0017,9.5906,9.7163,9.8591,10.3341,10.44,10.5083,10.7279,10.6742,10.6401,10.7474,10.767,10.767,10.767,10.8597,10.928,10.928,10.928,10.9232,10.9232,10.9232,10.9232,10.9232,10.928,10.928,10.928,10.8255,10.8158,10.9232,10.928,11.0827,11.4498,11.4498,11.8155,12.4953,12.4953,12.68,5.7938,5.8973,6.0048,6.3379,6.2535,6.3343,7.2422,7.3492,7.304,7.5304,7.5817,7.6159,7.7336,7.8475,7.9158,7.8817,7.9462,8.0032,8.0032,8.0032,8.0032,8.0032,8.0032,8.0032,8.0032,8.0032,8.0032,8.0032,8.0032,8.0032,8.0032,8.0032,8.0032,8.0032,8.0032,8.0032,8.0032,8.0032,8.0032,8.0032,8.0032,8.0032,8.0032,8.0032,8.0032,8.0032,8.0032,8.0032,8.0032,8.0032,8.0032,8.0032,8.0032,8.0032,8.0032,8.0032,8.0032,8.0032,8.0032,8.0032,8.0032,8.0032,8.0601,8.1284,8.155,8.2234,8.3031,8.3866,8.4132,8.5477,9.1829,9.3233,9.3206,9.3501,9.477,9.6738,9.877,10.0688,10.2795,10.5053,10.5522,10.601,10.7426,10.7377,10.7523,10.8597,10.8743,10.8743,10.8743,10.9085,10.928,10.928,10.928,10.928,10.928,10.928,10.928,10.928,10.8597,10.8499,10.9232,10.8939,10.8597,10.8158,11.1267,11.3098,11.3369,11.9096,12.288,12.4953,12.7348,12.9161,6.1999,6.3377,6.4413,6.6349,6.6186,6.7142,7.3435,7.4261,7.3805,7.464,7.5286,7.5931,7.6463,7.8209,7.9386,7.8855,7.9462,8.0032,8.0032,8.0032,8.0032,8.0032,8.0032,8.0032,8.0032,8.0032,8.0032,8.0032,8.0032,8.0032,8.0032,8.0032,8.0032,8.0032,8.0032,8.0032,8.0032,8.0032,8.0032,8.0032,8.0032,8.0032,8.0032,8.0032,8.0032,8.0032,8.0032,8.0032,8.0032,8.0032,8.0032,8.0032,8.0032,8.0032,8.0032,8.0032,8.0032,8.0032,8.0032,8.0032,8.0032,8.0032,8.0373,8.0867,8.1171,8.3011,8.502,8.588,8.7288,9.0098,9.5822,9.7165,9.7249,9.7776,9.9404,10.0916,10.2291,10.3771,10.5376,10.645,10.6694,10.6986,10.806,10.8255,10.8499,10.9183,10.928,10.928,10.928,10.928,10.928,10.928,10.928,10.928,10.928,10.889,10.8841,10.9232,10.7865,10.7719,10.9183,10.889,10.9063,11.0341,11.3098,11.5491,11.7618,12.2495,12.5756,12.7046,12.9161,13.0235,6.7384,6.8766,6.9368,7.2967,7.3426,7.335,7.483,7.335,7.1869,7.2628,7.3957,7.502,7.5058,7.707,7.8741,7.8855,7.9538,8.0032,8.0032,8.0032,8.0032,8.0032,8.0032,8.0032,8.0032,8.0032,8.0032,8.0032,8.0032,8.0032,8.0032,8.0032,8.0032,8.0032,8.0032,8.0032,8.0032,8.0032,8.0032,8.0032,8.0032,8.0032,8.0032,8.0032,8.0032,8.0032,8.0032,8.0032,8.0032,8.0032,8.0032,8.0032,8.0032,8.0032,8.0032,8.0032,8.0032,8.0032,8.0032,8.0032,8.0032,8.0296,8.0597,8.075,8.182,8.5299,8.9178,8.9958,9.3964,9.8071,9.8071,9.8071,9.8752,10.1435,10.2074,10.2945,10.5617,10.6254,10.6498,10.7572,10.7767,10.8109,10.9085,10.928,10.928,10.928,10.928,10.928,10.928,10.928,10.928,10.928,10.9183,10.9183,10.928,10.8304,10.8109,10.9085,10.7279,10.7084,10.9183,10.8586,11.0014,11.4395,11.4991,11.8366,12.4841,12.5202,12.7046,13.0235,13.0235,13.0235,7.1158,7.2257,7.2874,7.5001,7.6463,7.7222,7.6994,7.5969,7.5096,7.5286,7.5134,7.5172,7.5817,7.6956,7.8247,7.9538,7.9918,8.0032,8.0032,8.0032,8.0032,8.0032,8.0032,8.0032,8.0032,8.0032,8.0032,8.0032,8.0032,8.0032,8.0032,8.0032,8.0032,8.0032,8.0032,8.0032,8.0032,8.0032,8.0032,8.0032,8.0032,8.0032,8.0032,8.0032,8.0032,8.0032,8.0032,8.0032,8.0032,8.0032,8.0032,8.0032,8.0032,8.0032,8.0032,8.0032,8.0032,8.0032,8.0032,8.0032,8.0597,8.3434,8.4284,8.4915,8.797,9.0946,9.2859,9.3074,9.9702,10.6559,10.6559,10.6559,10.6464,10.742,10.6745,10.6642,10.812,10.7865,10.7621,10.8695,10.889,10.8988,10.9232,10.928,10.928,10.928,10.928,10.928,10.928,10.928,10.928,10.928,10.8548,10.8353,10.9183,10.8304,10.7767,10.8011,10.7572,10.7865,10.9232,11.1645,11.3067,11.3216,11.9303,12.2945,12.38,12.7378,12.9402,13.0235,13.0235,13.0235,7.3472,7.5172,7.4905,7.3219,7.3334,7.3628,7.3188,7.3921,7.4489,7.4489,7.4451,7.4754,7.5969,7.6615,7.7488,7.9196,7.9462,7.9576,7.9994,8.0032,8.0032,8.0032,8.0032,8.0032,8.0032,8.0032,8.0032,8.0032,8.0032,8.0032,8.0032,8.0032,8.0032,8.0032,8.0032,8.0032,8.0032,8.0032,8.0032,8.0032,8.0032,8.0032,8.0032,8.0032,8.0032,8.0032,0.0,8.0032,8.0032,8.0032,8.0032,8.0032,8.0032,8.0032,8.0032,8.0032,8.0032,8.0032,8.0032,8.0032,8.0597,8.4579,8.5716,8.6554,9.0274,9.3919,9.6961,9.6961,10.2144,10.7767,10.7767,10.7767,10.7914,10.8402,10.806,10.7963,10.9036,10.8792,10.8597,10.9134,10.928,10.928,10.928,10.928,10.928,10.928,10.928,10.928,10.928,10.928,10.928,10.928,10.8304,10.7914,10.8499,10.7572,10.6938,10.6938,10.6938,10.8212,11.0817,11.32,11.5812,11.856,12.2803,12.5418,12.6564,12.9112,13.0235,13.0235,13.0235,13.0235,7.4018,7.5744,7.5168,7.0434,6.872,6.8264,6.9121,7.1158,7.2894,7.2894,7.3426,7.4337,7.5741,7.6235,7.688,7.8361,7.8779,7.9234,7.9918,8.0032,8.0032,8.0032,8.0032,8.0032,8.0032,8.0032,8.0032,8.0032,8.0032,8.0032,8.0032,8.0032,8.0032,8.0032,8.0032,8.0032,8.0032,8.0032,8.0032,8.0032,8.0032,8.0334,8.0899,8.0899,8.0899,8.0899,0.0,8.0899,8.0899,8.0334,8.0334,8.0899,8.0334,8.0032,8.0032,8.0032,8.0032,8.0032,8.0899,8.1461,8.2321,8.6302,8.7428,8.8299,9.1985,9.6724,10.0787,10.0787,10.355,10.6059,10.6059,10.6059,10.6303,10.7182,10.7426,10.7719,10.8792,10.889,10.889,10.9183,10.8988,10.889,10.9183,10.9134,10.9085,10.9232,10.928,10.928,10.928,10.9134,10.9036,10.9036,10.7914,10.723,10.7426,10.645,10.5815,10.5815,10.6315,10.8348,11.2549,11.4166,11.826,12.4953,12.5507,12.7348,13.0235,13.0235,13.0235,13.0235,13.0235,13.0235,7.0945,7.0683,7.1286,7.0416,6.9982,7.0789,7.4018,7.4888,7.4602,7.4602,7.4716,7.4868,7.5134,7.6387,7.7412,7.7678,7.8931,7.988,8.0032,8.0032,8.0032,8.0032,8.0032,8.0032,8.0032,8.0032,8.0032,8.0032,8.0032,8.0032,8.0032,8.0032,8.0032,8.0032,8.0032,8.0032,8.0032,8.0032,8.0032,8.0032,8.0032,8.1762,8.4874,8.4874,8.4874,8.4874,0.0,0.0,8.4579,8.1461,8.2022,8.4579,8.1461,8.0032,8.0032,8.0032,8.0032,8.0597,8.3731,8.6887,9.0274,9.4288,9.5406,9.6286,9.9997,10.2265,10.3777,10.3777,10.5053,10.6059,10.6059,10.6059,10.6108,10.6254,10.6303,10.6596,10.767,10.7182,10.7084,10.889,10.7816,10.7133,10.8939,10.8499,10.8207,10.9134,10.928,10.928,10.928,10.8451,10.7914,10.7914,10.6108,10.5278,10.6205,10.5278,10.4644,10.4644,10.7455,10.9765,11.1103,11.5044,11.9743,12.4953,12.7836,12.9699,13.0235,13.0235,13.0235,13.0235,13.0235,13.0235,7.019,6.9631,6.9863,6.7059,6.81,7.0179,7.1955,7.3747,7.4982,7.4982,7.4982,7.5248,7.6197,7.6615,7.7108,7.8057,7.8855,7.9348,7.9348,7.9766,8.0032,8.0032,8.0032,8.0032,8.0032,8.0032,8.0032,8.0032,8.0032,8.0032,8.0032,8.0032,8.0032,8.0032,8.0032,8.0032,8.0032,8.0032,8.12,8.3177,8.3177,8.5169,8.8878,8.8878,8.8878,8.8878,8.8878,8.8878,8.8589,8.6887,8.7137,8.8589,8.6887,8.6302,8.6302,8.6302,8.6302,8.6302,8.8299,8.9987,9.1985,9.6008,9.7117,9.799,10.1716,10.357,10.4253,10.3716,10.479,10.5815,10.4644,10.4741,10.5181,10.5181,10.5181,10.5473,10.6547,10.6401,10.6352,10.7328,10.6742,10.6401,10.7377,10.7621,10.7816,10.8304,10.889,10.928,10.928,10.8304,10.767,10.767,10.5717,10.4595,10.5132,10.4204,10.4326,10.6038,10.751,10.9785,11.2733,11.6568,12.0264,12.3945,12.8035,13.0235,13.0235,13.0235,13.0235,13.0235,13.0235,13.0235,7.0475,0.0,6.9777,6.6206,6.7376,6.9606,0.0,7.3027,7.4982,7.4982,7.4982,7.54,7.6691,7.6729,7.6956,7.8285,7.8817,7.9082,7.9082,7.9614,8.0032,8.0032,8.0032,8.0032,8.0032,8.0032,8.0032,8.0032,8.0032,8.0032,8.0032,8.0032,8.0032,8.0032,8.0899,8.1762,8.262,8.262,8.4324,8.7137,8.7137,8.9124,9.2879,9.2879,9.2879,9.2879,9.2879,9.2879,9.2552,9.1701,9.1985,9.2552,9.1701,9.1416,9.1416,9.1416,9.1416,9.1416,9.2269,9.2879,9.3444,9.7117,9.8585,9.9132,10.2033,10.357,10.4302,10.3765,10.479,10.562,10.3716,10.3814,10.4302,10.4107,10.4009,10.4351,10.5425,10.5473,10.5473,10.5961,10.5669,10.5473,10.5961,10.6498,10.6986,10.723,10.8207,10.889,10.889,10.7963,10.7279,10.7279,10.5327,10.4009,10.4009,10.408,10.5337,10.8748,10.971,11.1585,11.5032,11.858,12.1728,12.369,12.7825,12.9886,13.0235,13.0235,13.0235,13.0235,13.0235,13.0235,0.0,7.0718,7.1279,7.0911,7.0683,7.1366,7.4893,7.5228,0.0,7.4982,7.4982,7.502,7.5134,7.6425,7.7488,7.7602,7.8931,7.9956,7.9956,7.9994,8.0032,8.0032,8.0032,8.0032,8.0032,8.0032,8.0032,8.0032,8.0032,8.0032,8.0032,8.0032,8.0032,8.0032,8.3434,8.7137,9.056,9.056,9.056,9.0846,9.0846,9.2835,9.684,9.684,9.684,0.0,9.684,9.684,9.6563,9.2835,9.3444,9.6286,9.2835,9.1416,9.1416,9.1416,9.1416,9.1985,9.5406,9.684,9.7439,10.1177,10.2302,10.257,10.2887,10.357,10.4595,10.5571,10.5961,10.5815,10.4595,10.4351,10.4156,10.3228,10.2984,10.3277,10.4302,10.3765,10.3716,10.5669,10.4448,10.3716,10.5717,10.5278,10.4985,10.601,10.7084,10.7767,10.7767,10.684,10.6205,10.6205,10.4253,10.2984,10.2984,10.5598,10.8748,11.2259,11.513,11.7092,11.7439,12.1775,12.4829,12.6048,12.7558,12.9014,13.0235,13.0235,13.0235,13.0235,13.0235,13.0235,7.158,7.2634,7.4508,7.0745,7.1484,7.3684,7.5152,7.521,7.4982,7.4982,7.4982,7.5324,7.6387,7.7108,7.7905,7.8931,7.9614,8.0032,8.0032,8.0032,8.0032,8.0032,8.2022,8.2581,8.0334,8.2321,8.2581,8.0334,8.0032,8.0032,8.0032,8.0032,8.2321,8.6887,8.8589,8.9987,9.1416,9.1416,9.2552,9.5127,9.5127,9.684,10.0588,10.0588,10.0588,10.0588,10.0588,10.0588,0.0,9.9132,9.9453,10.0588,9.9132,9.8585,9.8585,9.8585,9.8585,9.8585,10.0269,10.0588,10.0858,10.2302,10.2887,10.2887,10.2887,10.357,10.4644,10.5766,10.7035,10.767,10.5913,10.5425,10.5181,10.4058,10.3326,10.2984,10.3375,10.3131,10.3131,10.3912,10.3423,10.3131,10.396,10.4253,10.4546,10.4985,10.6547,10.7426,10.6742,10.6303,10.5815,10.5083,10.3716,10.3588,10.5809,10.9003,11.2206,11.561,11.6855,11.8555,12.0572,12.2286,12.4244,12.6338,12.6862,12.8141,13.0235,13.0235,13.0235,13.0235,13.0235,13.0235,7.3808,7.5355,7.7052,7.3117,7.3655,7.5362,7.5362,7.5362,7.5362,7.5362,7.5362,7.5817,7.7298,7.7564,7.8019,7.9424,7.9842,8.0032,8.0032,8.0032,8.0032,8.0032,8.3434,8.4579,8.2022,8.4284,8.4579,8.2022,8.0899,8.0597,8.1723,8.1723,8.5463,9.2879,9.3162,9.3726,9.4848,9.4848,9.6286,9.8859,9.8859,10.0316,10.2887,10.2887,10.2887,10.2887,10.2887,10.2887,10.2887,10.2887,10.2887,10.2887,10.2887,10.2887,10.2887,10.2887,10.2887,10.2887,10.2887,10.2887,10.2887,10.2887,10.2887,10.2887,10.2887,10.357,10.4546,10.5327,10.684,10.7816,10.601,10.5522,10.5278,10.4156,10.3375,10.2887,10.2887,10.2887,10.2887,10.2887,10.2887,10.2887,10.2887,10.3472,10.3912,10.3912,10.5473,10.6352,10.562,10.5522,10.5229,10.4448,10.4446,10.602,11.0411,11.2944,11.5665,11.9076,11.9308,12.0343,12.2615,12.2964,12.4186,12.6338,12.6803,12.8083,13.0235,13.0235,13.0235,13.0235,13.0235,13.0235,7.8513,7.8741,7.8741,7.8741,7.745,7.6197,7.6197,7.6197,7.6197,7.6197,7.6197,7.6501,7.7374,7.7564,7.783,7.8665,7.95,8.0032,8.0032,8.0032,8.0032,8.0334,8.3434,8.5716,8.5716,8.5716,8.5716,8.5716,8.2321,0.0,8.5716,8.5716,8.9412,9.7117,9.7117,9.9132,10.2887,10.2887,10.2887,10.2887,10.2887,10.2887,10.2887,10.2887,10.2887,10.2887,10.2887,10.2887,0.0,10.2887,10.2887,10.2887,10.2887,10.2887,10.2887,10.2887,10.2887,10.2887,10.2887,10.2887,10.2887,10.2887,10.2887,10.2887,10.2887,10.357,10.44,10.44,10.5181,10.5815,10.4692,10.44,10.4156,10.3131,10.2887,10.2887,10.2887,10.2887,10.2887,10.2887,10.2887,10.2887,10.2887,10.2887,10.2887,10.2887,10.3716,10.44,10.4351,10.44,10.44,10.4351,10.6413,11.0411,11.7092,11.7563,11.9076,12.2333,12.2615,12.2615,12.2615,12.3779,12.5058,12.6396,12.7676,12.8956,13.0235,13.0235,13.0235,13.0235,13.0235,13.0235,7.688,7.6956,7.6842,7.6235,7.5703,7.5362,7.5362,7.5779,7.6045,7.5476,7.6311,7.7222,7.7488,7.8019,7.8703,7.9538,7.988,8.0899,8.3731,8.1723,8.2022,8.747,8.6554,8.7719,9.3118,9.1416,8.97,8.97,8.8589,8.8589,8.97,9.2269,9.6008,10.0858,10.1177,10.1716,10.2887,10.2887,10.2887,10.2887,10.2887,10.2887,10.2887,10.2887,10.2887,10.2887,10.2887,10.2887,0.0,10.2887,10.2887,10.2887,10.2887,10.2887,10.2887,10.2887,10.2887,10.2887,10.2887,10.2887,10.2887,10.2887,10.2887,10.2887,10.2887,10.357,10.44,10.44,10.5181,10.601,10.5669,10.4985,10.4302,10.4009,10.3375,10.2887,10.2887,10.2887,10.2887,10.2887,10.2887,10.2887,10.2887,10.2887,10.2887,10.2887,10.3716,10.4107,10.3423,10.396,10.5136,10.6574,11.1373,11.537,11.7328,11.9826,12.1597,12.2615,12.2615,12.2615,12.2615,12.3779,12.5058,12.6396,12.7676,12.8956,13.0235,13.0235,13.0235,13.0235,13.0235,13.0235,7.6653,7.6463,7.6083,7.559,7.521,7.4982,7.4982,7.5628,7.6159,7.6045,7.6842,7.7754,7.8437,7.8665,7.9044,7.988,8.0032,8.1461,8.5128,8.3731,8.4579,9.056,9.0846,9.1985,9.684,9.6286,9.5406,9.3726,9.2269,9.2552,9.573,9.8264,10.0588,10.2887,10.2887,10.2887,10.2887,10.2887,10.2887,10.2887,10.2887,10.2887,10.2887,10.2887,10.2887,10.2887,10.2887,10.2887,0.0,10.2887,10.2887,10.2887,10.2887,10.2887,10.2887,10.2887,10.2887,10.2887,10.2887,10.2887,10.2887,10.2887,10.2887,10.2887,10.2887,10.3326,10.3765,10.3765,10.4253,10.479,10.479,10.4302,10.3765,10.3765,10.3326,10.2887,10.2887,10.2887,10.2887,10.2887,10.2887,10.2887,10.2887,10.2887,10.2887,10.2887,10.3375,10.4058,10.4648,10.536,10.6776,10.9308,11.4352,11.8088,11.9596,12.1597,12.2615,12.2615,12.2615,12.2615,12.2615,12.4302,12.5582,12.6396,12.8141,12.9479,13.0235,13.0235,13.0235,13.0235,13.0235,13.0889,7.7108,7.6729,7.6083,7.6083,7.5552,7.4982,7.4982,7.5628,7.6425,7.7146,7.7488,7.8095,7.9424,7.9457,7.9603,8.0368,8.0783,8.2204,8.6138,8.643,8.7594,9.1854,9.4991,9.73,9.7668,10.0858,10.1447,9.799,9.4288,9.5406,10.257,10.2887,10.2887,10.2887,10.2887,10.2887,10.2887,10.2887,10.2887,10.2887,10.2887,10.2887,10.2887,10.2887,10.2887,10.2887,10.2887,10.2887,0.0,10.2887,10.2887,10.2887,10.2887,10.2887,10.2887,10.2887,10.2887,10.2887,10.2887,10.2887,10.2887,10.2887,10.2887,10.2887,10.2887,10.2887,10.2887,10.2887,10.2887,10.2887,10.2887,10.2887,10.2887,10.2887,10.2887,10.2887,10.2887,10.2887,10.2887,10.2887,10.2887,10.2887,10.2887,10.2887,10.2887,10.3105,10.3372,10.4598,10.7727,10.8239,10.9509,11.3243,11.6381,11.9308,12.2391,12.2615,12.2615,12.2615,12.2615,12.2615,12.2615,12.5058,12.6396,12.6396,12.8897,13.0235,13.0235,13.0235,13.0235,13.0235,13.0415,13.1946,7.5476,7.54,7.5248,7.5248,7.5096,7.4982,7.4982,7.5628,7.6083,7.5628,7.7108,7.8209,7.7222,8.0209,8.3041,8.3533,8.5812,8.9198,9.2798,9.0846,9.145,9.8224,9.7049,9.7376,10.135,10.2302,10.257,10.1716,10.0858,10.1177,10.2619,10.2887,10.2887,10.2887,10.2887,10.2887,10.2887,10.2887,10.2887,10.2887,10.2887,10.2887,10.2887,10.2887,10.2887,10.2887,10.2887,10.2887,10.2887,10.2887,10.2887,10.2887,10.2887,10.2887,10.2887,10.2887,10.2887,10.2887,10.2887,10.2887,10.2887,10.2887,10.2887,10.2887,10.2887,10.2887,10.2887,10.2887,10.2887,10.2887,10.2887,10.2887,10.2887,10.2887,10.2887,10.2887,10.2887,10.2887,10.2887,10.2887,10.2887,10.2887,10.2887,10.2887,10.3588,10.628,10.6747,10.7778,11.1214,11.1764,11.3975,11.9883,12.1143,12.1824,12.2615,12.2615,12.2615,12.2615,12.2615,12.2615,12.2615,12.5058,12.6396,12.6396,12.8897,13.0235,13.0235,13.0235,13.0235,13.0235,13.2583,13.3898,7.4261,7.4375,7.4489,7.4868,7.4982,7.4982,7.4982,7.5324,7.559,7.559,7.6615,7.8073,7.9951,8.1998,8.4413,8.6585,8.8229,9.0436,9.4265,9.2908,9.4041,9.9923,9.9255,9.9202,10.1791,10.2594,10.2887,10.2887,10.2887,10.2887,10.2887,10.2887,10.2887,10.2887,10.2887,10.2887,10.2887,10.2887,10.2887,10.2887,10.2887,10.2887,10.2887,10.2887,10.2887,10.2887,10.2887,10.2887,10.2887,10.2887,10.2887,10.2887,10.2887,10.2887,10.2887,10.2887,10.2887,10.2887,10.2887,10.2887,10.2887,10.2887,10.2887,10.2887,10.2887,10.2887,10.2887,10.2887,10.2887,10.2887,10.2887,10.2887,10.2887,10.2887,10.2887,10.2887,10.2887,10.2887,10.2887,10.2887,10.2887,10.2887,10.2887,10.4119,10.5809,10.747,10.9003,11.1214,11.4648,11.6436,11.8901,12.2333,12.2615,12.2615,12.2615,12.2615,12.2615,12.2615,12.2615,12.2848,12.343,12.5349,12.6687,12.7327,12.9246,13.0235,13.0235,13.0235,13.0831,13.2351,13.3898,13.6382,7.3312,7.3615,7.3881,7.4602,7.4868,7.4982,7.4982,7.4982,7.5172,7.5855,7.6083,7.7693,8.29,8.3756,8.5004,8.9866,9.0491,9.1324,9.4333,9.4866,9.5927,9.9114,10.0202,10.0837,10.1227,10.2106,10.2691,10.2887,10.2887,10.2789,10.2594,10.2789,10.2887,10.2887,10.2887,10.2887,10.2887,10.2887,10.2887,10.2887,10.2887,10.2887,10.2887,10.2887,10.2887,10.2887,10.2887,0.0,10.2887,10.2887,10.2887,10.2887,10.2887,10.2887,10.2887,10.2887,10.2887,10.2887,10.2887,10.2887,10.2887,10.2887,10.2887,10.2887,10.2887,10.2887,10.2887,10.2887,10.2887,10.2887,10.2887,10.2887,10.2887,10.2887,10.2887,10.2887,10.2887,10.2887,10.2887,10.2887,10.2887,10.3105,10.3588,10.5759,10.7983,10.9204,11.1711,11.4648,11.8088,12.0858,12.2615,12.2615,12.2615,12.2615,12.2615,12.2615,12.2615,12.2615,12.2615,12.3081,12.407,12.5582,12.692,12.7967,12.9479,13.0415,13.1067,13.1067,13.247,13.5715,13.616,13.961,7.2628,7.316,7.3729,7.3843,7.4451,7.4982,7.4982,7.4982,7.502,7.5134,7.5703,7.7153,8.015,8.3842,8.79,9.2993,9.6116,9.8316,9.8837,9.8837,9.8758,9.8347,9.8347,9.9177,10.1081,10.1422,10.1862,10.2838,10.2887,10.2496,10.152,10.2398,10.2887,10.2887,10.2887,10.2887,10.2887,10.2887,10.2887,10.2887,10.2887,10.2887,10.2887,10.2887,10.2887,10.2887,10.2887,10.2887,10.2887,10.2887,10.2887,10.2887,10.2887,10.2887,10.2887,10.2887,10.2887,10.2887,10.2887,10.2887,10.2887,10.2887,10.2887,10.2887,10.2887,10.2887,10.2887,10.2887,10.2887,10.2887,10.2887,10.2887,10.2887,10.2887,10.2887,10.2887,10.2887,10.2887,10.2887,10.2887,10.2887,10.3588,10.6539,10.747,10.971,11.537,11.6618,11.8088,12.1597,12.2333,12.2615,12.2615,12.2615,12.2615,12.2615,12.2615,12.2615,12.2615,12.2615,12.2674,12.2848,12.5117,12.6454,12.6629,12.9014,13.1537,13.3898,13.3898,13.6181,14.0077,14.2684,14.4952,7.111,7.1717,7.2438,7.2932,7.3312,7.3577,7.3577,7.3957,7.4821,7.697,7.7879,8.0428,8.6182,8.8282,9.0673,9.5507,9.7128,9.7859,9.7859,9.7859,9.7664,9.7176,9.7615,9.8396,9.9372,10.0544,10.1227,10.1081,10.1666,10.1764,10.1325,10.2301,10.2887,10.2887,10.2887,10.2887,10.2887,10.2887,10.2887,10.2887,10.2887,10.2887,10.2887,10.2887,10.2887,10.2887,10.2887,10.2887,10.2887,10.2887,10.2887,10.2887,10.2887,10.2887,10.2887,10.2887,10.2887,10.2887,10.2887,10.2887,10.2887,10.2887,10.2887,10.2887,10.2887,10.2887,10.2887,10.2887,10.2887,10.2887,10.2887,10.2887,10.2887,10.2887,10.2887,10.2887,10.2887,10.2887,10.2887,10.2887,10.4334,10.6539,11.0014,11.1958,11.411,11.7092,11.9308,12.1086,12.2333,12.2615,12.2615,12.2615,12.2615,12.2906,12.3546,12.3604,12.3604,12.3604,12.4302,12.5559,12.7168,12.7317,12.9297,13.3213,13.2845,13.4065,13.6893,13.7848,13.9983,14.3415,14.5476,14.8113,7.0085,7.0654,7.1683,7.3068,7.3648,7.4075,7.4849,7.5592,7.6883,7.9794,8.0872,8.3477,9.089,9.1524,9.2421,9.7301,9.7322,9.6786,9.6786,9.6786,9.6688,9.6444,9.7127,9.7713,9.7957,9.947,10.0007,9.8933,10.0349,10.1178,10.0885,10.2154,10.2887,10.2887,10.2887,10.2887,10.2887,10.2887,10.2887,10.2887,10.2887,10.2887,10.2887,10.2887,10.2887,10.2887,10.2887,10.2887,10.2887,10.2887,10.2887,10.2887,10.2887,10.2887,10.2887,10.2887,10.2887,10.2887,10.2887,10.2887,10.2887,10.2887,10.3372,10.4119,10.4119,10.4598,10.5337,10.5337,10.4861,10.4119,10.4119,10.3372,10.2887,10.2887,10.2887,10.3154,10.3854,10.4119,10.4334,10.5074,10.7264,10.9762,11.2259,11.537,11.7798,11.8844,12.1086,12.2615,12.2615,12.2615,12.2615,12.2615,12.2615,12.353,12.5315,12.5433,12.5998,12.6903,12.791,12.95,13.1719,13.0978,13.3011,13.8207,13.6491,13.7111,13.9818,14.1407,14.3749,14.6957,14.8378,15.0931,7.0236,7.0654,7.2068,7.5141,7.6539,7.821,8.1281,8.1844,8.2406,8.3575,8.3834,8.5455,9.0099,9.1015,9.2421,9.7301,9.7957,9.7908,9.7908,9.7908,9.7518,9.6542,9.6444,9.6883,9.7908,9.8103,9.7713,9.6639,9.9519,10.0837,9.9812,10.1764,10.2887,10.2887,10.2887,10.2887,10.2887,10.2887,10.2887,10.2887,10.2887,10.2887,10.2887,10.2887,10.2887,10.2887,10.2887,10.2887,10.2887,10.2887,10.2887,10.2887,10.2887,10.2887,10.2887,10.2887,10.2887,10.2887,10.2887,10.2887,10.2887,10.2887,10.4812,10.747,10.747,10.9762,11.2259,11.2259,11.0014,10.747,10.747,10.5074,10.2887,10.2887,10.2887,10.3588,10.6747,10.747,10.8494,11.1516,11.2259,11.2506,11.2752,11.537,11.8555,12.1882,12.2615,12.2615,12.2615,12.2615,12.2615,12.2615,12.2615,12.4304,12.8217,12.8493,13.0046,13.4063,13.4393,13.4661,13.4599,13.576,13.6505,13.6985,13.8082,14.0026,14.2802,14.4209,14.7087,15.1316,15.2761,15.4206,7.0085,7.1745,7.3999,7.5258,7.727,7.9529,8.0545,8.1232,8.2739,8.6012,8.7245,8.9091,9.3533,9.4486,9.4883,9.6631,9.6981,9.6981,9.6981,9.6981,9.6834,9.6444,9.6395,9.6542,9.6932,9.6981,9.6834,9.6444,9.8103,9.9324,9.9665,10.1081,10.2154,10.2887,10.2887,10.2887,10.2887,10.2887,10.2887,10.2887,10.2887,10.2887,10.2887,10.2887,10.2887,10.2887,10.2887,10.2887,10.2887,10.2887,10.2887,10.2887,10.2887,10.2887,10.2887,10.2887,10.2887,10.2887,10.2887,10.407,10.602,10.602,10.829,11.0964,11.0964,11.1764,11.2752,11.2752,11.2012,11.0964,11.0964,11.0014,10.9308,10.9308,10.9308,10.9509,11.0767,11.0964,11.1267,11.2506,11.4461,11.5904,11.5904,11.8611,12.1313,12.2391,12.2615,12.2615,12.2615,12.4215,12.5543,12.6317,12.732,12.9095,13.2283,13.2467,13.3131,13.4661,13.6341,13.7938,13.8939,13.8377,13.9686,14.3406,14.2146,14.3513,14.7156,14.7677,14.9629,15.302,15.3546,15.4532,7.1521,7.3499,7.591,7.7832,8.0049,8.2032,8.3259,8.3803,8.5361,8.9022,9.0365,9.181,9.5602,9.6395,9.6395,9.6395,9.6395,9.6395,9.6395,9.6395,9.6395,9.6395,9.6395,9.6395,9.6395,9.6395,9.6395,9.6395,9.742,9.8494,9.9616,10.069,10.1764,10.2838,10.2887,10.2887,10.2887,10.2887,10.2887,10.2887,10.2887,10.2887,10.2887,10.2887,10.2887,10.2887,10.2887,10.2887,10.2887,10.2887,10.2887,10.2887,10.2887,10.2887,10.2887,10.2887,10.3638,10.4598,10.4598,10.6539,10.9457,10.9457,11.1711,11.4461,11.4461,11.5185,11.6198,11.6198,11.5185,11.4461,11.4461,11.3488,11.2752,11.2752,11.2752,11.2998,11.4164,11.4461,11.4703,11.5904,11.7854,11.9308,11.9308,12.1086,12.2615,12.2615,12.2615,12.3005,12.3775,12.62,12.8338,12.9191,13.0107,13.189,13.5005,13.5834,13.6739,13.8042,14.0399,14.2155,14.3082,14.2027,14.3397,14.7102,14.5341,14.5796,14.868,14.9206,15.0455,15.2362,15.3349,15.4269,7.4761,7.568,7.7603,8.3485,8.5006,8.6016,8.9249,9.005,9.0636,9.2686,9.3125,9.376,9.5956,9.6395,9.6395,9.6395,9.6395,9.6395,9.6395,9.6395,9.6395,9.6395,9.6395,9.6395,9.6395,9.6395,9.6395,9.6395,9.7371,9.8445,9.9568,10.0641,10.1715,10.2789,10.2838,10.2838,10.2887,10.2887,10.2887,10.2887,10.2887,10.2887,10.2887,10.2887,10.2887,10.2887,10.2887,10.2887,10.2887,10.2887,10.2887,10.2887,10.2887,10.2887,10.2887,10.2887,10.5074,10.7727,10.7727,10.9962,11.2998,11.2998,11.513,11.7798,11.7798,12.0056,12.2615,12.2615,12.0343,11.7798,11.7798,11.5425,11.2998,11.2998,11.2998,11.3975,11.7092,11.7798,11.8788,12.2107,12.2615,12.2615,12.2615,12.2615,12.2615,12.2615,12.284,12.3834,12.6413,12.9002,13.0556,13.0818,13.0818,13.2503,13.6533,13.8197,14.0884,14.4749,14.6378,14.7167,14.7167,14.7167,14.7167,14.7167,14.7167,14.7167,14.7233,14.868,14.9469,14.96,15.2428,15.3743,7.4842,7.7485,7.9853,8.4082,8.7301,8.9693,8.9962,9.0636,9.1319,9.1905,9.2637,9.3564,9.498,9.5858,9.6395,9.6395,9.6395,9.6395,9.6395,9.6395,9.6395,9.6395,9.6395,9.6395,9.6395,9.6395,9.6395,9.6395,9.6688,9.7322,9.8396,9.8738,9.9763,10.1666,10.1715,10.2106,10.2887,10.2887,10.2887,10.2887,10.2887,10.2887,10.2887,10.2887,10.2887,10.2887,10.2887,10.2887,10.2887,10.2887,10.2887,10.2887,10.2887,10.2887,10.3105,10.5548,10.7006,10.7983,11.0464,11.3434,11.6381,11.6381,11.8611,12.1313,12.1313,12.1882,12.2615,12.2615,12.2107,12.1313,12.1313,12.0629,11.9883,11.9883,11.9883,12.0113,12.1086,12.1313,12.1597,12.2391,12.2615,12.2615,12.2615,12.2615,12.2615,12.2615,12.5986,12.8592,12.941,13.0156,13.1724,13.4684,13.5749,13.7736,14.0822,14.1593,14.2691,14.4931,14.6378,14.7167,14.7167,14.7167,14.7167,14.7167,14.7167,14.7693,14.8811,14.8154,14.8877,15.1047,15.1836,15.2757,7.3082,7.6971,8.0708,8.3729,8.764,9.0782,9.0148,9.0489,9.1075,9.1514,9.21,9.2832,9.3906,9.4589,9.5029,9.5029,9.5029,9.5029,9.5029,9.5029,9.5224,9.5663,9.6901,9.7296,9.6597,9.6395,9.6395,9.6395,9.6395,9.6883,9.7957,9.8006,9.8982,10.1227,10.1276,10.1813,10.2887,10.2887,10.2887,10.2887,10.2887,10.2887,10.2887,10.2887,10.2887,10.2887,10.2887,10.2887,10.2887,10.2887,10.2887,10.2887,10.2887,10.2887,10.3372,10.8034,11.0714,11.2152,11.4164,11.6855,11.9826,11.9826,12.1086,12.2615,12.2615,12.2615,12.2615,12.2615,12.2615,12.2615,12.2615,12.2615,12.2615,12.2615,12.2615,12.3005,12.3996,12.4215,12.4594,12.5832,12.5986,12.5986,12.5986,12.5986,12.5986,12.5986,12.9551,13.2195,13.2195,13.3159,13.4868,13.7253,13.8064,13.9539,14.1775,14.309,14.4142,14.4997,14.6378,14.7167,14.7167,14.7167,14.7167,14.7167,14.7167,14.7562,14.8482,14.7562,14.8022,14.9732,15.0389,15.1507,7.0464,7.5354,8.0559,8.3473,8.7256,9.0001,0.0,9.0099,9.0441,9.127,9.1563,9.1905,9.2783,9.3027,9.3125,9.3125,9.3125,9.3125,9.3559,9.3559,9.3952,9.4933,9.7357,9.8291,9.6499,9.6395,9.6395,9.6395,9.6395,9.6834,9.7762,9.7811,9.8836,10.1032,10.1129,10.1666,10.2887,10.2887,10.2887,10.2887,10.2887,10.2887,10.2887,10.2887,10.2887,10.2887,10.2887,10.3154,10.3372,10.3854,10.3638,10.3372,10.3854,10.3854,10.4598,11.1017,11.513,11.7563,11.8088,12.0056,12.2615,12.2615,12.2615,12.2615,12.2615,12.2615,12.2615,12.2615,12.2615,12.2615,12.2615,12.2615,12.284,12.3005,12.3005,12.3834,12.6413,12.6987,12.7764,13.0156,13.0556,13.0556,13.0556,13.0556,13.0755,13.1412,13.3541,13.492,13.492,13.7185,13.8619,13.8619,13.8619,13.9145,14.0394,14.3156,14.4931,14.526,14.6444,14.7167,14.7167,14.7167,14.7167,14.7167,14.7167,14.7167,14.7167,14.7167,14.7167,14.7167,14.8745,15.0381,0.0,0.0,0.0,0.0,0.0,0.0,0.0,9.0685,9.1124,9.0489,9.1026,9.1661,9.1856,9.2588,9.3125,9.3125,9.3125,9.4041,9.6319,9.6789,9.6891,9.7094,9.7564,9.7431,9.645,9.6395,9.6395,9.6395,9.6395,9.6493,9.6688,9.6737,9.7713,9.9909,10.0007,10.0934,10.2887,10.2887,10.2887,10.2887,10.2887,10.2887,10.2887,10.2887,10.2887,10.2887,10.2887,10.4334,10.7006,10.9762,10.9256,10.7006,10.9762,11.0767,11.1267,11.513,11.7092,11.8088,12.08,12.2107,12.2615,12.2615,12.2615,12.2615,12.2615,12.2615,12.2615,12.2615,12.2615,12.2615,12.2615,12.2615,12.3228,12.5186,12.5772,12.6565,12.9145,12.9753,12.9955,13.0556,13.0556,13.0556,13.0556,13.0556,13.2195,13.6399,13.7429,13.7784,13.7784,13.8203,13.8619,13.8619,13.8619,13.875,13.9013,14.1644,14.4274,14.6575,14.697,14.7167,14.7167,14.7167,14.7167,14.7167,14.7167,14.7167,14.7167,14.7167,14.7167,14.7167,14.8745,15.1248,0.0,0.0,0.0,0.0,0.0,0.0,0.0,0.0,0.0,0.0,0.0,9.0831,9.0831,0.0,9.3772,9.3772,9.4831,9.6384,9.7965,9.8189,9.8847,10.0766,10.0233,9.9272,9.797,9.6999,9.6395,9.6395,9.6395,9.6395,9.6395,9.6395,9.7834,10.1181,10.0096,10.1178,10.4275,10.3343,10.2887,10.2887,10.2887,10.2887,10.2887,10.2887,10.3588,10.5287,10.5287,10.7006,11.0266,11.2012,11.1764,11.0714,11.5665,11.6674,11.5665,11.8844,12.0056,12.0343,12.2107,12.2615,12.2781,12.4215,12.4594,12.4812,12.62,12.6625,12.6625,12.6625,12.6625,12.6625,12.6625,12.6625,12.6987,12.8179,12.8592,12.941,13.1937,13.2583,13.2968,13.436,13.4612,13.4612,13.4612,13.4612,13.5604,13.8203,13.8619,13.8619,13.8619,13.8619,13.8356,13.7632,13.7501,13.783,13.8553,13.9934,14.1972,14.48,14.5721,14.6444,14.7102,14.7167,14.7167,14.7167,14.7167,14.7167,14.7167,14.7167,14.7167,14.7102,14.8315,15.0229,0.0,0.0,0.0,0.0,0.0,0.0,0.0,0.0,0.0,0.0,0.0,0.0,0.0,0.0,0.0,9.3979,9.6307,9.8523,9.938,9.9642,10.1135,10.4156,10.3231,10.1386,9.9139,9.7777,9.6801,9.6102,9.6298,9.6395,9.6395,9.6395,9.8038,10.1717,10.0777,10.1922,10.4917,10.4586,10.4136,10.3854,10.4384,0.0,10.4861,10.4861,10.607,10.8748,10.8748,11.0464,11.3732,11.3732,11.3975,11.5185,12.0629,12.1086,11.902,12.2216,12.3834,12.4215,12.4215,12.4215,12.4594,12.6565,12.7408,12.7764,12.9955,13.0556,0.0,13.0556,13.0556,13.0556,13.0556,13.0556,13.0755,13.1152,13.1349,13.2195,13.4734,13.5355,13.597,13.8203,13.8619,13.8619,13.8619,13.8619,13.8553,13.8224,13.8421,13.8553,13.8224,13.8421,13.8158,13.6975,13.6843,13.7304,13.8553,13.8619,13.9737,14.2301,14.3551,14.4734,14.5852,14.5918,14.5918,14.5918,14.5918,14.6049,14.6312,14.6312,14.6312,14.6247,14.6683,14.8037,0.0,0.0,0.0,0.0,0.0,0.0,0.0,0.0,0.0,0.0,0.0,0.0,0.0,0.0,0.0,0.0,9.515,9.8243,10.1902,10.3729,10.4557,10.4519,10.4491,10.2579,9.8239,9.8431,9.7709,9.5226,9.5858,9.6395,9.6395,9.6395,0.0,0.0,0.0,10.2036,10.1753,10.7247,10.9019,10.7264,11.0266,11.1516,11.1516,11.1516,11.1764,11.2259,11.2259,11.3921,11.7092,11.7092,11.8844,12.1597,12.2333,12.2391,12.2499,12.5186,12.7617,12.9815,12.9815,0.0,0.0,12.9955,13.0156,13.0156,13.0556,13.0556,13.0556,13.0556,13.0556,13.0556,13.0556,13.0556,13.1152,13.3541,13.4108,13.4734,13.7607,13.8203,13.8203,13.8619,13.8619,13.8619,13.8619,13.8619,13.8158,13.6843,13.7764,13.8158,13.6843,13.783,13.8553,13.8421,0.0,0.0,13.8619,13.8619,13.9276,14.0854,14.1117,14.1315,14.1446,14.1446,14.1446,14.1446,14.1446,14.2038,14.3353,14.3353,14.3353,14.3222,14.267,14.4787,0.0,0.0,0.0,0.0,0.0,0.0,0.0,0.0,0.0,0.0,0.0,0.0,0.0,0.0,0.0,0.0,9.6411,9.8887,10.0712,10.3552,10.5359,10.5099,10.4787,10.3912,10.1761,10.1054,10.0458,9.9969,10.0486,10.1054,10.1726,10.1778,10.2887,10.4962,10.5176,10.602,10.7505,10.8865,10.9529,10.9464,11.0998,11.2108,11.2752,11.2752,11.3732,11.561,11.561,11.7384,12.0572,12.0572,12.1313,12.2723,0.0,0.0,0.0,0.0,12.9551,13.0556,13.0556,13.0556,13.0954,13.2326,13.2398,13.1955,13.358,13.3948,13.3948,13.3948,13.4527,13.517,13.517,13.517,13.5604,13.658,13.694,13.7185,13.8444,13.8619,13.8619,13.8619,13.8619,0.0,13.8619,13.8619,13.8421,13.783,13.8224,13.8421,13.7764,13.8224,13.829,13.7435,13.7369,13.7369,13.7369,13.7369,0.0,0.0,0.0,14.0723,14.0723,14.1512,0.0,0.0,0.0,14.0591,14.0394,13.9539,0.0,0.0,13.9147,14.1935,0.0,0.0,0.0,0.0,0.0,0.0,0.0,0.0,0.0,0.0,0.0,0.0,0.0,0.0,0.0,0.0,9.6444,9.895,9.895,10.1707,10.4103,10.5147,10.5357,10.4918,10.4295,10.3173,10.2679,10.2873,10.3023,10.3559,10.4698,10.5074,10.615,10.84,10.8148,10.8968,11.0723,11.0863,11.1207,11.1696,11.2463,11.3375,11.4436,11.4436,11.5674,11.7826,11.7826,11.9313,12.1568,12.1568,12.1801,12.2363,12.4368,12.5794,12.7424,12.9623,13.048,13.0675,13.1888,13.2459,13.3159,13.4984,13.4636,13.3837,13.5865,13.6186,13.5923,13.6317,13.7238,13.8093,13.8553,13.8619,13.8619,13.8619,13.8619,13.8619,13.8619,13.8619,13.8619,13.8619,13.8619,13.8619,13.8619,13.8619,13.8661,13.8822,13.9086,0.0,13.9533,13.9966,13.9833,13.8766,13.8633,13.8633,13.8633,13.8233,13.8633,14.0166,14.0832,14.1366,14.1766,14.2032,14.1826,14.1377,13.9824,13.8224,0.0,0.0,0.0,0.0,0.0,0.0,0.0,0.0,0.0,0.0,0.0,0.0,0.0,0.0,0.0,0.0,0.0,0.0,0.0,0.0,0.0,0.0,0.0,0.0,9.7716,9.8726,10.0949,10.4779,10.6561,10.6015,10.3418,10.3919,10.332,10.051,10.1362,10.2005,10.2059,10.313,10.3947,10.3947,10.8067,10.9281,10.7383,11.3525,11.5586,11.3752,11.6904,11.8617,11.8675,11.8675,11.8675,11.8675,11.8675,11.8675,11.8893,11.8893,11.9649,12.1239,12.47,12.6994,12.8504,12.9858,13.0267,13.0887,13.4818,13.7196,13.8444,13.8444,13.7459,13.6383,13.6449,13.5462,13.4673,13.6054,13.6449,13.6843,13.8224,13.8619,13.8619,13.8619,13.8619,13.8619,13.8619,13.8619,13.8619,13.8619,13.8619,13.8619,13.8619,13.8619,13.8717,13.9209,14.0471,0.0,14.216,14.3406,14.4152,14.4231,14.4231,14.4231,14.4231,14.2925,14.2719,14.4231,14.2994,14.2856,14.43,14.1619,13.9234,13.7398,13.5513,13.3753,13.2174,0.0,0.0,0.0,0.0,0.0,0.0,0.0,0.0,0.0,0.0,0.0,0.0,0.0,0.0,0.0,0.0,0.0,0.0,0.0,0.0,0.0,0.0,0.0,0.0,9.6762,9.8922,10.1202,10.245,10.2126,9.9345,10.175,10.3431,10.3367,10.5345,10.7067,10.786,10.8256,10.8936,10.9786,11.1363,11.2164,11.2278,11.434,11.5675,11.5805,11.7008,11.7962,11.8776,11.8776,11.8776,11.8776,11.8776,11.8776,11.8994,12.0533,12.1997,12.3541,12.6469,12.8467,12.9858,13.2138,13.2949,13.3187,13.4464,13.5331,13.5791,13.5791,13.4739,13.349,13.349,13.3161,13.3095,13.4607,13.5725,13.6777,13.8224,13.8619,13.8619,13.8619,13.8619,13.8619,13.8619,13.8619,13.8619,13.8619,13.7106,13.5791,13.5791,13.7569,13.8886,13.8139,14.1139,14.3567,14.3612,14.4172,14.4447,14.4447,14.4447,14.4447,14.4447,14.3965,14.3897,14.4447,14.3965,14.3897,14.4447,14.252,14.0612,13.8767,13.6944,13.3847,12.9149,0.0,0.0,0.0,0.0,0.0,0.0,0.0,0.0,0.0,0.0,0.0,0.0,0.0,0.0,0.0,0.0,0.0,0.0,0.0,0.0,0.0,0.0,0.0,0.0,0.0,0.0,9.6421,9.8168,0.0,9.7173,9.9454,10.1278,10.2437,10.5424,10.7308,10.8054,10.9647,11.0749,11.1622,11.2029,11.2902,11.4181,11.4181,11.4821,11.6101,11.6101,11.6566,11.738,11.738,11.738,11.7439,11.8859,11.9165,11.8904,12.0387,12.2503,12.4588,12.6737,12.8932,13.1038,13.2327,13.2766,13.2832,13.3292,13.349,13.349,13.349,13.178,12.9807,13.0333,12.9741,12.9478,13.2043,13.3753,13.5331,13.7304,13.8224,13.8619,13.8619,13.8619,13.8619,13.8619,13.8224,13.7698,13.7172,13.5594,13.4147,13.3555,13.5834,13.7756,13.8202,14.1481,14.4421,14.6229,14.6506,14.6506,14.6506,14.6506,14.6506,14.6506,14.6506,14.6506,14.6506,14.6506,14.6227,14.5669,14.4204,14.1509,13.7334,13.6234,13.2515,0.0,0.0,0.0,0.0,0.0,0.0,0.0,0.0,0.0,0.0,0.0,0.0,0.0,0.0,0.0,0.0,0.0,0.0,0.0,0.0,0.0,0.0,0.0,0.0,0.0,0.0,0.0,9.1451,9.3692,0.0,0.0,0.0,0.0,9.8094,10.1014,10.2784,10.2784,10.6734,10.9004,10.9121,11.0284,11.1564,11.2843,11.2902,11.3541,11.4821,11.4821,11.4821,11.4879,11.4879,11.4879,11.5148,11.8902,11.9818,11.8414,11.8811,12.105,12.4465,12.5413,12.8147,13.125,12.9872,12.9348,12.9479,13.0922,13.1315,13.125,13.1119,12.8298,12.5215,12.6557,12.5335,0.0,0.0,13.0596,13.2372,13.5397,13.7238,13.829,13.8421,13.8421,13.8421,13.8421,13.7304,13.5857,13.4279,13.3884,13.3292,13.1714,0.0,13.5649,13.9075,14.1426,14.4522,14.9386,15.0196,15.0267,15.0267,15.0267,15.0267,15.0267,15.0267,15.0267,15.0267,15.0267,14.9554,14.7984,14.6272,14.1507,13.3565,13.3155,0.0,0.0,0.0,0.0,0.0,0.0,0.0,0.0,0.0,0.0,0.0,0.0,0.0,0.0,0.0,0.0,0.0,0.0,0.0,0.0,0.0,0.0,0.0,0.0,0.0,0.0,8.7055,8.7983,8.8758,9.011,9.0037,0.0,0.0,0.0,0.0,0.0,0.0,10.0152,10.2191,10.4785,10.7725,10.9004,11.0226,11.1506,11.1506,11.2145,11.3483,11.3483,11.3949,11.4879,11.4879,11.4879,11.4879,11.6009,11.6159,11.6279,12.1025,12.2529,12.1598,12.1775,12.2626,12.3418,12.3102,12.228,12.1697,12.2975,12.2786,12.1697,11.978,11.8385,11.7412,11.7389,0.0,0.0,0.0,0.0,12.8097,13.2109,13.3424,13.395,13.5133,13.5397,13.5397,13.5397,13.5133,13.3753,13.0136,12.7703,12.5796,12.4283,0.0,0.0,0.0,0.0,14.3872,14.6394,14.884,15.0267,15.0267,15.0267,15.0267,15.0267,15.0267,15.0267,15.0267,15.0267,14.9554,14.7984,14.4202,13.8823,13.1908,0.0,0.0,0.0,0.0,0.0,0.0,0.0,0.0,0.0,0.0,0.0,0.0,0.0,0.0,0.0,0.0,0.0,0.0,0.0,0.0,0.0,0.0,0.0,0.0,0.0,0.0,0.0,8.342,8.3616,8.3772,8.5231,8.5583,0.0,0.0,0.0,0.0,0.0,0.0,0.0,0.0,0.0,10.4641,10.6495,10.8365,11.0168,11.0226,11.0866,11.2145,11.2727,11.3367,11.4065,11.4647,11.4879,11.4937,11.6868,11.6249,11.4273,11.7356,11.877,11.8866,0.0,0.0,0.0,0.0,11.8039,11.6979,11.779,11.754,11.6417,11.3844,0.0,0.0,0.0,0.0,0.0,0.0,0.0,12.5335,12.8426,13.0136,13.1451,13.2963,13.2832,13.2569,13.3161,12.9807,12.5927,12.3428,12.1653,12.0272,11.9483,0.0,0.0,0.0,0.0,14.0059,14.3821,14.6473,14.8244,14.8881,14.9713,15.0267,15.0267,15.0267,15.0267,15.0267,14.9625,14.7913,14.4987,14.0992,13.5211,0.0,0.0,0.0,0.0,0.0,0.0,0.0,0.0,0.0,0.0,0.0,0.0,0.0,0.0,0.0,0.0,0.0,0.0,0.0,0.0,0.0,0.0,0.0,0.0,0.0,0.0,0.0,0.0,0.0,7.858,7.8727,0.0,0.0,0.0,0.0,0.0,0.0,0.0,0.0,0.0,0.0,0.0,0.0,0.0,10.5627,10.8199,10.8282,10.9121,11.0517,11.168,11.2378,11.2785,11.389,11.4356,11.4623,11.7686,0.0,11.1913,11.0459,0.0,0.0,0.0,0.0,0.0,0.0,0.0,0.0,0.0,0.0,0.0,0.0,0.0,0.0,0.0,0.0,0.0,0.0,0.0,0.0,0.0,0.0,12.8492,12.9939,12.9347,12.8689,12.9544,12.2639,11.6195,11.5998,11.5998,11.5932,0.0,0.0,0.0,0.0,0.0,0.0,14.1285,14.387,14.5765,14.7231,14.8881,14.9885,14.9982,14.9982,14.9911,14.9697,14.7984,14.4987,14.0492,13.7281,0.0,0.0,0.0,0.0,0.0,0.0,0.0,0.0,0.0,0.0,0.0,0.0,0.0,0.0,0.0,0.0,0.0,0.0,0.0,0.0,0.0,0.0,0.0,0.0,0.0,0.0,0.0,0.0,0.0,0.0,0.0,0.0,0.0,0.0,0.0,0.0,0.0,0.0,0.0,0.0,0.0,0.0,0.0,0.0,0.0,0.0,0.0,0.0,0.0,0.0,10.819,10.9353,11.1331,11.1564,11.168,11.1564,11.0303,10.841,10.654,10.5183,0.0,0.0,0.0,0.0,0.0,0.0,0.0,0.0,0.0,0.0,0.0,0.0,0.0,0.0,0.0,0.0,0.0,0.0,0.0,0.0,0.0,0.0,11.9483,12.0995,12.1193,12.0404,11.8234,0.0,0.0,0.0,0.0,0.0,0.0,0.0,0.0,0.0,0.0,0.0,13.8631,14.2603,14.5733,14.7601,14.7922,14.8007,14.8294,14.8341,14.777,14.6486,14.3774,14.0635,0.0,0.0,0.0,0.0,0.0,0.0,0.0,0.0,0.0,0.0,0.0,0.0,0.0,0.0,0.0,0.0,0.0,0.0,0.0,0.0,0.0,0.0,0.0,0.0,0.0,0.0,0.0,0.0,0.0,0.0,0.0,0.0,0.0,0.0,0.0,0.0,0.0,0.0,0.0,0.0,0.0,0.0,0.0,0.0,0.0,0.0,0.0,0.0,0.0,0.0,0.0,0.0,0.0,0.0,0.0,0.0,0.0,0.0,10.3385,10.1104,0.0,0.0,0.0,0.0,0.0,0.0,0.0,0.0,0.0,0.0,0.0,0.0,0.0,0.0,0.0,0.0,0.0,0.0,0.0,0.0,0.0,0.0,0.0,0.0,0.0,0.0,0.0,0.0,0.0,0.0,0.0,0.0,0.0,0.0,0.0,0.0,0.0,0.0,0.0,0.0,13.5339,13.9709,14.3501,14.61,14.7,14.7763,14.9078,14.8412,14.6914,14.4559,14.1491,0.0,0.0,0.0,0.0,0.0,0.0,0.0,0.0,0.0,0.0,0.0,0.0,0.0,0.0,0.0,0.0,0.0,0.0,0.0,0.0,0.0,0.0,0.0,0.0,0.0,0.0,0.0,0.0,0.0,0.0,0.0,0.0,0.0,0.0,0.0,0.0,0.0,0.0,0.0,0.0,0.0,0.0,0.0,0.0,0.0,0.0,0.0,0.0,0.0,0.0,0.0,0.0,0.0,0.0,0.0,0.0,0.0,0.0,0.0,9.6682,9.4585,0.0,0.0,0.0,0.0,0.0,0.0,0.0,0.0,0.0,0.0,0.0,0.0,0.0,0.0,0.0,0.0,0.0,0.0,0.0,0.0,0.0,0.0,0.0,0.0,0.0,0.0,0.0,0.0,0.0,0.0,0.0,0.0,0.0,0.0,0.0,0.0,0.0,0.0,0.0,0.0,13.2565,13.6769,14.0881,14.4209,14.5906,14.7481,14.9221,14.8127,14.5772,14.1991,13.8851,0.0,0.0,0.0,0.0,0.0,0.0,0.0,0.0,0.0,0.0,0.0,0.0,0.0,0.0,0.0,0.0,0.0,0.0,0.0,0.0,0.0,0.0,0.0,0.0,0.0,0.0,0.0,0.0,0.0,0.0,0.0,0.0,0.0,0.0,0.0,0.0,0.0,0.0,0.0,0.0,0.0,0.0,0.0,0.0,0.0,0.0,0.0,0.0,0.0,0.0,0.0,0.0,0.0,0.0,0.0,0.0,0.0,0.0,0.0,0.0,0.0,0.0,0.0,0.0,0.0,0.0,0.0,0.0,0.0,0.0,0.0,0.0,0.0,0.0,0.0,0.0,0.0,0.0,0.0,0.0,0.0,0.0,0.0,0.0,0.0,0.0,0.0,0.0,0.0,0.0,0.0,0.0,0.0,0.0,0.0,0.0,0.0,0.0,0.0,0.0,0.0,13.1292,13.5503,13.9555,14.3073,14.4491,14.5438,14.6013,14.5915,14.3275,13.7281,0.0,0.0,0.0,0.0,0.0,0.0,0.0,0.0,0.0,0.0,0.0,0.0,0.0,0.0,0.0,0.0,0.0,0.0,0.0,0.0,0.0,0.0,0.0,0.0,0.0,0.0,0.0,0.0,0.0,0.0,0.0,0.0,0.0,0.0,0.0,0.0,0.0,0.0,0.0,0.0,0.0,0.0,0.0,0.0,0.0,0.0,0.0,0.0,0.0,0.0,0.0,0.0,0.0,0.0,0.0,0.0,0.0,0.0,0.0,0.0,0.0,0.0,0.0,0.0,0.0,0.0,0.0,0.0,0.0,0.0,0.0,0.0,0.0,0.0,0.0,0.0,0.0,0.0,0.0,0.0,0.0,0.0,0.0,0.0,0.0,0.0,0.0,0.0,0.0,0.0,0.0,0.0,0.0,0.0,0.0,0.0,0.0,0.0,0.0,0.0,0.0,0.0,12.9971,13.475,13.8974,14.1664,14.2991,14.417,14.5514,14.4773,14.108,13.3965,0.0,0.0,0.0,0.0,0.0,0.0,0.0,0.0,0.0,0.0,0.0,0.0,0.0,0.0,0.0,0.0,0.0,0.0,0.0,0.0,0.0,0.0,0.0,0.0,0.0,0.0,0.0,0.0,0.0,0.0,0.0,0.0,0.0,0.0,0.0,0.0,0.0,0.0,0.0,0.0,0.0,0.0,0.0,0.0,0.0,0.0,0.0,0.0,0.0,0.0,0.0,0.0,0.0,0.0,0.0,0.0,0.0,0.0,0.0,0.0,0.0,0.0,0.0,0.0,0.0,0.0,0.0,0.0,0.0,0.0,0.0,0.0,0.0,0.0,0.0,0.0,0.0,0.0,0.0,0.0,0.0,0.0,0.0,0.0,0.0,0.0,0.0,0.0,0.0,0.0,0.0,0.0,0.0,0.0,0.0,0.0,0.0,0.0,0.0,0.0,0.0,0.0,12.8505,13.3795,13.8235,14.0095,14.1798,14.3396,14.4801,14.3073,13.8682,13.1278,0.0,0.0,0.0,0.0,0.0,0.0,0.0,0.0,0.0,0.0,0.0,0.0,0.0,0.0,0.0,0.0,0.0,0.0,0.0,0.0,0.0,0.0,0.0,0.0,0.0,0.0,0.0,0.0,0.0,0.0,0.0,0.0,0.0,0.0,0.0,0.0,0.0,0.0,0.0,0.0,0.0,0.0,0.0,0.0,0.0,0.0,0.0,0.0,0.0,0.0,0.0,0.0,0.0,0.0,0.0,0.0,0.0,0.0,0.0,0.0,0.0,0.0,0.0,0.0,0.0,0.0,0.0,0.0,0.0,0.0,0.0,0.0,0.0,0.0,0.0,0.0,0.0,0.0,0.0,0.0,0.0,0.0,0.0,0.0,0.0,0.0,0.0,0.0,0.0,0.0,0.0,0.0,0.0,0.0,0.0,0.0,0.0,0.0,0.0,0.0,0.0,0.0,12.6793,13.2429,13.6925,13.8494,14.142,14.3275,14.3275,14.0356,13.5846,0.0,0.0,0.0,0.0,0.0,0.0,0.0,0.0,0.0,0.0,0.0,0.0,0.0,0.0,0.0,0.0,0.0,0.0,0.0,0.0,0.0,0.0,0.0,0.0,0.0,0.0,0.0,0.0,0.0,0.0,0.0,0.0,0.0,0.0,0.0,0.0,0.0,0.0,0.0,0.0,0.0,0.0,0.0,0.0,0.0,0.0,0.0,0.0,0.0,0.0,0.0,0.0,0.0,0.0,0.0,0.0,0.0,0.0,0.0,0.0,0.0,0.0,0.0,0.0,0.0,0.0,0.0,0.0,0.0,0.0,0.0,0.0,0.0,0.0,0.0,0.0,0.0,0.0,0.0,0.0,0.0,0.0,0.0,0.0,0.0,0.0,0.0,0.0,0.0,0.0,0.0,0.0,0.0,0.0,0.0,0.0,0.0,0.0,0.0,0.0,0.0,0.0,0.0,12.6579,13.1502,13.5283,0.0,13.9779,14.1277,14.0207,13.9116,13.5309,12.7975,0.0,0.0,0.0,0.0,0.0,0.0,0.0,0.0,0.0,0.0,0.0,0.0,0.0,0.0,0.0,0.0,0.0,0.0,0.0,0.0,0.0,0.0,0.0,0.0,0.0,0.0,0.0,0.0,0.0,0.0,0.0,0.0,0.0,0.0,0.0,0.0,0.0,0.0,0.0,0.0,0.0,0.0,0.0,0.0,0.0,0.0,0.0,0.0,0.0,0.0,0.0,0.0,0.0,0.0,0.0,0.0,0.0,0.0,0.0,0.0,0.0,0.0,0.0,0.0,0.0,0.0,0.0,0.0,0.0,0.0,0.0,0.0,0.0,0.0,0.0,0.0,0.0,0.0,0.0,0.0,0.0,0.0,0.0,0.0,0.0,0.0,0.0,0.0,0.0,0.0,0.0,0.0,0.0,0.0,0.0,0.0,0.0,0.0,0.0,0.0,0.0,0.0,0.0,13.0503,13.3642,0.0,13.7638,13.878,13.7781,13.6515,13.3328,12.7132,0.0,0.0,0.0,0.0,0.0,0.0,0.0,0.0,0.0,0.0,0.0,0.0,0.0,0.0,0.0,0.0,0.0,0.0,0.0,0.0,0.0,0.0,0.0,0.0,0.0,0.0,0.0,0.0,0.0,0.0,0.0,0.0,0.0,0.0,0.0,0.0,0.0,0.0,0.0,0.0,0.0,0.0,0.0,0.0,0.0,0.0,0.0,0.0,0.0,0.0,0.0,0.0,0.0,0.0,0.0,0.0,0.0,0.0,0.0,0.0,0.0,0.0,0.0,0.0,0.0,0.0,0.0,0.0,0.0,0.0,0.0,0.0,0.0,0.0,0.0,0.0,0.0,0.0,0.0,0.0,0.0,0.0,0.0,0.0,0.0,0.0,0.0,0.0,0.0,0.0,0.0,0.0,0.0,0.0,0.0,0.0,0.0,0.0,0.0,0.0,0.0,0.0,0.0,12.9504,13.2073,13.3785,13.5355,13.6211,13.6068,13.3214,13.0084,12.7034,12.3607,0.0,0.0,0.0,0.0,0.0,0.0,0.0,0.0,0.0,0.0,0.0,0.0,0.0,0.0,0.0,0.0,0.0,0.0,0.0,0.0,0.0,0.0,0.0,0.0,0.0,0.0,0.0,0.0,0.0,0.0,0.0,0.0,0.0,0.0,0.0,0.0,0.0,0.0,0.0,0.0,0.0,0.0,0.0,0.0,0.0,0.0,0.0,0.0,0.0,0.0,0.0,0.0,0.0,0.0,0.0,0.0,0.0,0.0,0.0,0.0,0.0,0.0,0.0,0.0,0.0,0.0,0.0,0.0,0.0,0.0,0.0,0.0,0.0,0.0,0.0,0.0,0.0,0.0,0.0,0.0,0.0,0.0,0.0,0.0,0.0,0.0,0.0,0.0,0.0,0.0,0.0,0.0,0.0,0.0,0.0,0.0,0.0,0.0,0.0,0.0,0.0,0.0,12.7863,13.086,13.3642,13.5355,13.5783,13.457,13.2681,13.019,12.7063,12.2785,0.0,0.0,0.0,0.0,0.0,0.0,0.0,0.0,0.0,0.0,0.0,0.0,0.0,0.0,0.0,0.0,0.0,0.0,0.0,0.0,0.0,0.0,0.0,0.0,0.0,0.0,0.0,0.0,0.0,0.0,0.0,0.0,0.0,0.0,0.0,0.0,0.0,0.0,0.0,0.0,0.0,0.0,0.0,0.0,0.0,0.0,0.0,0.0,0.0,0.0,0.0,0.0,0.0,0.0,0.0,0.0,0.0,0.0,0.0,0.0,0.0,0.0,0.0,0.0,0.0,0.0,0.0,0.0,0.0,0.0,0.0,0.0,0.0,0.0,0.0,0.0,0.0,0.0,0.0,0.0,0.0,0.0,0.0,0.0,0.0,0.0,0.0,0.0,0.0,0.0,0.0,0.0,0.0,0.0,0.0,0.0,0.0,0.0,0.0,0.0,0.0,0.0,12.3582,12.7435,13.1359,13.3214,13.3785,13.2929,13.143,12.8941,12.5046,11.9019,0.0,0.0,0.0,0.0,0.0,0.0,0.0,0.0,0.0,0.0,0.0,0.0,0.0,0.0,0.0,0.0,0.0,0.0,0.0,0.0,0.0,0.0,0.0,0.0,0.0,0.0,0.0,0.0,0.0,0.0,0.0,0.0,0.0,0.0,0.0,0.0,0.0,0.0,0.0,0.0,0.0,0.0,0.0,0.0,0.0,0.0,0.0,0.0,0.0,0.0,0.0,0.0,0.0,0.0,0.0,0.0,0.0,0.0,0.0,0.0,0.0,0.0,0.0,0.0,0.0,0.0,0.0,0.0,0.0,0.0,0.0,0.0,0.0,0.0,0.0,0.0,0.0,0.0,0.0,0.0,0.0,0.0,0.0,0.0,0.0,0.0,0.0,0.0,0.0,0.0,0.0,0.0,0.0,0.0,0.0,0.0,0.0,0.0,0.0,0.0,0.0,0.0,0.0,12.3171,12.772,12.9789,13.0755,13.0579,12.905,12.6251,12.1813,0.0,0.0,0.0,0.0,0.0,0.0,0.0,0.0,0.0,0.0,0.0,0.0,0.0,0.0,0.0,0.0,0.0,0.0,0.0,0.0,0.0,0.0,0.0,0.0,0.0,0.0,0.0,0.0,0.0,0.0,0.0,0.0,0.0,0.0,0.0,0.0,0.0,0.0,0.0,0.0,0.0,0.0,0.0,0.0,0.0,0.0,0.0,0.0,0.0,0.0,0.0,0.0,0.0,0.0,0.0,0.0,0.0,0.0,0.0,0.0,0.0,0.0,0.0,0.0,0.0,0.0,0.0,0.0,0.0,0.0,0.0,0.0,0.0,0.0,0.0,0.0,0.0,0.0,0.0,0.0,0.0,0.0,0.0,0.0,0.0,0.0,0.0,0.0,0.0,0.0,0.0,0.0,0.0,0.0,0.0,0.0,0.0,0.0,0.0,0.0,0.0,0.0,0.0,0.0,11.9536,12.2842,12.5865,12.7096,12.5638,12.4009,12.1772,11.8476,0.0,0.0,0.0,0.0,0.0,0.0,0.0,0.0,0.0,0.0,0.0,0.0,0.0,0.0]}]]]